Está en la página 1de 54

SANTINI GRANFONDO STELVIO

CRONOSCALATA DI TEGLIO - KM 5,00

Posiz Pett CognomeNome Sesso PosSex Società Tempo Media PERCORSO


1 10 ZEN ENRICO M 1 TEAM TERENZI TREK GIST 00:15:45.80 19,05 LUNGO
2 656 PODLOGAR TIM M 2 INDIVIDUALE 00:15:55.70 18,85 LUNGO
3 2138 GRANT RUARI M 3 INDIVIDUALE 00:15:58.30 18,79 LUNGO
4 2414 DALSANT ROBERTO M 4 CLUB CICLISTICO ROTALIANO 00:16:16.80 18,44 MEDIO
5 356 LORENZINI PIERO M 5 ARGON 18 - HICARI - STEMAX 00:16:21.70 18,35 LUNGO
6 2981 TACCOLA DENIS M 6 TEAM DE ROSA SANTINI 00:16:29.10 18,2 MEDIO
7 6 FELLINE FABIO M 7 TREK SEGAFREDO 00:16:31.40 18,16 LUNGO
8 189 FUMAGALLI DAVIDE M 8 TEAM PRIVEE - POWERED BY RETELIT 00:16:32.00 18,15 MEDIO
9 111 DOTTI TOMMASO M 9 TEAM MILANO CYCLING ASD 00:16:45.00 17,91 LUNGO
10 358 DE LORENZI CHRISTIAN M 10 ALTA VALTELLINA BIKE 00:16:51.60 17,8 LUNGO
11 17 ANTONIOLI MICHELE M 11 US BORMIESE 00:17:15.50 17,39 LUNGO
12 19 ANTONIOLI MATTIA M 12 US BORMIESE 00:17:17.30 17,36 MEDIO
13 380 PEDRANZINI DENIS M 13 ALTA VALTELLINA BIKE 00:17:17.30 17,36 LUNGO
14 90 RUVOLO ANTONINO M 14 ASD GRASSO VILLANTI 00:17:23.30 17,26 LUNGO
15 1491 HAGENAARS PATRICK M 15 RADSPORT STANGER 00:17:27.50 17,19 LUNGO
16 2149 JENAL ROBERTO M 16 VELOCLUB SURSELVA 00:17:28.20 17,18 MEDIO
17 85 ARRIGONI ENRICO M 17 ASD BREMBER VALLEY 00:17:28.70 17,18 MEDIO
18 21 SCHENA DANIELE M 18 US BORMIESE 00:17:30.30 17,14 LUNGO
19 2738 CONFORTOLA YURI M 19 US BORMIESE 00:17:37.80 17,03 MEDIO
20 82 EBENE MARCO M 20 AL4CYCLING 00:17:42.80 16,95 MEDIO
21 546 BERNINGER MICHAEL M 21 TOBSENSWORLD 00:17:43.20 16,93 LUNGO
22 174 CAVALLO MATTIA M 22 CICLI PEPINO 00:17:46.90 16,89 LUNGO
23 1298 PIZZORNO DANIELE M 23 SUPERBA PROGETTO BICI 00:17:49.00 16,84 LUNGO
24 212 COLOMBO ALFREDO M 24 TEAM DE ROSA SANTINI 00:17:50.10 16,82 MEDIO
25 468 BARZASI MARCO M 25 GC CAMPO DEI FIORI 00:17:50.90 16,82 MEDIO
26 1746 MAGGI GIOVANNI M 26 INDIVIDUALE 00:17:54.10 16,76 LUNGO
27 3233 FIGINI LUCA M 27 GEFO 00:17:54.20 16,76 LUNGO
28 622 HEFNER HEIKO M 28 INDIVIDUALE 00:17:54.30 16,76 LUNGO
29 424 SCALA STEFANO M 29 ASD TEAM DUAL BIKE CANTU’ 00:17:55.50 16,74 LUNGO
30 1248 FUMAGALLI DAMIANO M 30 VAM RACE ASD 00:18:03.50 16,62 MEDIO
31 929 MOORE ROBERT M 31 NUUN SIGMA SPORTS 00:18:07.70 16,56 LUNGO
32 913 MAGNINI ANDREA M 32 OLIMPIA CYCLING TEAM ASD 00:18:10.10 16,51 LUNGO
33 418 MORASCHINI ALBERTO M 33 ASD SPECIAL BERGAMO SPORT 00:18:11.10 16,5 MEDIO
34 18 BIANCHI REMO M 34 US BORMIESE 00:18:14.00 16,45 LUNGO
35 431 MACCIANTI MARCO M 35 ASD. IMPERO 00:18:15.10 16,44 MEDIO
36 610 FROEHLICHER MIRCO M 36 INDIVIDUALE 00:18:19.80 16,38 MEDIO
37 38 MAGRO MATTIA M 37 US BORMIESE 00:18:20.80 16,36 MEDIO

Classifica elaborata da www.winningtime.it


SANTINI GRANFONDO STELVIO
CRONOSCALATA DI TEGLIO - KM 5,00

Posiz Pett CognomeNome Sesso PosSex Società Tempo Media PERCORSO


38 220 TARABINI STEFANO M 38 TEAM DE ROSA SANTINI 00:18:23.30 16,32 MEDIO
39 2565 EDELSTEIN PAUL M 39 INDIVIDUALE 00:18:35.80 16,14 LUNGO
40 369 MENICONI FABIO M 40 ASD SIENA NEL CUORE 00:18:37.30 16,11 LUNGO
41 152 VALENZIANO SIMONE M 41 INDIVIDUALE 00:18:37.50 16,11 MEDIO
42 1 CASARTELLI FABRIZIO M 42 COLNAGO-MG.K VIS 00:18:38.00 16,1 LUNGO
43 208 ACKERMANN TOBIA M 43 TEAM DE ROSA SANTINI 00:18:38.50 16,1 MEDIO
44 2387 HAMBURGER HAMBURGER M 44 INDIVIDUALE 00:18:43.50 16,03 LUNGO
45 107 FIEGE LORENZ M 45 TEAM DEUTSCHLAND TOUR 00:18:43.70 16,03 LUNGO
46 1443 MOCCI STEFANO M 46 ASD TOKENS CICLI BETTONI COSTA VOLPINO 00:18:44.80 16,01 LUNGO
47 862 HERMANN JACOB M 47 BIG GUYS ON SMALL RINGS 00:18:46.30 15,99 LUNGO
48 488 SHAW MARTIN M 48 KULMINE W.A.C. 00:18:49.00 15,94 LUNGO
49 109 BERTON PAOLO M 49 TEAM MILANO CYCLING ASD 00:18:51.30 15,92 MEDIO
50 3228 BORGONOVO ROBERTO M 50 TEAM BMX GARLATE 00:18:52.70 15,9 LUNGO
51 2098 WASSINK TOM M 51 INDIVIDUALE 00:18:53.20 15,89 MEDIO
52 188 DONI CHIARA F 1 TEAM PRIVEE - POWERED BY RETELIT 00:18:53.50 15,89 MEDIO
53 516 SICCARDI SEBASTIANO M 52 RODMAN AZIMUT 00:18:54.80 15,87 MEDIO
54 785 CALLEJO FRANCISCO M 53 SAN LORENZO 00:18:56.10 15,85 LUNGO
55 2285 ETTENHUBER FYNN M 54 WERKSTATT 17 BIKESHOP 00:18:56.50 15,85 LUNGO
56 3279 LORENZI GIOVANNI M 55 TRITTICI DEL SERRA 00:18:56.60 15,85 LUNGO
57 2739 POZZI MICHELE M 56 ALTA VALTELLINA BIKE 00:18:57.10 15,83 MEDIO
58 216 PRATO ANNALISA F 2 TEAM DE ROSA SANTINI 00:19:00.10 15,79 LUNGO
59 1267 OBLETTER STEPHAN M 57 POLI.A.V.I. BIKE TEAM 00:19:00.90 15,79 LUNGO
60 429 TOMASSONE PATRICK M 58 ASD VELO CLUB VALSUSA 00:19:01.00 15,78 LUNGO
61 2511 WÖRZ PAULINA F 3 RSC KEMPTEN 00:19:02.70 15,76 LUNGO
62 1079 D'ANTONIO SALVATORE M 59 CICLI DEDONATO ROAD RUNNERS 00:19:04.30 15,73 LUNGO
63 113 RAAB HERMANN M 60 TEAM MILANO CYCLING ASD 00:19:04.70 15,73 MEDIO
64 2 ZIGGIOTTI MIRKO M 61 ASD RODMAN AZIMUT 00:19:06.80 15,71 LUNGO
65 503 DUZIONI AUGUSTO M 62 PONTIROLESE 00:19:07.50 15,69 MEDIO
66 2737 SPECHENHAUSER LUCA M 63 US BORMIESE 00:19:08.00 15,68 MEDIO
67 1200 STRATMANN PHILIPP M 64 INDIVIDUALE 00:19:09.50 15,67 LUNGO
68 132 CALVI DANIELE MARCO M 65 INDIVIDUALE 00:19:15.70 15,58 MEDIO
69 3248 LUALDI FEDERICO M 66 VANZAVILLA TEAM 00:19:19.50 15,53 LUNGO
70 732 ANDRE CHRISTIAN M 67 LG BERTRANGE 00:19:20.30 15,52 LUNGO
71 43 RAINOLTER MARCO M 68 US BORMIESE 00:19:22.50 15,49 LUNGO
72 2014 CIACCI ALESSANDRO M 69 TUSCANYGO WELLNESS & SPORT 00:19:22.90 15,49 LUNGO
73 1645 SCHÄFER JOHANNES M 70 RSC BIMBACH 00:19:23.30 15,48 LUNGO
74 2687 GARZETTI MARCO M 71 ALTA VALTELLINA BIKE 00:19:23.60 15,48 LUNGO

Classifica elaborata da www.winningtime.it


SANTINI GRANFONDO STELVIO
CRONOSCALATA DI TEGLIO - KM 5,00

Posiz Pett CognomeNome Sesso PosSex Società Tempo Media PERCORSO


75 1251 BELLOMI FABIO M 72 TEAM PIRATA VAL DI CORTENO-APRICA ASD 00:19:25.30 15,45 LUNGO
76 2641 ROBLES CASADO JESUS A. M 73 EXPRESS CAR ULB CCC 00:19:27.70 15,42 LUNGO
77 1770 BOSCHINI GIAN M 74 ASD TEAM ALL4CYCLING-BDC 00:19:29.00 15,4 LUNGO
78 210 CAPOFERRI ANDREA M 75 TEAM DE ROSA SANTINI 00:19:31.00 15,37 MEDIO
79 1602 GROPPI SIMONE M 76 ASD CASSINIS CYCLING TEAM 00:19:31.50 15,37 LUNGO
80 687 SALVATORE VITO M 77 ASD GS MUROLO COSTRUZIONI 00:19:33.50 15,35 LUNGO
81 487 VESTERGAARD POUL M 78 KTK86 00:19:34.80 15,33 LUNGO
82 376 PARODI ROBERTO M 79 ALBISOLA BIKE 00:19:34.80 15,33 MEDIO
83 2702 OSELE ROLAND M 80 SC MERAN ZORZI KÄLTETECHNIK 00:19:35.30 15,32 LUNGO
84 3278 RAICH CHRISTIAN M 81 RMCV 00:19:37.80 15,29 LUNGO
85 1275 ROCCA CRISTIAN M 82 VAM RACE ASD 00:19:38.80 15,28 MEDIO
86 112 EMANUEL NICOLÒ M 83 TEAM MILANO CYCLING ASD 00:19:39.80 15,27 MEDIO
87 96 BERGAMELLI CLAUDIO M 84 FREE BIKE NEMBRO 00:19:40.70 15,25 MEDIO
88 110 CORUCCI STEFANO M 85 TEAM MILANO CYCLING ASD 00:19:42.50 15,23 MEDIO
89 562 BRAMBILLA FRANCESCO M 86 VAM RACE ASD 02T4469 00:19:42.70 15,23 MEDIO
90 100 CAGLIONI NICOLA M 87 OESTARA CYCLING TEAM 00:19:42.70 15,23 LUNGO
91 522 BJERRING HENRIK M 88 SCR MOTION 00:19:44.00 15,2 LUNGO
92 2324 KRAUSE JENS M 89 INDIVIDUALE 00:19:46.00 15,18 LUNGO
93 1026 TAGLIARENI FRANCESCO M 90 TEAM ALI' CYCLING 00:19:46.70 15,18 LUNGO
94 1112 NATALE MARCO M 91 RENNRADLN MÜNCHEN 00:19:50.60 15,13 LUNGO
95 2758 MORASCHINI MATTEO M 92 TEAM BIKE ROCKS 00:19:50.80 15,13 MEDIO
96 937 MURAZZANO LUCA M 93 TEAM DOTTABIKE 00:19:52.30 15,1 MEDIO
97 2428 DONDONI ANGELO M 94 SQUADRA CORSE CUSSIGH BIKE 00:19:55.20 15,06 LUNGO
98 68 ROSSI SIMONE M 95 G.S. CICLISTI GRASSINA 00:20:02.50 14,98 LUNGO
99 502 KOFLER ALAIN M 96 POLISPORTIVA CERVINIA 00:20:03.30 14,96 LUNGO
100 533 MATTIOLI RONALD M 97 TEAM ÉVOLUTION WALLONIE 00:20:03.70 14,96 MEDIO
101 805 COLLEONI PAOLO M 98 POL. CALUSCHESE CICLISMO ASD 00:20:03.90 14,96 MEDIO
102 2124 PAGANINI MORENO M 99 INDIVIDUALE 00:20:05.10 14,94 MEDIO
103 2220 LUIGI LANDI M 100 GRUPPO BÌ 00:20:05.50 14,94 MEDIO
104 2291 OVED SHAI M 101 INDIVIDUALE 00:20:06.50 14,93 LUNGO
105 2373 ROBAKOWSKI MARCIN M 102 INDIVIDUALE 00:20:06.90 14,93 LUNGO
106 2295 SOUZA THIAGO M 103 INDIVIDUALE 00:20:07.30 14,91 LUNGO
107 9 MOLINARI GIULIO M 104 PRO TRIATHLETE 00:20:07.30 14,91 LUNGO
108 213 COLOMBO FRANCESCO M 105 TEAM DE ROSA SANTINI 00:20:07.40 14,91 MEDIO
109 411 LIMIDO SERGIO M 106 ASD NEW TEAM 00:20:09.70 14,89 LUNGO
110 3243 SPANDRI LUCA M 107 PEDALE LECCHESE 00:20:10.70 14,88 LUNGO
111 498 GHISLENI GIACOMO M 108 OESTARA 00:20:16.00 14,8 LUNGO

Classifica elaborata da www.winningtime.it


SANTINI GRANFONDO STELVIO
CRONOSCALATA DI TEGLIO - KM 5,00

Posiz Pett CognomeNome Sesso PosSex Società Tempo Media PERCORSO


112 3251 PAGNINI STEFANO M 109 US BORMIESE 00:20:18.00 14,78 LUNGO
113 616 GIROTTI ENRICO CARLO M 110 INDIVIDUALE 00:20:18.30 14,78 LUNGO
114 981 RIGHI FRANCO M 111 CICLI SOPRANI G.C. ASD 00:20:18.80 14,78 MEDIO
115 39 MARINELLI PIETRO M 112 US BORMIESE 00:20:19.20 14,77 LUNGO
116 3253 CANTONI DAVIDE FRANCESCO M 113 US BORMIESE 00:20:19.80 14,77 LUNGO
117 775 BROGLIA ANDREA M 114 U.S. VIGOR IVREA 00:20:21.50 14,74 LUNGO
118 1809 SAVOIA FABIO M 115 UISP 00:20:22.00 14,73 LUNGO
119 976 RAVN JACOB M 116 SLAGELSE BIKE BOYS 00:20:22.50 14,73 LUNGO
120 2287 GIANOLA GIOVANNI M 117 AS PREMANA 00:20:24.20 14,71 MEDIO
121 2591 SANCHEZ ALCALDE SERGIO M 118 INDIVIDUALE 00:20:24.30 14,71 LUNGO
122 770 BORTOLASO PIETRO M 119 ASD BIKE ADVANTURE 00:20:26.70 14,68 LUNGO
123 183 ROGGERINI FABRIZIO M 120 ASD TEAM ALL4CYCLING-BDC 00:20:27.70 14,67 LUNGO
124 1580 POITSCH MARCO M 121 TEAM ALE DEUTSCHLAND 00:20:27.90 14,67 LUNGO
125 1943 BALDONI ALESSANDRO M 122 ASD SPECIAL BERGAMO SPORT 00:20:28.70 14,66 MEDIO
126 2600 BEYERS CHRISTIAAN M 123 INDIVIDUALE 00:20:30.00 14,63 LUNGO
127 99 CARMINATI IVAN M 124 GSD FREEBIKE NEMBRO 00:20:31.40 14,62 MEDIO
128 1728 PINTAURO GIUSEPPE M 125 FRECCE DEL GOLFO 00:20:31.70 14,62 LUNGO
129 540 SALA ROBERTO M 126 TEAM VISCARDI ASD 00:20:32.00 14,61 LUNGO
130 691 PLETZER FRANCO M 127 INNROCK RACING 00:20:33.20 14,6 LUNGO
131 447 HEGEL JULIAN M 128 DAV HERSBRUCK 00:20:33.50 14,6 LUNGO
132 2148 GAWLIK PATRICK M 129 RADSPORT TEAM GAIMERSHEIM 00:20:33.90 14,6 LUNGO
133 1327 WOLF ANTON M 130 RADSPORTTEAM GAIMERSHEIM 00:20:34.10 14,59 LUNGO
134 389 ZANOLO MASSIMILIANO M 131 ASD CUORE GRINTA PASSIONE 00:20:34.40 14,59 LUNGO
135 1044 VAN BOMMEL ERIK M 132 CONEY HALL CYCLE WORKS 00:20:34.50 14,59 LUNGO
136 314 HØG TORKIL M 133 INDIVIDUALE 00:20:35.40 14,57 LUNGO
137 2233 KNUDSEN FREDERIK M 134 ULSTRUP CYKELMOTION 00:20:41.50 14,5 LUNGO
138 1583 THIERE WOLFGANG M 135 TEAM TESLA 00:20:43.20 14,48 LUNGO
139 240 JACOBSEN MADS M 136 RUBY REJSER 00:20:43.30 14,48 LUNGO
140 321 LAWAETZ RASMUSSEN JONATHAN M 137 INDIVIDUALE 00:20:44.30 14,47 LUNGO
141 29 CAPELLI ANGELO F 4 US BORMIESE 00:20:46.30 14,45 LUNGO
142 1160 DE WITTE LIEVEN M 138 INDIVIDUALE 00:20:46.40 14,45 LUNGO
143 2571 HUGO HUYART M 139 UC BRICQUEBEC CYCLISME 00:20:48.00 14,42 LUNGO
144 2611 FALBO FRANCESCO GIUSEPPE M 140 GIGABIKE 00:20:48.30 14,42 LUNGO
145 169 ABANCÓ TUDÓ ARNAU M 141 TRICUBE MANRESA 00:20:48.50 14,42 LUNGO
146 1627 ZHITENEV IVAN M 142 STREAMER 00:20:49.80 14,41 LUNGO
147 2012 ASLAN AHMET CAN M 143 INDIVIDUALE 00:20:50.20 14,4 LUNGO
148 2498 MAGAUD ANTOINE M 144 ISLINGTON CYCLING CLUB 00:20:50.30 14,4 LUNGO

Classifica elaborata da www.winningtime.it


SANTINI GRANFONDO STELVIO
CRONOSCALATA DI TEGLIO - KM 5,00

Posiz Pett CognomeNome Sesso PosSex Società Tempo Media PERCORSO


149 1143 WYSS GIACOMO M 145 INDIVIDUALE 00:20:51.00 14,39 LUNGO
150 685 MATTEI MATTEO M 146 BURACIA TEAM MILANO 00:20:51.50 14,39 MEDIO
151 161 CAMBI RENZO M 147 BELTRAMITSA HOPPLA' PETROLI FIRENZE 00:20:51.60 14,39 MEDIO
152 2424 CROSILLA CLAUDIO M 148 SQUADRA CORSE CUSSIGH BIKE 00:20:52.60 14,38 LUNGO
153 812 CUSATI ANGELO M 149 AC CYCLING 00:20:55.30 14,34 LUNGO
154 438 OLDANI MARCO M 150 BRONTOLO BIKE 00:20:55.60 14,34 LUNGO
155 2320 TAUCCI GABRIELE M 151 TEAM VALLONE 00:20:56.30 14,33 LUNGO
156 1533 ESBRÍ DANIEL M 152 NOLOBIKER-CLUB TRIATLÓ BASILISCUS 00:20:58.20 14,31 LUNGO
157 2119 CANEDO MATIAS M 153 INDIVIDUALE 00:20:58.50 14,31 LUNGO
158 452 DE BARTOLOMEO GIANLUCA M 154 DT BIANCHI 00:20:59.00 14,3 LUNGO
159 752 BECKERT MARIO M 155 INDIVIDUALE 00:21:00.00 14,29 LUNGO
160 215 GAZZOTTI LIBERO M 156 TEAM DE ROSA SANTINI 00:21:02.50 14,26 LUNGO
161 1478 SCHULZE OLAF M 157 RASCH 00:21:04.20 14,24 LUNGO
162 737 ANGIOLETTI AUGUSTO M 158 PERUFFO 00:21:04.50 14,24 MEDIO
163 1464 EDMONDSON CHRIS M 159 VELOTIK RACING TEAM 00:21:05.00 14,23 LUNGO
164 84 PERUTA GIANLUCA M 160 ASD BIKE AVENGERS 00:21:06.00 14,22 LUNGO
165 2598 GAVIRIA JUAN M 161 COLOMBIA 00:21:06.50 14,22 LUNGO
166 1930 WURM FABIAN M 162 LEVEL 307 00:21:06.60 14,22 LUNGO
167 481 TAGLIAVINI ANDREA M 163 INDIVIDUALE 00:21:08.00 14,2 LUNGO
168 2542 ZUCCHI DANIELE M 164 POSTALESIO ASD 00:21:08.70 14,2 MEDIO
169 427 BERTAZZOLO ANGELO M 165 ASD TREGASIO CYCLING TEAM 00:21:09.30 14,18 LUNGO
170 876 JAHN ELO M 166 GIVE CYKELKLUB 00:21:09.40 14,18 LUNGO
171 1148 BALLABIO FABIO M 167 VAM RACE ASD 00:21:09.80 14,18 MEDIO
172 2740 ROSE JOSH M 168 INDIVIDUALE 00:21:11.00 14,16 LUNGO
173 1867 CERUTTI GIACOMO M 169 TEAM VALLI DEL ROSA 00:21:11.80 14,16 LUNGO
174 3230 RENDINA MORENO M 170 VAM RACE ASD 00:21:15.50 14,12 LUNGO
175 1598 ARTNER ALEX M 171 INDIVIDUALE 00:21:15.80 14,12 LUNGO
176 2506 DIETL MONIKA F 5 INDIVIDUALE 00:21:16.20 14,11 LUNGO
177 975 RAVANELLI LUIGI M 172 TITICI ADVENTURE TEAM 00:21:16.30 14,11 LUNGO
178 399 FUSTO CLAUDIO MARIA M 173 ASD IL PEDALE NEL CUORE 00:21:16.50 14,11 LUNGO
179 463 CAVADINI ROBERTO M 174 G.S. SPORTISSIMO 00:21:17.50 14,1 MEDIO
180 1289 GIRALDO CADAVID OSCAR IVAN M 175 INDIVIDUALE 00:21:17.50 14,1 LUNGO
181 2710 GOTTI ALBERTO M 176 2R BIKE STORE 00:21:19.50 14,07 LUNGO
182 2010 SOLER TORRADAS JOSEPMARIA M 177 INDIVIDUALE 00:21:20.00 14,06 LUNGO
183 1382 CORDON COMPAÑ JAVIER M 178 ITV - ICE FOR LIFE 00:21:20.10 14,06 LUNGO
184 1046 VAN DER WINDT ABEL M 179 INDIVIDUALE 00:21:21.20 14,05 LUNGO
185 2268 SØRENSEN GLEN M 180 INDIVIDUALE 00:21:23.20 14,03 LUNGO

Classifica elaborata da www.winningtime.it


SANTINI GRANFONDO STELVIO
CRONOSCALATA DI TEGLIO - KM 5,00

Posiz Pett CognomeNome Sesso PosSex Società Tempo Media PERCORSO


186 434 GUARGUAGLINI ANDREA M 181 BARBEROBIKE 00:21:23.50 14,03 LUNGO
187 439 TRABATTONI ROBERTO M 182 CC CANTURINO 00:21:23.70 14,03 MEDIO
188 1536 MØRKEBERG JACOB M 183 HBI 00:21:23.80 14,03 LUNGO
189 1144 ALBAO CORDOBA JUAN ANTONIO M 184 INDIVIDUALE 00:21:25.00 14,01 LUNGO
190 500 BRAVI MASSIMO M 185 PEDALE ARQUATESE: COD. 08PC087 00:21:26.80 14 LUNGO
191 241 JAPPE HANS HENRIK M 186 RUBY REJSER 00:21:27.90 13,99 LUNGO
192 3252 MAGAROTTO FABIO M 187 US BORMIESE 00:21:28.90 13,98 LUNGO
193 2552 SOBIERAJ HENRYK M 188 INDIVIDUALE 00:21:30.90 13,95 LUNGO
194 1117 PAOLI DAVID M 189 INDIVIDUALE 00:21:32.00 13,93 LUNGO
195 426 SICIGNANO GIOVANNI M 190 ASD TOP BIKE FERMO 00:21:32.30 13,93 MEDIO
196 1526 KOOP ALEXANDER M 191 INDIVIDUALE 00:21:33.00 13,92 LUNGO
197 943 NIELSEN TAGE M 192 GREVE TRIM CYKEL MOTION 00:21:33.00 13,92 LUNGO
198 2133 NALON PAOLO M 193 G.S. MONEGLIESE 00:21:33.50 13,92 LUNGO
199 127 KUKOVIC JURE M 194 ZIPVIT PROADVENTURE 00:21:33.60 13,92 LUNGO
200 788 CAPIRONE DARIO M 195 US VIGOR IVREA 00:21:33.70 13,92 LUNGO
201 2097 WASSINK RUUD M 196 INDIVIDUALE 00:21:34.20 13,91 MEDIO
202 877 JENSEN KASPER M 197 INDIVIDUALE 00:21:34.30 13,91 LUNGO
203 1811 SITTA ALBERTO M 198 BIKE STUDIO 00:21:36.50 13,89 LUNGO
204 966 PIGNOCCHINO GIANLUIGI M 199 U.S. VIGOR IVREA 00:21:36.70 13,89 LUNGO
205 1089 FRANZREB FLORIAN M 200 INDIVIDUALE 00:21:37.30 13,88 LUNGO
206 1062 ZICKERMANN JENS M 201 INDIVIDUALE 00:21:39.00 13,86 LUNGO
207 1174 LAMBERT FABRICE M 202 INDIVIDUALE 00:21:39.90 13,86 LUNGO
208 2661 CUSI ALBERTO M 203 CICLISTICA PRADALUNGHESE 00:21:40.50 13,85 LUNGO
209 771 BOUDIER CEDRIC M 204 INDIVIDUALE 00:21:41.20 13,84 LUNGO
210 2303 GIANOLA THOMAS M 205 AS PREMANA 00:21:43.20 13,81 MEDIO
211 486 M 206 KD ALPE SIS 00:21:43.40 13,81 LUNGO
212 514 FORNASIERI LORENZO M 207 RODMAN AZIMUT 00:21:43.90 13,81 MEDIO
213 2162 INGRAO GIACOMO M 208 ASD BICI & BIKE 00:21:44.20 13,8 LUNGO
214 886 KLAUSEN KASPER EMIL M 209 INDIVIDUALE 00:21:45.10 13,79 LUNGO
215 714 MURPHY KEVIN M 210 UN-ATTACHED LEINSTER 00:21:45.90 13,79 LUNGO
216 2063 VENTURA ALFIO M 211 IRON BIKE PATERNO' 00:21:46.90 13,78 LUNGO
217 2464 COTALI PIERGIUSEPPE M 212 BUSSACCHINI LUIGI ASD 00:21:47.90 13,77 LUNGO
218 3270 TONIATTI CANDIDO M 213 INDIVIDUALE 00:21:48.20 13,76 LUNGO
219 1292 MCCARTHY LIAM M 214 ORWELL WHEELERS 00:21:48.50 13,76 LUNGO
220 2660 BERGAMELLI MARCO M 215 INDIVIDUALE 00:21:50.30 13,74 LUNGO
221 507 MANDILLO PERSEU M 216 RCCCPH 00:21:50.40 13,74 LUNGO
222 1013 SOMMER LASSE M 217 MTB RANDERS 00:21:50.50 13,74 LUNGO

Classifica elaborata da www.winningtime.it


SANTINI GRANFONDO STELVIO
CRONOSCALATA DI TEGLIO - KM 5,00

Posiz Pett CognomeNome Sesso PosSex Società Tempo Media PERCORSO


223 1880 RUSSO GIOVANNI M 218 MARANGIOLO TARANTO 00:21:50.70 13,74 LUNGO
224 617 GIROTTI MARCO M 219 INDIVIDUALE 00:21:50.90 13,74 MEDIO
225 626 JENNI DANIEL M 220 INDIVIDUALE 00:21:51.10 13,73 LUNGO
226 2197 BARTOSZ MISZKURKA M 221 GT RAT 00:21:51.50 13,73 MEDIO
227 1004 SCHERZ MATHIAS M 222 INDIVIDUALE 00:21:52.70 13,72 LUNGO
228 624 HUGHES MICHAEL M 223 INDIVIDUALE 00:21:53.30 13,71 LUNGO
229 98 JUST CHRISTENSEN MIKKEL M 224 GRÅSTEN CYKELKLUB 00:21:53.80 13,71 LUNGO
230 1924 DAVID ROMUALD M 225 VIRINE TEAM CYCLISTE 00:21:54.10 13,7 LUNGO
231 547 IOOS RENAUD M 226 TRI LNEUVEVILLE 00:21:54.70 13,7 LUNGO
232 1303 BERRET LIONEL M 227 INDIVIDUALE 00:21:55.00 13,69 LUNGO
233 1286 FRONZAROLI EMILIEN M 228 TRIATHLON LANEUVEVILLE 00:21:55.30 13,69 LUNGO
234 419 ANGELINI MARCO M 229 ASD SPORT BIKE 00:21:56.00 13,68 LUNGO
235 470 COSSI ROBERTO M 230 GROSIO CICLISMO 00:21:57.40 13,67 LUNGO
236 388 CERUTI DANIO M 231 ASD CICLOAMATORI AVIS CREMONA 00:21:57.50 13,67 MEDIO
237 2726 SANGALLI FEDERICO M 232 GENOVA 1913 00:21:58.00 13,66 MEDIO
238 458 BRENNA CLAUDIO M 233 FORMAGGILANDIA2 ASD 00:21:59.50 13,65 LUNGO
239 1827 MAZZA ALBERTO M 234 ASD TEAM ROSSETTI 00:22:00.50 13,64 LUNGO
240 1120 POINTER DAVON M 235 VELOCIPEDES 00:22:00.50 13,64 LUNGO
241 1021 STORMHOLT JESPER M 236 GREVE TRIM CYKELMOTION 00:22:00.80 13,64 LUNGO
242 538 GAMBERINI GIANLUIGI M 237 TEAM PASSION FAENTINA 00:22:02.20 13,62 LUNGO
243 3272 JOHANSSON MIIKA SAMUEL M 238 INDIVIDUALE 00:22:03.50 13,61 LUNGO
244 243 JENSEN IB ERIK M 239 RUBY REJSER 00:22:06.50 13,57 LUNGO
245 2045 LONERGAN KILLIAN M 240 INDIVIDUALE 00:22:08.50 13,55 LUNGO
246 1608 THOMAZEAU SÉBASTIEN M 241 CYCLO CLUB ROCHOIS 00:22:09.00 13,54 LUNGO
247 1142 WUTSCHER EDGAR M 242 INDIVIDUALE 00:22:09.30 13,54 MEDIO
248 987 ROIG JORDI M 243 MUNTBIKES 00:22:09.30 13,54 LUNGO
249 445 CHAUVET DAVY M 244 CYCLO CLUB ROCHOISX 00:22:09.60 13,54 LUNGO
250 923 MEYER MARC M 245 VELOCIPEDES 00:22:09.80 13,54 LUNGO
251 1705 ALVAREZ RICARDO M 246 URANO 00:22:10.40 13,53 LUNGO
252 2061 SCHAUER THOMAS M 247 INDIVIDUALE 00:22:10.70 13,53 MEDIO
253 168 PURTI TAPIA DAMIA M 248 TRICUBE 00:22:12.30 13,51 LUNGO
254 147 POLLAK WOLFGANG M 249 INDIVIDUALE 00:22:12.70 13,51 LUNGO
255 2090 NELANY JAMIE M 250 INDIVIDUALE 00:22:12.80 13,51 LUNGO
256 51 TOGNI PAOLO M 251 US BORMIESE 00:22:12.90 13,51 LUNGO
257 1231 LERVÅG ARNE M 252 INDIVIDUALE 00:22:14.50 13,49 LUNGO
258 16 POZZI CRISTIAN M 253 US BORMIESE 00:22:15.50 13,48 LUNGO
259 2382 NOTLEY IAN M 254 INDIVIDUALE 00:22:15.80 13,48 LUNGO

Classifica elaborata da www.winningtime.it


SANTINI GRANFONDO STELVIO
CRONOSCALATA DI TEGLIO - KM 5,00

Posiz Pett CognomeNome Sesso PosSex Società Tempo Media PERCORSO


260 2697 VASCOTTO CRISTIAN M 255 ASD FEDERCLUB TRIESTE - TECNOEDILE 00:22:16.00 13,47 LUNGO
261 558 CARULLI GERARDO M 256 UISP COMITATO TERRITORIALE PESCARA 00:22:16.70 13,47 LUNGO
262 453 SCACCABAROZZI DANILO PIERO M 257 DT BIANCHI 00:22:17.50 13,46 LUNGO
263 1460 LOVATI STEFANO MARIO M 258 INDIVIDUALE 00:22:17.50 13,46 LUNGO
264 1760 RECIO JESUS M 259 ARDOZ 00:22:18.60 13,45 LUNGO
265 1285 FREDERIC DUBESSET M 260 VELO CLUB ROANNAIS 00:22:19.00 13,44 LUNGO
266 2082 WILDNER HENDRIK M 261 RC SEEBACH 00:22:20.40 13,43 LUNGO
267 2746 NEGRI LEONARDO M 262 INDIVIDUALE 00:22:21.20 13,42 MEDIO
268 126 SANTO LUCIANO M 263 VANOTTI CYCLE TEAM 00:22:21.30 13,42 MEDIO
269 517 BRUNO ANTONIO GIOVANNI M 264 RODMAN AZIMUT SQUADRA CORSE 00:22:21.50 13,42 LUNGO
270 843 GAVIDIA CÁMARA RAMSÉS M 265 INDIVIDUALE 00:22:21.70 13,42 LUNGO
271 544 NAEF MAGNUS M 266 THE CUPCAKE CARTEL 00:22:22.30 13,41 MEDIO
272 874 ILLING SEBASTIAN M 267 SEMPRE IN MOVIMENTO 00:22:22.50 13,41 LUNGO
273 54 GASPERI MARCO M 268 US BORMIESE 00:22:22.80 13,41 LUNGO
274 3222 MONTI MIRCO M 269 GS CICLI GAUDENZI 00:22:22.90 13,41 LUNGO
275 561 FUMAGALLI GIOVANNI M 270 VAM RACE ASD 00:22:24.20 13,39 MEDIO
276 3246 BANDERA IVAN M 271 VANZAVILLA TEAM 00:22:26.00 13,37 LUNGO
277 2581 YAVUZ KAGAN M 272 INDIVIDUALE 00:22:26.00 13,37 LUNGO
278 76 PERON MARCO M 273 INDIVIDUALE 00:22:26.00 13,37 LUNGO
279 1276 TOMA TOMMASO M 274 INDIVIDUALE 00:22:26.20 13,37 LUNGO
280 163 VALLS GIMENEZ SERGI M 275 CLUB ESPORTIU CUBE MANRESA 00:22:26.50 13,37 LUNGO
281 171 RIUS PINYA MAURI M 276 INDIVIDUALE 00:22:27.00 13,36 LUNGO
282 1268 RUIZ ESTRAMIANA JESUS M 277 AC HOTELS BY MARRIOTT 00:22:27.20 13,36 LUNGO
283 104 KNOTT OLIVER M 278 RSV MOOSBURG 00:22:28.00 13,35 LUNGO
284 909 LUENGO POL M 279 CC SPRINT BIKE 00:22:28.70 13,35 LUNGO
285 1791 HÖRFARTER MARTIN M 280 INDIVIDUALE 00:22:29.20 13,34 LUNGO
286 1973 MACEK MARJAN M 281 KK KAMEN KOCIPER 00:22:29.90 13,34 LUNGO
287 40 PANIZZA ANDREA MARIO M 282 US BORMIESE 00:22:30.50 13,33 MEDIO
288 1404 VIVACQUA STEFANO M 283 ASD GRUPPO CICLISTICO '95 NOVARA 00:22:30.90 13,33 LUNGO
289 2616 GHIOTTO ANDREA M 284 TURNOVER SPORT 00:22:32.30 13,31 MEDIO
290 221 VECCHIOTTI PAOLO M 285 TEAM DE ROSA SANTINI 00:22:34.00 13,29 MEDIO
291 2169 BARRETT BARRETT M 286 BSPOKE360 00:22:34.80 13,29 LUNGO
292 2527 SALAJ RON M 287 ESC SOCIETA SPORTIVA' DILETTANTISTICA S.R.L. 00:22:36.00 13,27 LUNGO
293 669 STAREK MARTIN M 288 INDIVIDUALE 00:22:36.00 13,27 LUNGO
294 3229 PANZERI LORENZO M 289 VAM RACE ASD 00:22:36.90 13,27 LUNGO
295 1546 CICCARONE MARIO M 290 INDIVIDUALE 00:22:37.00 13,26 LUNGO
296 48 SCHIVO ALBERTO M 291 US BORMIESE 00:22:38.10 13,25 MEDIO

Classifica elaborata da www.winningtime.it


SANTINI GRANFONDO STELVIO
CRONOSCALATA DI TEGLIO - KM 5,00

Posiz Pett CognomeNome Sesso PosSex Società Tempo Media PERCORSO


297 477 MOSTI DARIO M 292 HUTR 00:22:38.10 13,25 LUNGO
298 2579 SILLER THOMAS M 293 INDIVIDUALE 00:22:38.50 13,25 LUNGO
299 830 FERRARI FILIPPO M 294 ASD TEAM ALL4CYCLING-BDC 00:22:38.50 13,25 MEDIO
300 702 COWIE NEIL M 295 ELGIN CYCLING CLUB 00:22:38.70 13,25 LUNGO
301 474 NORDSKOV LARS M 296 HBI 00:22:39.70 13,25 LUNGO
302 559 MIRABELLI GIOVANNI M 297 UISP MILANO 00:22:40.50 13,24 LUNGO
303 2023 PINTO LUIS M 298 INDIVIDUALE 00:22:41.50 13,23 LUNGO
304 1696 BOËS JÖRN M 299 INDIVIDUALE 00:22:41.60 13,23 MEDIO
305 2479 WHITE DAVID M 300 4TPLUS CYCLOPARK 00:22:43.10 13,21 MEDIO
306 2594 GALLO MATTEO M 301 G.S. SPORTISSIMO 00:22:43.30 13,21 LUNGO
307 1243 VAN GROOTEL HANS M 302 INDIVIDUALE 00:22:43.50 13,21 LUNGO
308 1836 ASTORI MARCO M 303 ASD AVIS PAVIA G.C. 00:22:44.50 13,2 LUNGO
309 2619 DISPENZA GIULIO M 304 BICI CAMOGLI GOLFO PARADISO 00:22:44.60 13,2 LUNGO
310 105 TRAMBAIOLI PAOLO M 305 SPORT CLUB GENOVA 1913 00:22:44.80 13,2 MEDIO
311 2709 DICKIE JOHN M 306 INDIVIDUALE 00:22:46.00 13,18 LUNGO
312 69 PUCCIO SIMONE M 307 G.S.COREBO 00:22:46.00 13,18 LUNGO
313 3269 FRANCESCHINA MIRKO M 308 US BORMIESE 00:22:46.50 13,18 MEDIO
314 440 BAYER THOMAS M 309 CICLISMO SPORTVEREIN SERRATUS 00:22:46.50 13,18 LUNGO
315 1329 BECK MARKUS M 310 RV STURMVOGEL 00:22:48.20 13,16 LUNGO
316 2745 GIOVANNETTI STEFANO M 311 ASD ZERO ZERO TEAM 00:22:48.40 13,16 MEDIO
317 42 RACO LUIGI M 312 US BORMIESE 00:22:48.70 13,16 MEDIO
318 906 LOCKWOOD RASMUS M 313 BIG GUYS ON SMALL RINGS 00:22:48.90 13,16 LUNGO
319 868 HOFFMANN MARTIN M 314 BIG GUYS ON SMALL RINGS 00:22:49.20 13,15 LUNGO
320 1331 BLANCO BENAVIDES JESUS DAVID M 315 INDIVIDUALE 00:22:49.70 13,15 LUNGO
321 2191 BARRIE JOHN M 316 INDIVIDUALE 00:22:50.00 13,14 LUNGO
322 2466 NAEGELE HANNES M 317 INNOCENT 17 00:22:50.00 13,14 LUNGO
323 244 JENSEN LARS BO M 318 RUBY REJSER 00:22:50.70 13,14 LUNGO
324 1151 BORCHERDING SÖREN M 319 INDIVIDUALE 00:22:50.70 13,14 LUNGO
325 1245 WAGNER MATTHIAS M 320 QUANTOR RACING TEAM 00:22:51.00 13,13 LUNGO
326 744 AZZONI MATTEO M 321 TITICI ADVENTURE TEAM 00:22:51.00 13,13 LUNGO
327 2069 DELL'ORO EROS M 322 FORMAGGILANDIA2 ASD 00:22:51.20 13,13 MEDIO
328 983 RIU IGLESIAS JORDI M 323 CLUB CICLISTA MUNTBIKES 00:22:52.00 13,12 LUNGO
329 1542 BERGA DIEGO M 324 ASD TEAM ALL4CYCLING-BDC 00:22:52.70 13,12 LUNGO
330 2243 CASSESE DAMIANO M 325 INDIVIDUALE 00:22:52.80 13,12 LUNGO
331 2193 MCLOUGHLIN CIAN M 326 INDIVIDUALE 00:22:53.30 13,11 LUNGO
332 2602 MOLTENI ANDREA M 327 ASD TEAM ALL4CYCLING-BDC 00:22:53.30 13,11 LUNGO
333 2340 HELGREN-NIELSEN ALLAN M 328 COPENHAGEN 00:22:53.80 13,11 LUNGO

Classifica elaborata da www.winningtime.it


SANTINI GRANFONDO STELVIO
CRONOSCALATA DI TEGLIO - KM 5,00

Posiz Pett CognomeNome Sesso PosSex Società Tempo Media PERCORSO


334 1712 MARCHETTI STEFANO M 329 GARFAGNANA TEAM CICLI MORI 00:22:54.00 13,1 LUNGO
335 77 BRUZZA ALESSANDRO M 330 ONE GEAR ASD 00:22:54.30 13,1 LUNGO
336 2627 PLATANIA STEFANO M 331 INDIVIDUALE 00:22:54.40 13,1 LUNGO
337 2609 SALVATORE ALEX M 332 SPEED WHEEL 00:22:54.60 13,1 LUNGO
338 3224 1878 00:22:54.70 13,1 LUNGO
339 223 ANDERSSON PER-ERIK ANDERS M 333 RUBY REJSER 00:22:55.00 13,09 LUNGO
340 2288 MANGERI MATTEO M 334 ASSOCIAZIONE SPORTIVA DILETTANTISTICA VELO CLUB BR 00:22:56.00 13,08 MEDIO
341 231 GARSET STEEN ANKER M 335 RUBY REJSER 00:22:56.10 13,08 LUNGO
342 768 BONECHI DANIELE M 336 GS CICLI GAUDENZI 00:22:56.20 13,08 LUNGO
343 683 WÜRFEL MIKE M 337 INDIVIDUALE 00:22:56.30 13,08 LUNGO
344 2549 KUEHLEIN MORITZ M 338 INDIVIDUALE 00:22:56.40 13,08 MEDIO
345 525 TIZZANINI GIACOMO M 339 SESSANTALLORA ASD 00:22:57.30 13,07 LUNGO
346 1647 SCHRIMPF DANIEL M 340 SV STOCKHAUSEN 00:22:57.80 13,07 LUNGO
347 910 LUIGI MORRILLO M 341 INDIVIDUALE 00:22:58.70 13,06 LUNGO
348 253 MOGENSEN NIELS M 342 RUBY REJSER 00:22:59.50 13,05 LUNGO
349 1890 MEDEIROS MIGUEL M 343 LOS ÁNGELES DE LA SIESTA 00:22:59.80 13,05 MEDIO
350 647 MÜNCH THOMAS M 344 INDIVIDUALE 00:23:01.20 13,03 LUNGO
351 251 KRISTIANSEN LASSE M 345 RUBY REJSER 00:23:01.50 13,03 LUNGO
352 432 MARAGNA LUCIANO M 346 ASDILETTANTISTICA PEDALE GODIASCESE 00:23:01.50 13,03 LUNGO
353 2200 RIEDER SEBASTIAN M 347 TSV BENEDIKTBEUERN 00:23:01.90 13,03 LUNGO
354 953 OSSWALD FRANK M 348 INDIVIDUALE 00:23:02.80 13,02 LUNGO
355 70 MEDDA ROBERTO M 349 INDIVIDUALE 00:23:03.20 13,02 MEDIO
356 818 DI CRESCENZO MARCO M 350 SUPERBA PROGETTO BICI 00:23:03.20 13,02 LUNGO
357 528 MUSCHI TAZIO M 351 SWISS CYCLING 00:23:03.20 13,02 LUNGO
358 2150 LANFRANCHI EDOARDO M 352 ASD GROSIO CICLISMO 00:23:03.70 13,02 LUNGO
359 313 HEITMANN THEIS M 353 INDIVIDUALE 00:23:05.80 13 LUNGO
360 322 LENDAL CHRISTOFFERSEN ALLAN M 354 INDIVIDUALE 00:23:06.40 12,99 LUNGO
361 66 PESENTI STEFANO M 355 CRAL POSTE LOMBARDIA 1 00:23:06.70 12,99 LUNGO
362 1834 STOCCHI GIANNI M 356 INDIVIDUALE 00:23:08.50 12,97 LUNGO
363 1450 BACCARO STEFANO M 357 GRUPPO CICLISTI CANTALUPO 00:23:08.80 12,97 LUNGO
364 2761 LAVETTI MARCO M 358 U.C. SFORZATICA 00:23:09.30 12,96 MEDIO
365 95 ACERBIS LUCIANO M 359 FREE BIKE NEMBRO 00:23:10.30 12,95 LUNGO
366 331 NERSTRØM CHRISTIAN M 360 INDIVIDUALE 00:23:10.90 12,95 LUNGO
367 53 VESCOVI WALTER M 361 US BORMIESE 00:23:11.00 12,94 LUNGO
368 2624 SOMMER MATHIAS M 362 TEAM ALT ELLER INTET 00:23:12.70 12,93 LUNGO
369 2691 ORAVKIN JOZEF M 363 INDIVIDUALE 00:23:13.20 12,92 LUNGO
370 1310 GONZÁLEZ GALVÁN IGOR M 364 CLUB CICLISTA CASTRO 00:23:13.30 12,92 LUNGO

Classifica elaborata da www.winningtime.it


SANTINI GRANFONDO STELVIO
CRONOSCALATA DI TEGLIO - KM 5,00

Posiz Pett CognomeNome Sesso PosSex Società Tempo Media PERCORSO


371 2621 GALLENO STEFANO M 365 ASD SUPERBA PROGETTO BICI 00:23:13.70 12,92 LUNGO
372 560 DE BUGLIO MASSIMO M 366 US BORMIESE 00:23:14.20 12,91 MEDIO
373 1304 BISCARO DANIELE M 367 S.C. SOLIGHETTO 1919 00:23:14.50 12,91 LUNGO
374 365 GIANOLA MARIO M 368 AS PREMANA 00:23:15.00 12,9 LUNGO
375 471 RAPISARDI ANTONINO M 369 GS ABELE MARINELLI 00:23:15.00 12,9 LUNGO
376 2348 MASCIA CARLO M 370 ASD RUNNING WORLD TRIESTE 00:23:15.80 12,9 LUNGO
377 1471 MARCHESE ROBERTO M 371 GC BINAGO 00:23:17.00 12,88 LUNGO
378 1409 O'HARA JAMES M 372 ISLINGTON CC 00:23:17.10 12,88 LUNGO
379 1961 HANNING SEBASTIAN M 373 INDIVIDUALE 00:23:17.30 12,88 LUNGO
380 2062 TRACOGNA MARCO M 374 INDIVIDUALE 00:23:17.80 12,88 LUNGO
381 1851 CUTTONE DANIELE SALVATORE M 375 Q.D.B.C. ASD 00:23:18.30 12,88 LUNGO
382 467 BORTOLAMI LUCA M 376 GALBIATI SPORT CICLI ESPOSITO 00:23:18.80 12,88 LUNGO
383 2531 BOURLOUTSKY MAXIM M 377 INDIVIDUALE 00:23:21.40 12,85 LUNGO
384 2544 JIMENEZ HENAO LUIS ALBERTO M 378 INDIVIDUALE 00:23:21.40 12,85 LUNGO
385 214 GAMBETTA ANDREA M 379 TEAM DE ROSA SANTINI 00:23:21.50 12,85 MEDIO
386 2154 MILANO ALBERTO M 380 VELO BOVES 00:23:21.90 12,85 MEDIO
387 83 CERACINI MASSIMO M 381 ASD BIKE AVENGERS 00:23:22.50 12,84 LUNGO
388 379 ARMANASCO ANDREA M 382 ALTA VALTELLINA BIKE 00:23:23.00 12,83 MEDIO
389 1656 SPYKERMANN MANUEL M 383 TUS KREUZWEINGARTEN-RHEDER 00:23:23.00 12,83 LUNGO
390 409 RAVERA ROBERTO M 384 ASD MANIA BIKE ALESSANDRIA 00:23:24.00 12,82 MEDIO
391 625 JANSKI MARCIN M 385 INDIVIDUALE 00:23:24.20 12,82 MEDIO
392 1946 BENCEK PRIMOŽ M 386 KD ALPE SIS 00:23:24.80 12,82 LUNGO
393 1127 SCHAARSCHMIDT SEBASTIAN M 387 MERCK SPORTCLUB BUCHS 00:23:25.80 12,81 LUNGO
394 44 REZZOLI LUCA M 388 US BORMIESE 00:23:26.70 12,8 LUNGO
395 607 DELVENDAHL ALEXANDER M 389 INDIVIDUALE 00:23:28.00 12,78 LUNGO
396 1042 VALSBORG JACOB STENMANN M 390 TEAM MOST WANTED 00:23:28.70 12,78 LUNGO
397 1055 WILLIAMS FREDDIE M 391 INDIVIDUALE 00:23:28.80 12,78 LUNGO
398 2640 RICHARDT JØRGENSEN NIKOLAJ M 392 CC HILLERØD 00:23:29.00 12,78 LUNGO
399 2187 ANZALONE DARIO M 393 ASD U.C PORTO CERESIO 00:23:29.00 12,78 LUNGO
400 1147 BABBO BARTOLOMEO M 394 INDIVIDUALE 00:23:29.00 12,78 LUNGO
401 682 WILLIAMS RICHARD M 395 INDIVIDUALE 00:23:29.00 12,78 LUNGO
402 2528 JÉRÔME RAMPAZZO M 396 INDIVIDUALE 00:23:29.10 12,78 LUNGO
403 2366 IDZIKOWSKI JACEK M 397 INDIVIDUALE 00:23:31.00 12,76 LUNGO
404 2754 SALVI MAURIZIO M 398 DT BIANCHI 00:23:31.50 12,76 MEDIO
405 883 KERSTING JAN M 399 MRRC MÜNCHEN 00:23:31.50 12,76 LUNGO
406 1432 TOPPAZZINI VALTER M 400 UC SANDANIELESI 00:23:31.50 12,76 LUNGO
407 373 BLASCOVICH CRISTIAN M 401 AD PEDALE TREBASELEGHE 00:23:32.80 12,75 LUNGO

Classifica elaborata da www.winningtime.it


SANTINI GRANFONDO STELVIO
CRONOSCALATA DI TEGLIO - KM 5,00

Posiz Pett CognomeNome Sesso PosSex Società Tempo Media PERCORSO


408 2826 GIANOLA MANUEL M 402 AS PREMANA 00:23:33.30 12,74 MEDIO
409 696 RESTA FRANCO M 403 G.S. CICLISTI GRASSINA 00:23:33.50 12,74 LUNGO
410 344 RUVALD KNUDSEN JESPER M 404 INDIVIDUALE 00:23:34.00 12,73 MEDIO
411 1522 CARUSO GAETANO M 405 ASD CITTA' DI MISTERBIANCO 00:23:34.50 12,73 LUNGO
412 1132 SOLA LOPEZ DANIEL M 406 INDIVIDUALE 00:23:35.20 12,72 LUNGO
413 1702 SPARRER GERHARD M 407 DAV MÜNCHEN 00:23:35.20 12,72 LUNGO
414 2513 DI CECCA ATTILIO M 408 ASD FRECCE DEL GOLFO 00:23:36.70 12,71 MEDIO
415 276 CHENG SEN PU M 409 INDIVIDUALE 00:23:37.00 12,7 MEDIO
416 2437 RUECKERT ERICH M 410 RV STURMVOGEL 00:23:37.20 12,7 LUNGO
417 751 BEAULIEU ALAN NAHUEL M 411 U.S. VIGOR IVREA 00:23:37.30 12,7 MEDIO
418 4 ROCCHI PAOLO M 412 ASD PEDALE NEL CUORE 00:23:38.30 12,69 LUNGO
419 1769 BONFANTI FABIO MARIA M 413 G.S. MARINELLI - TEAM CICLI VEDOVATI 00:23:38.60 12,69 MEDIO
420 430 DONGHI SIMONE M 414 ASD VEROCA 00:23:38.80 12,69 LUNGO
421 938 NALESSO LUIGI M 415 ASD VEROCA 00:23:39.00 12,68 MEDIO
422 1349 SCHAF SEBASTIAN M 416 SOPREMA TEAM TSV MANNHEIM 00:23:39.30 12,68 LUNGO
423 2315 QUEARNS ALAN M 417 BICICOSTA 00:23:40.50 12,68 LUNGO
424 2526 ROSE JULIAN M 418 INDIVIDUALE 00:23:40.70 12,68 LUNGO
425 618 GÖKDERE AHMET M 419 INDIVIDUALE 00:23:42.50 12,66 LUNGO
426 1659 BERGSAN TUNC M 420 HI RIDE 00:23:42.70 12,66 MEDIO
427 302 BØRNER STAX TOBIAS M 421 INDIVIDUALE 00:23:44.00 12,64 LUNGO
428 370 BROWN JOEL M 422 ABC PURE 00:23:44.00 12,64 LUNGO
429 873 IACOVELLI VITOROCCO M 423 SC CASAMASSIMA-LABICICLETTASTORE.IT 00:23:44.30 12,64 LUNGO
430 459 THOMSEN KRISTIAN M 424 FREDERICIA FF 00:23:44.70 12,64 LUNGO
431 944 NIKOLAKIS DIMITRIOS M 425 INDIVIDUALE 00:23:45.30 12,63 LUNGO
432 3249 GALLI DANIELE M 426 VANZAVILLA TEAM 00:23:45.50 12,63 LUNGO
433 343 RAFFEL NILS M 427 INDIVIDUALE 00:23:46.50 12,62 LUNGO
434 2725 ORIOLI PAOLO M 428 GENOVA 1913 00:23:46.70 12,62 MEDIO
435 350 THOMSEN SØREN CHRISTIAN M 429 INDIVIDUALE 00:23:47.50 12,61 LUNGO
436 1813 WARNER MICHAEL M 430 STRATFORD UPON AVON CC 00:23:48.80 12,61 LUNGO
437 1511 MARINO GIANCARLO M 431 INDIVIDUALE 00:23:48.90 12,61 LUNGO
438 2318 CARLINI FRANCESCO M 432 TEAM VALLONE 00:23:49.00 12,6 LUNGO
439 2595 LOTA GIOVANNI M 433 TEAM ALÌ CYCLING 00:23:49.10 12,6 MEDIO
440 2121 DE FREITAS JEFFERSON LUAN M 434 TEAM EL CORIDOR 00:23:49.80 12,6 LUNGO
441 2703 PORTA STEFANO M 435 ASD GROSIO CICLISMO 00:23:50.20 12,59 MEDIO
442 32 CONFORTOLA ITALO M 436 US BORMIESE 00:23:50.20 12,59 LUNGO
443 2016 DOST ANDREAS M 437 RSV MOOSBURG 00:23:50.70 12,59 LUNGO
444 2447 ZANIER GIANNI M 438 SQUADRA CORSE CUSSIGH BIKE 00:23:51.10 12,58 LUNGO

Classifica elaborata da www.winningtime.it


SANTINI GRANFONDO STELVIO
CRONOSCALATA DI TEGLIO - KM 5,00

Posiz Pett CognomeNome Sesso PosSex Società Tempo Media PERCORSO


445 1296 PARLANTI LUCIANO M 439 INDIVIDUALE 00:23:51.40 12,58 LUNGO
446 1038 TROELS HØYBYE GUSTAV M 440 BIG GUYS ON SMALL RINGS 00:23:52.70 12,57 LUNGO
447 336 OLESEN MAX M 441 INDIVIDUALE 00:23:53.10 12,56 MEDIO
448 2359 RASELLI KASPAR M 442 INDIVIDUALE 00:23:53.20 12,56 LUNGO
449 1239 SOEBY CARSTEN M 443 TOFT IT CYCLING 00:23:53.20 12,56 LUNGO
450 2683 THISSEN DYLAN M 444 INDIVIDUALE 00:23:53.70 12,56 LUNGO
451 815 DE MAURO ANDREA M 445 ASD MTB CITTÀ DEGLI IMPERIALI 00:23:55.00 12,54 LUNGO
452 60 SERAFINI MASSIMILIANO M 446 ASD CICLO SUBIACO 00:23:55.90 12,54 MEDIO
453 2680 JEPPESEN ANDERS M 447 TEAM ALT ELLER INTET 00:23:56.40 12,53 LUNGO
454 141 LEATHER DAN M 448 INDIVIDUALE 00:23:56.50 12,53 LUNGO
455 1000 SANTOS JOÃO M 449 INDIVIDUALE 00:23:56.70 12,53 LUNGO
456 1553 LEIS MICHAEL M 450 FLYING BIANCHIS 00:23:57.20 12,53 LUNGO
457 745 BALHAN ALAIN M 451 INDIVIDUALE 00:23:57.40 12,53 LUNGO
458 878 JENSEN MICHAEL IAN DUELUND M 452 MTB RANDERS - DK 00:23:58.70 12,52 LUNGO
459 2704 FERRARIO ALEX M 453 INDIVIDUALE 00:23:59.00 12,51 LUNGO
460 2404 TOPOREK SZYMON M 454 BEMBNISTA TRANSPORT 00:23:59.00 12,51 LUNGO
461 1041 VALLING TOMAS M 455 SCC 00:24:00.40 12,5 LUNGO
462 1563 ASENSIO MIGUEL M 456 INDIVIDUALE 00:24:00.50 12,5 LUNGO
463 2192 CURTIS MARK M 457 INDIVIDUALE 00:24:00.60 12,5 LUNGO
464 958 PEEL DARRELL M 458 VELOCIPEDES 00:24:00.70 12,5 LUNGO
465 1501 SARDO SALVATORE M 459 GC BINAGO 00:24:01.50 12,49 LUNGO
466 145 MENTASTI ANDREA M 460 INDIVIDUALE 00:24:01.60 12,49 LUNGO
467 756 BERGHOLDT AKIO M 461 JAPANESE CHAMPS 00:24:04.40 12,47 LUNGO
468 757 BERGHOLDT YUKIO M 462 JAPANESE CHAMPS 00:24:04.70 12,47 LUNGO
469 1308 DE FAVERI LIVIO M 463 S.C. SOLIGHETTO 1919 00:24:04.70 12,47 LUNGO
470 2540 SALVINI WILLIAM M 464 G.S. DOSI ASD 00:24:04.70 12,47 LUNGO
471 86 MOGGIA PAOLO M 465 ASD CERTOSA BRAZZO 00:24:05.10 12,46 LUNGO
472 368 BIANCHI DAVIDE M 466 ASD RAMPI CLUB BRIANZA 00:24:05.10 12,46 LUNGO
473 659 ROMERO HOLMAN M 467 INDIVIDUALE 00:24:05.70 12,46 LUNGO
474 1095 GRAF ALEXANDER M 468 SURF AND BIKE HÜTTE PEIßENBERG 00:24:05.90 12,46 LUNGO
475 1490 GOSLAR ARNE M 469 SV EINRUHR 00:24:06.00 12,45 LUNGO
476 1679 OZGUR TAHSIN M 470 SASFIT 00:24:06.50 12,45 MEDIO
477 2051 CARACCIOLO ROBERTO M 471 BICI & BIKE MESSINA 00:24:06.80 12,45 LUNGO
478 1009 SKOVBJERG HEINO M 472 GIVE CYKELKLUB 00:24:07.10 12,44 LUNGO
479 1543 CADAVID OROZCO MAURICIO M 473 INDIVIDUALE 00:24:07.50 12,44 LUNGO
480 729 ALAPONT ALACREU RAUL M 474 INDIVIDUALE 00:24:07.90 12,44 LUNGO
481 103 TRAINI PIETRO M 475 OESTARA CYCLING TEAM ASD 00:24:08.00 12,43 LUNGO

Classifica elaborata da www.winningtime.it


SANTINI GRANFONDO STELVIO
CRONOSCALATA DI TEGLIO - KM 5,00

Posiz Pett CognomeNome Sesso PosSex Società Tempo Media PERCORSO


482 2194 NOS BOTIA JAVIER M 476 C.C. RATPENAT 00:24:09.20 12,42 LUNGO
483 2048 PEDERSEN ERIK ROEDKAER M 477 SCRMOTION 00:24:09.20 12,42 LUNGO
484 569 BOGATKOV FELIX M 478 INDIVIDUALE 00:24:09.70 12,42 MEDIO
485 2163 MARTELLA SILVANO M 479 ASD BICI & BIKE 00:24:09.70 12,42 LUNGO
486 523 PEDERSEN MORTEN JUUL M 480 SCRMOTION 00:24:09.80 12,42 LUNGO
487 2657 LARSEN MORTEN M 481 INDIVIDUALE 00:24:10.10 12,41 LUNGO
488 1933 MALAKAUSKAS ALEKSANDRAS M 482 TOP TEAM CYCLING 00:24:10.20 12,41 LUNGO
489 556 DIMITRIO NICOLA M 483 UC PREGNANA TEAM SCOUT ASD 00:24:10.80 12,41 LUNGO
490 537 MEDICI STEFANO M 484 TEAM PAREDI 00:24:11.50 12,41 MEDIO
491 536 GARBELLINI MASSIMO M 485 TEAM PAREDI 00:24:11.60 12,41 MEDIO
492 2969 SBERVEGLIERI ILIAS M 486 SC GENOVA 1913 00:24:12.30 12,4 MEDIO
493 89 CRISTONI MARCO ERNESTO M 487 ASD GALLI BIKE 00:24:12.80 12,4 LUNGO
494 1667 GÜNEY SINAN CEM M 488 FESTO BSG 00:24:13.00 12,39 LUNGO
495 2741 FRANZ MICHEL M 489 INDIVIDUALE 00:24:13.10 12,39 LUNGO
496 404 MARCHETTI MATTEO M 490 ASD MANIA BIKE 00:24:13.30 12,39 LUNGO
497 2559 ORLOWSKI ZBIGNIEW M 491 INDIVIDUALE 00:24:13.50 12,39 LUNGO
498 2550 MATOS ROGÉRIO M 492 CICLOMANIACOS/AAZ 00:24:13.70 12,39 LUNGO
499 364 MAZZA NAZZARENO M 493 IL PEDALE NEL CUORE 00:24:14.00 12,38 LUNGO
500 2360 CERRO AMORES JORGE M 494 CLUB TRIATLO ANDORRA 00:24:14.10 12,38 LUNGO
501 2244 CATHOMEN LUCA M 495 INDIVIDUALE 00:24:14.80 12,38 LUNGO
502 153 ZAMBONIN LUIGI M 496 INDIVIDUALE 00:24:15.20 12,37 LUNGO
503 2331 BAQUERO CARLOS M 497 INDIVIDUALE 00:24:15.70 12,37 LUNGO
504 1247 WOLFRAM TORSTEN M 498 ONE MAN WOLFPACK 00:24:16.30 12,36 LUNGO
505 3294 GALLI RICHARD M 499 ASD GALLI BIKE 00:24:16.60 12,36 LUNGO
506 2612 GALLO DANIELE M 500 GIGABIKE 00:24:16.70 12,36 LUNGO
507 1181 MADRUCCI ANDREA M 501 GS CICLI GAUDENZI 00:24:17.00 12,35 LUNGO
508 159 BARTOLONI LUCA M 502 BELTRAMITSA HOPPLA' PETROLI FIRENZE 00:24:17.70 12,35 MEDIO
509 1615 FISCHER SEBASTIAN M 503 INDIVIDUALE 00:24:19.30 12,34 LUNGO
510 401 GIUSSANI MARCO M 504 ASD MAKAKO TEAM 00:24:19.90 12,34 MEDIO
511 708 HART DAVID M 505 INDIVIDUALE 00:24:20.60 12,33 LUNGO
512 71 ROSSI STEFANO M 506 LA ORSI BIKE 00:24:20.90 12,33 LUNGO
513 2181 SICARI MARCO M 507 INDIVIDUALE 00:24:21.00 12,32 LUNGO
514 2000 BOSCHINI FABIO M 508 TEAM ERREBI GENOVA 00:24:21.10 12,32 LUNGO
515 1918 ACANFORA PAOLO M 509 ASD ZEROTRENTA TRIATHLON 00:24:22.00 12,31 LUNGO
516 1031 TEUFL FELIX M 510 BIKE FRIENDS SALZBURG 00:24:22.00 12,31 LUNGO
517 2696 JESSEN PETER M 511 TEAM ALT ELLER INTET 00:24:22.40 12,31 LUNGO
518 2327 INFANTE ANIELLO M 512 TEAM ZETA 00:24:22.60 12,31 LUNGO

Classifica elaborata da www.winningtime.it


SANTINI GRANFONDO STELVIO
CRONOSCALATA DI TEGLIO - KM 5,00

Posiz Pett CognomeNome Sesso PosSex Società Tempo Media PERCORSO


519 476 YALÇIN ALICAN M 513 HOPPALUPPACUPPACUPPA 00:24:22.80 12,31 MEDIO
520 20 ANDREOLA NICCOLÒ M 514 US BORMIESE 00:24:22.90 12,31 LUNGO
521 1403 VITALINI FRANCESCO M 515 C.S.A.IN(CENTRI SPORTIVI AZIENDALI INDUSTRIALI) 00:24:23.20 12,3 MEDIO
522 2283 CATURELLI ALBERTO M 516 ASD FREE BIKERS PEDALE FOLLONICHESE 00:24:23.40 12,3 LUNGO
523 293 DIGMAN KLAUS M 517 BIKEBODYS 00:24:23.80 12,3 LUNGO
524 506 JURADO XAVI M 518 RAT PENAT 00:24:25.30 12,29 LUNGO
525 2202 VALLONE CLAUDIO M 519 ASD TEAM JONICA MEGAMO 00:24:25.50 12,29 LUNGO
526 425 PEGORARO MASSIMILIANO M 520 ASD TEAM MARVILLE 00:24:25.90 12,29 LUNGO
527 1015 SPIRI ALESSANDRO M 521 ASD CICLISTICA OSPEDALETTI BICISPORT 00:24:26.00 12,28 LUNGO
528 3283 POZZI DIMITRI M 522 US BORMIESE 00:24:26.50 12,28 LUNGO
529 2576 DIGIACOMO GREGORIO M 523 ASD LONGO RACING TEAM 00:24:27.00 12,27 LUNGO
530 1804 RANCATI MARCO M 524 INDIVIDUALE 00:24:28.00 12,26 LUNGO
531 2386 DELEURAN NICOLAI M 525 INDIVIDUALE 00:24:28.30 12,26 LUNGO
532 2584 BAYRHOF OTTO-JONAS M 526 INDIVIDUALE 00:24:28.30 12,26 LUNGO
533 2294 RONEY SIMON M 527 INDIVIDUALE 00:24:28.40 12,26 LUNGO
534 2638 QUINTER ANDREAS M 528 INDIVIDUALE 00:24:28.70 12,26 LUNGO
535 1034 TOMLINSON ADRIAN M 529 INDIVIDUALE 00:24:29.30 12,25 LUNGO
536 2140 JOEL ROUX SIBILON M 530 SANTINI GF MONT VENTOUX 00:24:29.40 12,25 MEDIO
537 1075 CHRISTIAN BIÉMAR M 531 INDIVIDUALE 00:24:29.40 12,25 LUNGO
538 301 BOCIANSKI SVENDSEN KIM PER M 532 INDIVIDUALE 00:24:29.50 12,25 LUNGO
539 939 NARDIN LUCA M 533 DELIZIA BIKEPACKING TEAM CASARSA 00:24:29.50 12,25 LUNGO
540 2497 CAVALLERI ARONNE MARCELLO M 534 ASD TEAM MOROTTI 00:24:30.00 12,24 MEDIO
541 653 PINCHETTI PAOLO M 535 INDIVIDUALE 00:24:30.00 12,24 LUNGO
542 469 ALQUATI ALBERTO M 536 GENOVA 1913 00:24:30.20 12,24 MEDIO
543 652 PINCHETTI ALESSANDRO M 537 INDIVIDUALE 00:24:30.20 12,24 LUNGO
544 360 DELLA CASA DOMENICO M 538 GS ZAINA CLUB 00:24:30.90 12,24 MEDIO
545 997 SANDAU DAN HEIBERG M 539 INDIVIDUALE 00:24:31.00 12,24 LUNGO
546 1301 ZICHOLL STEFAN M 540 INDIVIDUALE 00:24:31.30 12,24 LUNGO
547 2755 ZANARDI ANGELO M 541 DT BIANCHI 00:24:31.50 12,24 MEDIO
548 160 BENOCCI ALESSANDRO M 542 BELTRAMITSA HOPPLA' PETROLI FIRENZE 00:24:31.50 12,24 MEDIO
549 2342 STÉPHANE BROCHOT M 543 GFNY MONT VENTOUX 00:24:31.70 12,24 LUNGO
550 407 TRIMARCO MARIO M 544 ASD MANIA BIKE 00:24:32.00 12,23 MEDIO
551 513 FORNASIERI DANILO M 545 RODMAN AZIMUT 00:24:32.30 12,23 MEDIO
552 2718 TUTINO ALESSANDRO M 546 CICLI DEDONATO ROAD RUNNERS 00:24:32.30 12,23 LUNGO
553 2177 HAMMERER CHRIS M 547 STRIZZI RECORDS 00:24:33.00 12,22 LUNGO
554 296 ANDERSEN MORTEN M 548 INDIVIDUALE 00:24:33.70 12,22 MEDIO
555 2676 CORTES MARCELO M 549 BRABOS TEAM 00:24:34.00 12,21 MEDIO

Classifica elaborata da www.winningtime.it


SANTINI GRANFONDO STELVIO
CRONOSCALATA DI TEGLIO - KM 5,00

Posiz Pett CognomeNome Sesso PosSex Società Tempo Media PERCORSO


556 592 BRUNO QUARANTA M 550 INDIVIDUALE 00:24:34.20 12,21 MEDIO
557 479 OCCHINO SANTI DANILO M 551 IL PEDALE NEL CUORE 00:24:34.40 12,21 LUNGO
558 2058 JUNG SEBASTIAN M 552 INDIVIDUALE 00:24:35.20 12,2 MEDIO
559 1421 LANZILOTTI VITTORIO M 553 ASD CARBINIA BIKE CAROVIGNO 00:24:35.50 12,2 LUNGO
560 1872 GIUDICI RICCARDO M 554 ASD CELLAR TEAM TREDICI 00:24:35.90 12,2 LUNGO
561 1863 TAPPEINER GÜNTHER M 555 ATHLETIC CLUB MERANO 00:24:36.30 12,2 LUNGO
562 1150 BEATI MATTIA M 556 ASD RUSHRIDERS.CC 00:24:36.80 12,2 MEDIO
563 769 BORMOLINI MATTEO M 557 SPORTING CLUB LIVIGNO 00:24:36.80 12,2 LUNGO
564 711 MATHISEN EIRIK NESTAS M 558 RCC 00:24:37.10 12,19 LUNGO
565 1135 SZAJERKA LUKASZ M 559 INDIVIDUALE 00:24:37.20 12,19 MEDIO
566 2354 POZZI FABRIZIO M 560 GENOVA 1913 00:24:37.70 12,19 MEDIO
567 2543 GIUDICI LUCA DANTE M 561 INDIVIDUALE 00:24:38.70 12,18 LUNGO
568 582 BERTELSEN TROELS M 562 INDIVIDUALE 00:24:39.20 12,17 LUNGO
569 1565 DA PONTE MICHELE M 563 CAMIN BIKE TEAM ASD 00:24:39.20 12,17 LUNGO
570 2637 LUPOLI VINCENZO M 564 ASD CICLO TECH 00:24:39.80 12,17 LUNGO
571 211 CAVALCA STEFANO M 565 TEAM DE ROSA SANTINI 00:24:39.80 12,17 LUNGO
572 2663 APPRIOU ROMAIN M 566 INDIVIDUALE 00:24:40.10 12,16 LUNGO
573 2120 DE BARBIERI STEFANO M 567 ASD TEAM EVO PROJECT 00:24:40.20 12,16 LUNGO
574 1825 MALINO DONALD M 568 ASD JOLLY EUROPRESTIGE 00:24:40.30 12,16 LUNGO
575 2005 LANZA SIMONE M 569 CELLAR TEAM TREDICI 00:24:40.50 12,16 MEDIO
576 1927 LIMONTA EMILIO M 570 ASD CELLAR TEAM TREDICI 00:24:40.50 12,16 LUNGO
577 2278 PAGNI LUCA M 571 TEAM BIKE VICOPISANO 00:24:41.30 12,15 MEDIO
578 1332 BLANCO BENAVIDES RAFAEL ALEJANDRO M 572 INDIVIDUALE 00:24:41.90 12,15 LUNGO
579 412 PAVAN MAURO M 573 ASD NEW TEAM 00:24:42.20 12,15 LUNGO
580 1016 STEEN HANSEN KENNETH M 574 MTB RANDERS 00:24:42.40 12,15 LUNGO
581 475 GAITAN DIEGO M 575 HILLS ANGELS 00:24:42.90 12,15 LUNGO
582 2211 FRUERGAARD VICTOR M 576 PROLOG CC 00:24:43.40 12,14 LUNGO
583 1922 CECILIANI LORENZO M 577 TEAM VALTELLINA ASD 00:24:43.50 12,14 MEDIO
584 1373 SPORK EMIL M 578 INDIVIDUALE 00:24:43.70 12,14 LUNGO
585 1512 OBWEGESER HELMUT M 579 MTB CLUB MONTAFON 00:24:45.20 12,12 LUNGO
586 574 TIOZZO MARCO M 580 INDIVIDUALE 00:24:45.70 12,12 MEDIO
587 1876 MERIGO LORENZO M 581 ASD NEWSCICLISMO.COM 00:24:46.00 12,11 LUNGO
588 1842 KAUFMANN CHRISTIAN M 582 MONT VENTOUX INTERNATIONAL CYCLING CLUB 00:24:46.30 12,11 LUNGO
589 3 BEDIN EUGENIO M 583 LAMACART CYCLIING TIME 00:24:46.70 12,11 LUNGO
590 485 ERMAN GASPER M 584 KD ALPE 00:24:46.70 12,11 LUNGO
591 2917 MADAMA GIORGIO M 585 DT BIANCHI 00:24:47.40 12,1 MEDIO
592 1246 WEISS VRONI F 6 SQUADRA CICLISMO COLONIA 00:24:47.50 12,1 LUNGO

Classifica elaborata da www.winningtime.it


SANTINI GRANFONDO STELVIO
CRONOSCALATA DI TEGLIO - KM 5,00

Posiz Pett CognomeNome Sesso PosSex Società Tempo Media PERCORSO


593 437 WHITTAKER HOWARD M 586 BMW RADSPORT 00:24:48.00 12,1 LUNGO
594 2059 KOOPMANN JAN M 587 INDIVIDUALE 00:24:48.10 12,1 MEDIO
595 2057 JAHN MARKUS M 588 INDIVIDUALE 00:24:48.50 12,1 MEDIO
596 1063 ADOLPHS ANDREAS M 589 INDIVIDUALE 00:24:49.30 12,09 LUNGO
597 1540 AMICO ARIALDO M 590 SIRONITANZI 1947 00:24:49.50 12,09 MEDIO
598 3277 DELL'ORO RENATO M 591 CAMA GROUP POLISPOSRTIVA 00:24:49.60 12,09 LUNGO
599 2569 CARDAIOLI PAOLO M 592 PETRARCA BIKE ASD 00:24:50.00 12,08 LUNGO
600 24 FOPPOLI LEONE GIOVANNI M 593 US BORMIESE 00:24:50.30 12,08 MEDIO
601 257 PARMO STEEN M 594 RUBY REJSER 00:24:50.50 12,08 LUNGO
602 1646 SCHÖTT JAN M 595 SG LANDENHAUSEN 00:24:50.80 12,08 LUNGO
603 1539 VANWELKENHUYZEN PATRICK M 596 INDIVIDUALE 00:24:51.20 12,07 LUNGO
604 1313 KOPECNY ROMAN M 597 KSV BAUNATAL 00:24:51.50 12,07 LUNGO
605 640 MARTINEZ ROMERO ANA F 7 INDIVIDUALE 00:24:51.70 12,07 LUNGO
606 707 GUEST DAMION M 598 WOLVERHAMPTON WHEELERS 00:24:52.50 12,06 LUNGO
607 1082 DINELLI FRANCESCO M 599 ST FUTURA BENESSERE 00:24:52.70 12,06 LUNGO
608 723 WILDE IAN M 600 INDIVIDUALE 00:24:52.90 12,06 LUNGO
609 1250 BARTÁK JIRI M 601 INDIVIDUALE 00:24:53.70 12,06 MEDIO
610 2323 CONSONNI ANDREA M 602 GEFO 00:24:53.80 12,06 LUNGO
611 1531 BARNA DERÉKI M 603 AMATEUR 00:24:53.90 12,06 LUNGO
612 88 GALPAROLI IGINIO M 604 ASD COMPACT TEAM 00:24:53.90 12,06 MEDIO
613 423 MONTI FAUSTO M 605 ASD TEAM ALL4CYCLING-BDC 00:24:55.50 12,04 LUNGO
614 573 QUAINI STEFANO CARLO M 606 INDIVIDUALE 00:24:55.80 12,04 MEDIO
615 1763 REQUENA ELGUEZABAL GUILLERMO M 607 PULPEIROS 00:24:56.20 12,03 LUNGO
616 2453 MASIERO ALESSANDRO M 608 VELO CLUB CASSANO MAGNAGO 1992 AD 00:24:56.60 12,03 LUNGO
617 2744 BERTOLINA GIOVANNI M 609 ALTA VALTELLINA BIKE 00:24:57.10 12,02 MEDIO
618 530 SCRIBANO DANIELE M 610 TEAM DE ROSA SANTINI 00:24:57.40 12,02 LUNGO
619 784 CALDWELL ANDY M 611 INDIVIDUALE 00:24:59.20 12,01 LUNGO
620 91 BRANDUARDI FABIO M 612 ASD LACCHIARELLA 00:24:59.40 12,01 MEDIO
621 2483 GRAZIANI CARLO M 613 EQUILIBRIO URBANO MILANO 00:24:59.50 12,01 MEDIO
622 59 FRANCESCO SUMMA M 614 ASD CASSINIS CYCLING TEAM 00:24:59.50 12,01 MEDIO
623 1328 KORZEB MICHAL M 615 INDIVIDUALE 00:24:59.80 12,01 LUNGO
624 658 ROBUSTELLI ANTONIO M 616 INDIVIDUALE 00:24:59.80 12,01 LUNGO
625 2573 POZZI YURI M 617 ASD BREMBER VALLEY 00:24:59.90 12,01 MEDIO
626 2422 RATTI ANTONIO M 618 AS PREMANA 00:25:00.20 12 MEDIO
627 602 CORTI FRANCO M 619 INDIVIDUALE 00:25:00.20 12 MEDIO
628 318 KNUDSEN MORTEN F 8 INDIVIDUALE 00:25:00.20 12 LUNGO
629 3176 LACHINA MARCO M 620 INDIVIDUALE 00:25:00.30 12 MEDIO

Classifica elaborata da www.winningtime.it


SANTINI GRANFONDO STELVIO
CRONOSCALATA DI TEGLIO - KM 5,00

Posiz Pett CognomeNome Sesso PosSex Società Tempo Media PERCORSO


630 1662 GRAF REINHOLD M 621 TEAM GRAF 00:25:00.80 12 LUNGO
631 1520 BIFFI UMBERTO M 622 TEAM VISCARDI ASD 00:25:00.90 12 MEDIO
632 2065 BALZANI ALEX M 623 ASD SID STRENZ I DENT SPORT TEAM 00:25:01.00 11,99 LUNGO
633 946 NORDENTOFT NIELS OTTO M 624 INDIVIDUALE 00:25:02.00 11,98 LUNGO
634 1630 GIORGIO ALESSANDRO M 625 FUNTOS BIKE 00:25:02.20 11,98 LUNGO
635 922 MEYER AARON M 626 NYON WHEELIES 00:25:02.20 11,98 LUNGO
636 2622 MERCATELLI ANDREA M 627 INDIVIDUALE 00:25:02.60 11,98 LUNGO
637 2127 ARCELASCHI DANILO M 628 FORMAGGILANDIA2 ASD 00:25:03.30 11,98 MEDIO
638 315 JUNKER THOMAS M 629 INDIVIDUALE 00:25:03.40 11,98 LUNGO
639 1027 TASSELLI FEDERICO M 630 SAN PATRIZIO ASD 00:25:03.50 11,98 LUNGO
640 982 RINALDI FABIO M 631 ASD RUOTA A RUOTA 00:25:04.00 11,97 LUNGO
641 2310 MONDEJAR OLIVERAS IVAN M 632 INDIVIDUALE 00:25:04.20 11,97 LUNGO
642 809 CREGO MIRA ESTEBAN M 633 C. C. OS ESFOLA ARROS 00:25:04.40 11,97 LUNGO
643 2476 STEFFEN URS M 634 FINISHERS WINTERTHUR 00:25:04.50 11,97 LUNGO
644 277 CHIEN CHEN-NAN M 635 INDIVIDUALE 00:25:04.80 11,97 LUNGO
645 1538 VANHEES GERT M 636 DE VENT-TIELTJES 00:25:04.80 11,97 LUNGO
646 2311 PADRES ANGELATS FRANCESC M 637 INDIVIDUALE 00:25:05.00 11,96 LUNGO
647 3292 MESCHI PALADINO M 638 TEAM CHRONO 00:25:05.00 11,96 LUNGO
648 444 BUYVOETS RICHARD M 639 CYCLING TEAM WIELERTOERIST 00:25:05.20 11,96 LUNGO
649 1534 GAUNFELDT TOMMY M 640 HBI 00:25:05.50 11,96 MEDIO
650 973 RAHO EDOARDO M 641 ASD CARBINIA BIKE CAROVIGNO 00:25:05.90 11,96 LUNGO
651 2142 NATHALIE BLONDIN F 9 SANTINI GF MONT VENTOUX 00:25:06.00 11,95 MEDIO
652 907 LORENZO ALBERICI M 642 INDIVIDUALE 00:25:06.20 11,95 MEDIO
653 2430 GERSTLAUER PAUL M 643 INDIVIDUALE 00:25:06.50 11,95 LUNGO
654 991 RONCALLI ANDREA M 644 INDIVIDUALE 00:25:06.70 11,95 LUNGO
655 3236 DESSI' SALVATORE M 645 BIKE TEAM MANDELLO ASD 00:25:06.80 11,95 MEDIO
656 1169 HOLM HANSEN JESPER M 646 INDIVIDUALE 00:25:06.80 11,95 LUNGO
657 767 BOLIS LEONARDO M 647 INDIVIDUALE 00:25:07.20 11,94 LUNGO
658 2749 GADDI ANTONIO M 648 BIKE TEAM MANDELLO ASD 00:25:07.50 11,94 MEDIO
659 2161 HAMMOND NEILL M 649 INDIE BIKE 00:25:08.40 11,94 LUNGO
660 899 LEENEN BEN M 650 WIELKLEVER 00:25:08.70 11,94 LUNGO
661 2215 LENTI ALESSANDRO M 651 TEAM BENETTI 00:25:08.70 11,94 LUNGO
662 2465 DEWILDE FRANÇOIS M 652 INDIVIDUALE 00:25:08.90 11,94 LUNGO
663 298 APPEL JØRGENSEN SØREN M 653 INDIVIDUALE 00:25:09.70 11,93 LUNGO
664 94 STACHURA ROMAN M 654 FINISHERS WINTERTHUR 00:25:10.00 11,92 LUNGO
665 393 BRUNETTI MAURIZIO M 655 ASD GS AVIS GUALDO TADINO 00:25:10.00 11,92 LUNGO
666 2299 JARLE JAKOB M 656 DYNAMO BORTSHAUSEN 00:25:10.20 11,92 LUNGO

Classifica elaborata da www.winningtime.it


SANTINI GRANFONDO STELVIO
CRONOSCALATA DI TEGLIO - KM 5,00

Posiz Pett CognomeNome Sesso PosSex Società Tempo Media PERCORSO


667 2229 BAHLMANN JAN M 657 INDIVIDUALE 00:25:10.70 11,92 LUNGO
668 454 FUCHS STEPHAN M 658 DYNAMO BORTSHAUSEN 00:25:10.80 11,92 LUNGO
669 1083 DOLCI NICOLA M 659 INDIVIDUALE 00:25:11.40 11,91 LUNGO
670 990 ROMIJN PAUL M 660 WIELKLEVER 00:25:11.70 11,91 LUNGO
671 774 BREWSTER ANDREW M 661 INDIVIDUALE 00:25:11.70 11,91 LUNGO
672 357 LYSTER LAURIE M 662 WANGARATTA 00:25:12.30 11,9 MEDIO
673 925 MØLLER NIELS ERIK M 663 SLANGERUP CYKELKLUB 00:25:12.30 11,9 LUNGO
674 2599 GOLAN HAGAI M 664 ZONE 3 00:25:12.60 11,9 LUNGO
675 2137 CASSESE LIVIO M 665 UNIONE CICLISTI LIDO 00:25:13.20 11,9 LUNGO
676 1426 PULEO GIANCARLO M 666 ASD SANT'AGATA LI BATTIATI - THE BLACK SHEEP 00:25:13.30 11,9 LUNGO
677 2523 BATHKE MARKUS M 667 RSV MOOSBURG 00:25:13.40 11,9 LUNGO
678 564 RIZZA ANDREA M 668 VELO CLUB SESTESE 00:25:13.50 11,9 LUNGO
679 397 LOMBARDO ARTURO PIO ROSARIO M 669 ASD IL PEDALE NEL CUORE 00:25:13.50 11,9 LUNGO
680 2333 MICUCCI MARIO M 670 ASD COPPA CYCLING TEAM 00:25:13.70 11,9 LUNGO
681 456 ALLEN TERRY M 671 EUROPEAN CYCLE EVENTS 00:25:13.80 11,9 LUNGO
682 392 SCHIVALOCCHI MARCO M 672 ASD GROSIO CICLISMO 00:25:14.20 11,89 LUNGO
683 1461 MANDELLI JACOPO FRANCO M 673 INDIVIDUALE 00:25:14.20 11,89 LUNGO
684 2728 VAN GREVENHOF BART M 674 INDIVIDUALE 00:25:14.30 11,89 MEDIO
685 816 DELAGE FREDERIC M 675 CS LA BOUILLADISSE 00:25:14.30 11,89 LUNGO
686 1913 MALCHI RAZ M 676 VELO CLUB SESTESE 00:25:14.70 11,89 LUNGO
687 2686 FOTI ALESSANDRO M 677 RODMAN AZIMUT 00:25:14.70 11,89 LUNGO
688 1711 LARSEN JACOB BREDVIG M 678 INDIVIDUALE 00:25:15.20 11,88 LUNGO
689 1257 FINAN JAMES M 679 ZUCARITAS 00:25:15.20 11,88 LUNGO
690 504 CARRERA DAVIDE M 680 PRO PATRIA MILANO S.R.L. 00:25:15.20 11,88 LUNGO
691 2343 D’INCECCO MARIO M 681 ASD CANTURINO 1902 00:25:15.20 11,88 LUNGO
692 366 PEDRINI DAVIDE M 682 ASD GROSIO CICLISMO 00:25:15.30 11,88 LUNGO
693 2653 IAROCCI NICOLINO M 683 INDIVIDUALE 00:25:15.60 11,88 MEDIO
694 1734 FRATIGLIONI FRANCESCO M 684 INDIVIDUALE 00:25:15.80 11,88 MEDIO
695 156 MAIORANA SERGIO M 685 2R BIKE STORE 00:25:16.00 11,87 LUNGO
696 2272 DENTA BENJAMIN FINN M 686 BIKE BOYS 00:25:16.30 11,87 LUNGO
697 2690 VOIGT JOERG M 687 INDIVIDUALE 00:25:16.30 11,87 LUNGO
698 348 THERP LARS M 688 INDIVIDUALE 00:25:16.70 11,87 LUNGO
699 2490 SCHYNS PHILIPPE M 689 INDIVIDUALE 00:25:17.00 11,87 LUNGO
700 309 FALDEN JAN M 690 INDIVIDUALE 00:25:17.20 11,87 LUNGO
701 2643 VITORIO CARLOS ROBERTO M 691 BV ASSESSEORIA ESPORTIVA 00:25:17.30 11,87 MEDIO
702 1979 MONZO VINACHES JOSE LUIS M 692 BMJ 00:25:18.00 11,86 LUNGO
703 1392 MAULINI CLAUDIO M 693 ASD GRUPPO CICLSTCO '95 NOVARA 00:25:18.20 11,86 LUNGO

Classifica elaborata da www.winningtime.it


SANTINI GRANFONDO STELVIO
CRONOSCALATA DI TEGLIO - KM 5,00

Posiz Pett CognomeNome Sesso PosSex Società Tempo Media PERCORSO


704 2473 BEDNAREK ANDREAS M 694 DRAHTESEL LÜTZELBACH 00:25:18.60 11,86 LUNGO
705 631 KNOBLAUCH CLAUS M 695 INDIVIDUALE 00:25:19.50 11,85 LUNGO
706 1653 HENRICH TIMO M 696 #RIDEPUNKX POWERED BY DRAHTESEL-LÜTZELBACH.DE 00:25:19.70 11,85 LUNGO
707 351 TORP JACOBSEN MADS M 697 INDIVIDUALE 00:25:20.40 11,84 LUNGO
708 115 SALVALAGGIO LISA F 10 TEAM TERENZI TREK GIST 00:25:20.50 11,84 MEDIO
709 959 PEREZ CASTRO DAVID M 698 C.C. OS ESFOLA ARROS 00:25:21.00 11,83 LUNGO
710 1567 MORALES MUÑOZ JONATHAN M 699 CHASCA TEAM 00:25:21.20 11,83 LUNGO
711 543 PORTER MARTIN M 700 THAMES VELO 00:25:21.40 11,83 MEDIO
712 2130 HARGREAVES ANDREW M 701 TEAM MARTYS 00:25:21.50 11,83 LUNGO
713 185 BORILLE SAMUELE M 702 BRONTOLO BIKE 00:25:21.70 11,83 MEDIO
714 1202 TAVELLA ALESSANDRO M 703 EFFETTO CICLISMO 00:25:21.80 11,83 MEDIO
715 1256 ENGLERT ANDRÉ M 704 #RIDEPUNKX POWERED BY DRAHTESEL-LÜTZELBACH.DE 00:25:22.50 11,83 LUNGO
716 1569 STÜCKLER ANDREAS M 705 RMCV 00:25:22.70 11,83 MEDIO
717 2679 JABLANSCEK JANKO M 706 ASDFEDERCLUB TRIESTE-TECNOEDILE 00:25:22.90 11,83 LUNGO
718 960 PEREZ FERNANDEZ JORGE M 707 C.C. OS ESFOLA ARROS 00:25:23.20 11,82 LUNGO
719 2004 GAMMELLA MARCO M 708 U.S. SANGIORGESE ASDILETTANTISTICA 00:25:23.50 11,82 LUNGO
720 665 SEBESTYEN LASZLO M 709 INDIVIDUALE 00:25:23.60 11,82 MEDIO
721 1638 CASNAOVA MARCO M 710 FAMIGLIA DA CAPRICORNS 00:25:23.80 11,82 LUNGO
722 908 LOSADA FERRO JOSE ANTONIO M 711 C.C. OS ESFOLA ARROS 00:25:24.00 11,81 LUNGO
723 2094 BERGOMI ROBERTO M 712 INDIVIDUALE 00:25:24.10 11,81 LUNGO
724 2111 O'DONOVAN NOEL M 713 INDIVIDUALE 00:25:24.20 11,81 LUNGO
725 793 CASTRO LOPEZ AGUSTIN M 714 C.C. OS ESFOLA ARROS 00:25:24.30 11,81 LUNGO
726 2125 RUSCONI MICHELE M 715 FORMAGGILANDIA2 ASD 00:25:24.70 11,81 LUNGO
727 1564 BARONI FRANCESCO M 716 ASD BIKE CARPIANO 00:25:25.30 11,8 LUNGO
728 821 DURO AGRAFOJO JOSE CARLOS M 717 C.C. OS ESFOLA ARROS 00:25:25.50 11,8 LUNGO
729 2439 SLEDZIK SEBASTIAN M 718 DT4YOU 00:25:25.80 11,8 MEDIO
730 2279 PARRA TORREIRA FERNANDO M 719 INDIVIDUALE 00:25:26.00 11,8 LUNGO
731 2345 GIORDANO ARANGO LEANDRO JAVIER M 720 INDIVIDUALE 00:25:26.30 11,8 LUNGO
732 1449 HERVÉ GUILLARD M 721 INDIVIDUALE 00:25:26.50 11,8 LUNGO
733 1110 LEADER TOM M 722 VELOCIPEDES 00:25:26.70 11,8 LUNGO
734 2277 LAMELA FORMOSO FORMOSO M 723 OS ESFOLA ARROS 00:25:26.80 11,8 LUNGO
735 45 ROMANI NICOLA M 724 US BORMIESE 00:25:27.20 11,79 LUNGO
736 1718 SIMONSEN JAKOB HUSTED M 725 INDIVIDUALE 00:25:27.20 11,79 LUNGO
737 2329 JULIEN ODOT M 726 INDIVIDUALE 00:25:27.30 11,79 LUNGO
738 2454 BIGEARD PATRICE M 727 TRIATHLON LANEUVEVILLE DEVANT NANCY 00:25:27.40 11,79 LUNGO
739 1545 CAVALLARO TOMMASO M 728 TEAM ALL4CYCLING - BDC 00:25:27.70 11,79 MEDIO
740 1377 AMBROSI ANDREA M 729 FUNTOS BIKE 00:25:28.00 11,78 MEDIO

Classifica elaborata da www.winningtime.it


SANTINI GRANFONDO STELVIO
CRONOSCALATA DI TEGLIO - KM 5,00

Posiz Pett CognomeNome Sesso PosSex Società Tempo Media PERCORSO


741 2614 WESTERMANN PETER M 730 INDIVIDUALE 00:25:28.00 11,78 LUNGO
742 134 CAVAGNA GIUSEPPE M 731 INDIVIDUALE 00:25:28.30 11,78 MEDIO
743 1226 JANSEN MARKUS M 732 EPICA CYCLING TEAM 00:25:28.70 11,78 LUNGO
744 2551 SEKRECKI MARIUSZ M 733 INDIVIDUALE 00:25:29.00 11,77 LUNGO
745 2427 DI DONATO FRANCESCO M 734 ASD MTF SUPERBIKE 00:25:29.70 11,77 MEDIO
746 1094 GÖTZE FRANK M 735 INDIVIDUALE 00:25:30.20 11,76 LUNGO
747 1634 SUKAN KERIM M 736 INDIVIDUALE 00:25:30.60 11,76 MEDIO
748 2274 GRANDE CASAS JOSE RAMON M 737 INDIVIDUALE 00:25:31.50 11,76 LUNGO
749 323 LIBERGREN LASSEN PEDER M 738 INDIVIDUALE 00:25:32.30 11,75 LUNGO
750 2508 FUTTERKNECHT THOMAS M 739 INDIVIDUALE 00:25:32.60 11,75 MEDIO
751 330 MORTENSEN LARS M 740 INDIVIDUALE 00:25:33.00 11,74 LUNGO
752 2478 VIRLA PEDRO HENRIQUE DOS SANTOS M 741 INDIVIDUALE 00:25:33.50 11,74 MEDIO
753 224 ASDAHL PETER HAUBJERG M 742 RUBY REJSER 00:25:33.60 11,74 LUNGO
754 12 FOPPOLI CRISTINA F 11 US BORMIESE 00:25:33.90 11,74 MEDIO
755 1741 SHAH AKHIL M 743 INDIVIDUALE 00:25:34.00 11,73 LUNGO
756 1071 BIREN ALAIN M 744 INDIVIDUALE 00:25:34.80 11,73 LUNGO
757 3239 CASTELNUOVO MATTIA M 745 PEDALE LECCHESE 00:25:35.00 11,73 MEDIO
758 797 CECCHETTI LUCA M 746 INDIVIDUALE 00:25:35.00 11,73 LUNGO
759 442 BALESTRACCI FABIO CARLO M 747 CICLISTI MONZESI 00:25:35.50 11,73 LUNGO
760 1152 BOSSI ANDREA M 748 INDIVIDUALE 00:25:35.60 11,73 MEDIO
761 1849 BECKER NICK M 749 DYNAMO BORTSHAUSEN 00:25:36.60 11,72 LUNGO
762 2521 RUECKER FABIAN M 750 INDIVIDUALE 00:25:37.00 11,71 LUNGO
763 852 GOLOTSVAN KOSTIANTYN M 751 LG BERTRANGE 00:25:37.00 11,71 LUNGO
764 1616 FUMEY BASTIEN M 752 BOURVIL VÉLO CLUB 00:25:37.50 11,71 LUNGO
765 5 CASTELLANI ERCOLE M 753 CSI ROMA 00:25:37.90 11,71 LUNGO
766 2332 CSORDAS CSORDAS M 754 ALPINE GOAT 00:25:37.90 11,71 LUNGO
767 2307 CIVELLI RAFFAELE M 755 INDIVIDUALE 00:25:39.20 11,7 LUNGO
768 2507 FRELLE-PETERSEN LARS M 756 HARESKOV CYKELKLUB 00:25:39.20 11,7 LUNGO
769 2537 BIANCHI ALESSANDRO M 757 INDIVIDUALE 00:25:39.30 11,7 LUNGO
770 1474 PAULY VINCENT M 758 INDIVIDUALE 00:25:39.70 11,7 LUNGO
771 505 JARRETT CHRISTOPHER M 759 RAMBLERS CYCLING CLUB 00:25:39.80 11,7 MEDIO
772 3167 PIDO' MARCO M 760 INDIVIDUALE 00:25:39.80 11,7 MEDIO
773 1254 CREMASCHI FLAVIANA F 12 INDIVIDUALE 00:25:40.10 11,69 LUNGO
774 2445 TILFORD STEPHEN M 761 INDIVIDUALE 00:25:40.30 11,69 LUNGO
775 1648 STANEK JOCHEN M 762 LT GMÜND 00:25:40.30 11,69 LUNGO
776 1018 STEPHAN JACOBS M 763 INDIVIDUALE 00:25:40.60 11,69 LUNGO
777 2717 LIJNSE JOHANNES M 764 INDIVIDUALE 00:25:40.80 11,69 LUNGO

Classifica elaborata da www.winningtime.it


SANTINI GRANFONDO STELVIO
CRONOSCALATA DI TEGLIO - KM 5,00

Posiz Pett CognomeNome Sesso PosSex Società Tempo Media PERCORSO


778 1875 LIM JIN YONG M 765 KOPI RIDERS 00:25:40.80 11,69 LUNGO
779 1090 GARCIA TESO JAVIER M 766 INDIVIDUALE 00:25:41.00 11,68 LUNGO
780 3240 1879 00:25:41.40 11,68 MEDIO
781 124 GIANI FRANCESCA F 13 VANOTTI CYCLE TEAM 00:25:41.50 11,68 MEDIO
782 92 CANGIULLI LORENZO M 767 ASD LACCHIARELLA 00:25:42.70 11,67 LUNGO
783 2444 TILFORD DAVID M 768 FEATHERSTONE ROAD CLUB 00:25:43.00 11,67 LUNGO
784 2654 MARSURA PASCAL M 769 BOS TEAM 00:25:43.50 11,67 MEDIO
785 1568 PÉTER PÉTER M 770 SZINGO 00:25:43.70 11,67 LUNGO
786 1977 MOLFETTA NICOLA M 771 ASDILETTANTISTICA CICLO SPORT MODUGNO 00:25:44.90 11,66 LUNGO
787 866 HEYWARD-CHAPLIN MARK M 772 INDIVIDUALE 00:25:45.20 11,65 LUNGO
788 1808 SASSI RICCARDO M 773 ASD VEROCA 00:25:45.30 11,65 LUNGO
789 1938 BULGHERONI MICHELE M 774 BICITIME RACING TEAM ASD 00:25:46.50 11,64 LUNGO
790 780 BÜTTNER TINA F 14 #RIDEPUNKX POWERED BY DRAHTESEL-LÜTZELBACH.DE 00:25:46.70 11,64 LUNGO
791 1573 BERNINI MAGDA F 15 INDIVIDUALE 00:25:46.80 11,64 MEDIO
792 177 ALEMANNI MARCO M 775 ASD BRONTOLO BIKE 00:25:47.00 11,64 MEDIO
793 1571 ALBERTI FLAVIO M 776 INDIVIDUALE 00:25:47.40 11,64 MEDIO
794 2580 THOMAS WILFRIED M 777 MVICC - MONT VENTOUX INTERNATIONAL CYCLING CLUB 00:25:47.40 11,64 LUNGO
795 2356 VOLENTIER MATEJ M 778 INDIVIDUALE 00:25:47.50 11,64 LUNGO
796 1579 MELA ROMINA F 16 INDIVIDUALE 00:25:48.00 11,63 MEDIO
797 575 ZITO ALESSANDRO M 779 INDIVIDUALE 00:25:48.20 11,63 MEDIO
798 1346 PANTON HENRIK KOTTAL M 780 KEMP & LAURITZEN 00:25:48.30 11,63 LUNGO
799 2681 LEGHISSA SILVANO M 781 ASDFEDERCLUBTRIESTE-TECNOEDILE 00:25:48.50 11,63 LUNGO
800 1002 SANTOS MARCOS M 782 CCBTT DE ELVAS 00:25:49.20 11,62 LUNGO
801 140 JUST CHRISTENSEN FINN M 783 INDIVIDUALE 00:25:49.50 11,62 LUNGO
802 133 CATTANEO ROBERTO M 784 INDIVIDUALE 00:25:50.80 11,61 MEDIO
803 263 RASMUSSEN MIKAEL M 785 RUBY REJSER 00:25:51.00 11,61 LUNGO
804 247 JONSSON LARS BERTIN M 786 RUBY REJSER 00:25:51.50 11,61 LUNGO
805 2379 FARNETI PAOLO M 787 ASD S.G. IMBERIDO 00:25:51.50 11,61 LUNGO
806 1582 SALAMINA RICCARDO M 788 ASD AVIS MONTICHIARI 00:25:52.50 11,6 LUNGO
807 553 ROVEDA DAVIDE M 789 US LEGNANESE 00:25:53.00 11,59 LUNGO
808 1713 MENCI OSMAN M 790 INDIVIDUALE 00:25:53.70 11,59 LUNGO
809 1720 BERSANI GIACOMO M 791 MACALLESI ASD 00:25:53.80 11,59 LUNGO
810 512 AGOSTINI PIERGIORGIO M 792 RODES VAL BADIA RAIFFEISEN 00:25:54.20 11,58 LUNGO
811 462 VARRICCHIO ANTONIO M 793 G.S. GILARDI 00:25:54.30 11,58 LUNGO
812 1562 ARIÑO MIGUEL ANGEL M 794 INDIVIDUALE 00:25:54.70 11,58 LUNGO
813 3245 BUSK MICHAEL M 795 INDIVIDUALE 00:25:55.50 11,58 LUNGO
814 1114 O'MALLEY ANTHONY M 796 CLONTARF CYCLING CLUB 00:25:55.60 11,58 MEDIO

Classifica elaborata da www.winningtime.it


SANTINI GRANFONDO STELVIO
CRONOSCALATA DI TEGLIO - KM 5,00

Posiz Pett CognomeNome Sesso PosSex Società Tempo Media PERCORSO


815 2093 VAN BRAGT ERIK M 797 INDIVIDUALE 00:25:55.90 11,58 LUNGO
816 1949 BRUEHLMANN BERNHARD M 798 INDIVIDUALE 00:25:57.00 11,56 LUNGO
817 1901 KUTLU UTKU M 799 INDIVIDUAL 00:25:57.20 11,56 MEDIO
818 3271 HUHTISAARI TIMO MATIAS M 800 INDIVIDUALE 00:25:57.20 11,56 LUNGO
819 795 CATTANEO MANUEL M 801 GCA LOCATE 00:25:57.30 11,56 MEDIO
820 686 TRAN PHUOC M 802 INDIVIDUALE 00:25:57.40 11,56 LUNGO
821 1817 BELEC MATEJ M 803 INDIVIDUALE 00:25:57.60 11,56 LUNGO
822 633 KÖRÖSSY PETER M 804 INDIVIDUALE 00:25:58.00 11,55 LUNGO
823 548 ROMAN EMILIO M 805 TRISTAR SCHAFFHAUSEN 00:25:58.20 11,55 MEDIO
824 1521 CANALES SANCHEZ DAVID M 806 MUNTBIKES 00:25:58.20 11,55 LUNGO
825 2664 EGGER MICHAEL BARTHOLOMÄUS M 807 INDIVIDUALE 00:25:58.50 11,55 LUNGO
826 1732 BRALIA CLAUDIO M 808 EVENTSPORT ASD 00:25:58.70 11,55 MEDIO
827 510 DEVELI MIKAIL M 809 RG UNI HAMBURG 00:25:59.40 11,55 LUNGO
828 2668 CURCI ANDREA M 810 FREEZONE ASD 00:25:59.50 11,55 LUNGO
829 1357 VERGNANO GIANLUCA M 811 TEAM CYCLO 00:26:00.00 11,54 LUNGO
830 15 CANCLINI LUDOVICA F 17 US BORMIESE 00:26:00.20 11,54 MEDIO
831 806 CONCHINHA JOSÉ JOAQUIM MIRANDA M 812 BIKE RODA LIVRE 00:26:00.20 11,54 LUNGO
832 1375 SZNERCH NATHAN M 813 GRAHAM WEIGH 00:26:00.40 11,54 LUNGO
833 754 BENTZEN HENRIK HALBY M 814 3650CYCLING 00:26:00.50 11,54 LUNGO
834 2586 MARTINELLI JACOPO M 815 INDIVIDUALE 00:26:01.20 11,53 MEDIO
835 2384 TANNER MARCEL M 816 INDIVIDUALE 00:26:01.20 11,53 LUNGO
836 1291 JEPPESEN MIKKEL M 817 AMAGER CYCLE RING 00:26:01.20 11,53 LUNGO
837 2228 APPLETON RICHARD M 818 RICHMOND PARK VELO 00:26:01.50 11,53 LUNGO
838 1709 KRUSE LENNART M 819 INDIVIDUALE 00:26:01.80 11,53 LUNGO
839 237 HOFMANN JON ALEX M 820 RUBY REJSER 00:26:02.30 11,52 LUNGO
840 2033 NABE-NIELSEN KRISTIAN M 821 INDIVIDUALE 00:26:02.70 11,52 LUNGO
841 226 BYGBALLE MADS M 822 RUBY REJSER 00:26:02.80 11,52 LUNGO
842 972 PUIGVERT PLADEMUNT JOSEP MARIA M 823 CC MUNTBIKES 00:26:03.20 11,52 LUNGO
843 3220 CORTI GIANNI M 824 PEDALE LECCHESE 00:26:03.40 11,52 LUNGO
844 2367 INTEK MARCIN M 825 TEAM BEROTU 00:26:03.70 11,52 MEDIO
845 3263 ACQUATI GIORGIO M 826 BIKE TEAM MANDELLO ASD 00:26:04.20 11,51 MEDIO
846 1445 VELAMAZÁN PASAMAR ANDRÉS M 827 INDIVIDUALE 00:26:04.20 11,51 LUNGO
847 435 NICOLO' DOMENICO M 828 BICISPORT BRUNELLI 00:26:04.50 11,51 MEDIO
848 2451 LUSH COSMO M 829 LONDON DYNAMO 00:26:04.50 11,51 LUNGO
849 1264 MORALES CHICO JUAN CARLOS M 830 INDEPENDIENTE 00:26:05.50 11,5 LUNGO
850 2108 VALENTINI GIAN GIACOMO M 831 INDIVIDUALE 00:26:05.50 11,5 LUNGO
851 1629 BÜNGER MARION F 18 INDIVIDUALE 00:26:05.60 11,5 MEDIO

Classifica elaborata da www.winningtime.it


SANTINI GRANFONDO STELVIO
CRONOSCALATA DI TEGLIO - KM 5,00

Posiz Pett CognomeNome Sesso PosSex Società Tempo Media PERCORSO


852 2582 FERNANDEZ POUSADA FRANCISCO M 832 CYCLOWOOD 00:26:05.60 11,5 LUNGO
853 1263 MORALES CHICO JOSE MANUEL M 833 CC TRES CANTO /HERVOLARIO VALLE DE ORO 00:26:05.80 11,5 LUNGO
854 1655 MOOSER FABIAN M 834 GETOUTSIDE 00:26:06.20 11,49 LUNGO
855 2107 HÖMANN ROLF M 835 INDIVIDUALE 00:26:06.20 11,49 LUNGO
856 2481 ZIEGLER ZIEGLER M 836 TEAM EDELMEISTER 00:26:06.30 11,49 LUNGO
857 2372 PASCAL SPECHT M 837 INDIVIDUALE 00:26:06.70 11,49 MEDIO
858 1626 VALENTINI GIAN MARIA M 838 INDIVIDUALE 00:26:06.80 11,49 LUNGO
859 2480 WICHMANN MARIAN M 839 TEAM EDELMEISTER 00:26:07.00 11,49 LUNGO
860 1402 VAN LAER PETER M 840 GRAN FONDO TEAM QUADRIFOGLIO 00:26:07.20 11,49 LUNGO
861 1207 WANZECK STEFAN M 841 RSV MOOSBURG 00:26:08.60 11,48 LUNGO
862 1975 MCBRIDE MCBRIDE M 842 INDIVIDUALE 00:26:09.10 11,47 LUNGO
863 1489 GONZÁLEZ GONZÁLEZ JORGE MANUEL M 843 CLUB CICLISTA BUENAVISTA 00:26:10.00 11,46 MEDIO
864 497 FESTA ALESSANDRO M 844 INDIVIDUALE 00:26:10.10 11,46 MEDIO
865 1204 TOFT-NIELSEN SOREN M 845 INDIVIDUALE 00:26:10.50 11,46 LUNGO
866 1350 SCHAUM PETER M 846 RV KLEINLINDEN 00:26:11.00 11,46 LUNGO
867 1619 HAM JONGHOON M 847 DOSSA DONGBU 00:26:11.40 11,46 LUNGO
868 2608 PRANDO VITORINO FRANCISCO M 848 GIRO BIKE / ACADEMIA VO2 00:26:11.50 11,46 MEDIO
869 1007 SIEGER CHRISTOPHE M 849 INDIVIDUALE 00:26:11.50 11,46 LUNGO
870 2633 ORLANDI STEFANO M 850 INDIVIDUALE 00:26:12.00 11,45 LUNGO
871 597 CARCHIDI FRANCESCO M 851 INDIVIDUALE 00:26:13.20 11,44 LUNGO
872 390 COLOMBO MATTEO M 852 ASD GB JUNIOR TEAM 00:26:14.50 11,44 MEDIO
873 715 NEWSON RICHARD M 853 INDIVIDUALE 00:26:14.50 11,44 LUNGO
874 1025 SZKLARCZYK WOJCIECH M 854 INDIVIDUALE 00:26:14.80 11,44 LUNGO
875 2647 GRENHAM NIALL M 855 INDIVIDUALE 00:26:16.00 11,42 MEDIO
876 2241 BAÑOS LUIS VICTOR M 856 BICICLETASCHINQUENA_RACINGTEAM 00:26:17.20 11,41 LUNGO
877 2482 DEMONCEAU FREDDY M 857 INDIVIDUALE 00:26:17.40 11,41 LUNGO
878 446 KLINKE CLAUS M 858 DAHVID 00:26:17.70 11,41 LUNGO
879 1840 FAGA FEDERICO M 859 INDIVIDUALE 00:26:18.00 11,41 LUNGO
880 1456 GARAVAGLIA ANDREA M 860 INDIVIDUALE 00:26:18.00 11,41 LUNGO
881 2651 TRINCAT FRANCIS M 861 INDIVIDUALE 00:26:18.20 11,41 LUNGO
882 896 LAKATOS GABOR M 862 INDIVIDUALE 00:26:18.80 11,41 MEDIO
883 2297 VOORNEMAN FRANKLIN M 863 RSC KEMPTEN 00:26:18.80 11,41 LUNGO
884 2808 PERTICARINI LORIS M 864 G.C. CAPODARCO - COMUNITA' DI CAPODARCO 00:26:19.00 11,4 MEDIO
885 1185 NAGY EMIL M 865 INDIVIDUALE 00:26:19.00 11,4 LUNGO
886 2050 BONFIELD PETER M 866 WELWYN WHEELERS 00:26:19.20 11,4 LUNGO
887 87 TRIPODI ESPEDITO M 867 ASD CERTOSA BRAZZO 00:26:20.50 11,39 MEDIO
888 1954 DOMMERBY JAN M 868 DAHVID 00:26:20.70 11,39 LUNGO

Classifica elaborata da www.winningtime.it


SANTINI GRANFONDO STELVIO
CRONOSCALATA DI TEGLIO - KM 5,00

Posiz Pett CognomeNome Sesso PosSex Società Tempo Media PERCORSO


889 465 ALIPRANDI MARCO M 869 G.S. TRABATTONI 00:26:21.00 11,39 MEDIO
890 1324 TETTENBORN SANDOR M 870 SC GRÖBENZELL 00:26:21.20 11,39 MEDIO
891 1043 VAN AERT JOS M 871 INDIVIDUALE 00:26:21.90 11,39 LUNGO
892 2025 VITORINO CARLOS M 872 INDIVIDUALE 00:26:22.20 11,38 LUNGO
893 1911 GUNAY AYHAN M 873 INDIVIDUALE 00:26:22.40 11,38 MEDIO
894 36 GIANOLI LUCA M 874 US BORMIESE 00:26:22.40 11,38 MEDIO
895 2610 BERTOLETTI MAURO M 875 DT BIANCHI 00:26:22.50 11,38 LUNGO
896 464 REMOLLINO GAETANO M 876 G.S. TRABATTONI 00:26:22.70 11,38 LUNGO
897 2733 SALA MAURIZIO M 877 INDIVIDUALE 00:26:23.40 11,37 LUNGO
898 1049 VERNER PEDERSEN LARS M 878 GIVE CYKELKLUB 00:26:23.80 11,37 MEDIO
899 954 ØSTERGÅRD MADSEN THOMAS M 879 INDIVIDUALE 00:26:24.10 11,36 LUNGO
900 2546 HAUER SØREN M 880 INDIVIDUALE 00:26:24.40 11,36 LUNGO
901 2347 LLEDO BERBEGAL ANTONIO M 881 C.C. CASTALLA 00:26:24.50 11,36 LUNGO
902 30 CHIODO PAOLO M 882 US BORMIESE 00:26:25.20 11,36 MEDIO
903 1468 LARSEN KIM M 883 INDIVIDUALE 00:26:25.30 11,36 LUNGO
904 2077 D'AMARIO EDMONDO M 884 ASD VAL DI FORO CYCLIBG 00:26:25.50 11,36 MEDIO
905 2286 FREIRE BARGO OSCAR M 885 OEA 00:26:25.50 11,36 LUNGO
906 2642 TRUE ALAN M 886 INDIVIDUALE 00:26:25.70 11,36 LUNGO
907 410 VENERITO ALEX M 887 ASD MTB PAVIA 2000 BY ZAMAI 00:26:26.00 11,35 LUNGO
908 1874 HATTON PHILIP M 888 HALE VELO 00:26:27.00 11,34 LUNGO
909 1878 PICARD JÉROME M 889 MN BIKE 00:26:27.00 11,34 LUNGO
910 649 PEDERSEN CLAUS LUND M 890 INDIVIDUALE 00:26:27.20 11,34 LUNGO
911 2147 CHUNLAUD DIDIER M 891 VC LA POMME MARSEILLE 00:26:27.40 11,34 MEDIO
912 2433 MARTIN PAOLO M 892 SQUADRA CORSE CUSSIGH BIKE 00:26:27.40 11,34 LUNGO
913 1273 VOLONTÈ LUCA M 893 SIRONITANZI 1947 SEVESO ASD 00:26:27.50 11,34 LUNGO
914 1879 PICARD SÉBASTIEN M 894 MN BIKE 00:26:27.60 11,34 LUNGO
915 1059 YARDLEY ALAN M 895 INDIVIDUALE 00:26:29.20 11,33 LUNGO
916 436 STEINER PATRICK M 896 BIKE AID 00:26:30.20 11,32 MEDIO
917 1605 PARENTINI ANDREA M 897 ARCI BACCANO 00:26:30.20 11,32 LUNGO
918 2276 CAPITANIO MASSIMO M 898 INDIVIDUALE 00:26:30.50 11,32 LUNGO
919 206 VEVERKA MILOS M 899 INDIVIDUALE 00:26:31.00 11,31 LUNGO
920 1118 PIETRELLI ALESSANDRO M 900 EST TEAM RIVIERA APUANE 00:26:31.10 11,31 LUNGO
921 2116 ANDREOZZI DAVIDE M 901 ASD TEAM EVO PROJECT 00:26:31.50 11,31 LUNGO
922 1269 STRICKO MARTIN M 902 BIKE LIVE 00:26:32.70 11,31 LUNGO
923 2411 VANNINI JACOPO M 903 INDIVIDUALE 00:26:32.80 11,31 MEDIO
924 677 VITELLARO CARLO M 904 INDIVIDUALE 00:26:32.90 11,31 LUNGO
925 1649 DE GROOT GERBEN M 905 INDIVIDUALE 00:26:33.70 11,3 LUNGO

Classifica elaborata da www.winningtime.it


SANTINI GRANFONDO STELVIO
CRONOSCALATA DI TEGLIO - KM 5,00

Posiz Pett CognomeNome Sesso PosSex Società Tempo Media PERCORSO


926 1284 CLEMENT LARS M 906 ERCC 00:26:34.20 11,29 LUNGO
927 1189 POULSEN JAN M 907 CYCLING CHALLENGE 00:26:34.20 11,29 LUNGO
928 2199 MØLLER MADS PETER M 908 INDIVIDUALE 00:26:34.20 11,29 LUNGO
929 1240 TOFT SOERENSEN MICHAEL M 909 TOFT IT CYCLING 00:26:34.30 11,29 LUNGO
930 2558 ERBEL ANDRZEJ M 910 ZBOZOWA 21 KIELCE 00:26:34.50 11,29 LUNGO
931 1223 HESSE CLEMENS M 911 SQUADRA CICLISMO COLONIA 00:26:34.50 11,29 LUNGO
932 1858 MELE MARIO M 912 ASD LA TARANTA 00:26:35.00 11,29 LUNGO
933 2267 ŠIMALCÍK LUBOMÍR M 913 INDIVIDUALE 00:26:35.00 11,29 LUNGO
934 494 PEÑA VALDIVIA ERLANTZ M 914 MRRC MÜNCHEN 00:26:35.20 11,29 LUNGO
935 166 VIDAL CANO BARTOMEU M 915 TRIATLÓ CUBE 00:26:35.20 11,29 LUNGO
936 2510 SARID OPHIR M 916 DYNAMO RACING 00:26:35.50 11,29 LUNGO
937 172 SANCHEZ MIGUEL ANGEL M 917 INDIVIDUALE 00:26:35.70 11,29 LUNGO
938 3265 GUILLERMO SUSIN CANAL M 918 INDIVIDUALE 00:26:36.00 11,28 LUNGO
939 2017 JOHNSTON DAVID M 919 INDIVIDUALE 00:26:36.80 11,28 LUNGO
940 167 FERNÁNDEZ LOZANO MIRIAM F 19 TRICUBE 00:26:36.90 11,28 LUNGO
941 2648 ILIAENS ILIAENS M 920 INDIVIDUALE 00:26:37.00 11,27 LUNGO
942 865 HERVÉ RAKOWSKI M 921 EPICA CYCLING TEAM 00:26:37.80 11,27 LUNGO
943 2625 DONI MARZIO M 922 AGLIANA CICLISMO 00:26:38.00 11,26 MEDIO
944 406 PIARDI CARLO M 923 ASD MANIA BIKE 00:26:38.00 11,26 MEDIO
945 1167 GORSEK TINA F 20 EPICA CYCLING TEAM 00:26:38.10 11,26 LUNGO
946 2557 BIAGIOLI GIANLUCA M 924 ASD PACINI FACTORY TEAM 00:26:40.20 11,25 LUNGO
947 662 SCHNEIDER MATHIAS M 925 INDIVIDUALE 00:26:40.50 11,25 MEDIO
948 178 BESI ROMEO M 926 ASD CASSINIS CYCLING TEAM 00:26:40.90 11,25 MEDIO
949 2224 BLÖCHINGER NIKLAS M 927 TRI-TEAM FRANKENALB 00:26:41.70 11,24 LUNGO
950 1516 DEBIASI DANIELE M 928 VC CASSANO MAGNAGO 1992 00:26:41.80 11,24 LUNGO
951 529 BERNASCONI STEVEN M 929 SWISSCYCLING 00:26:41.90 11,24 MEDIO
952 2522 SKRABA MICHAL M 930 GT RAT 00:26:42.20 11,24 LUNGO
953 2235 KRUSE SØNDERGAARD MORTEN M 931 INDIVIDUALE 00:26:43.00 11,23 LUNGO
954 2400 NARCISI ADELFO M 932 S.C. VILLA S.ANTONIO CICLI COCCI 00:26:43.00 11,23 LUNGO
955 1952 CISOWSKI ROMAN M 933 NA PAZURKI 00:26:43.50 11,23 LUNGO
956 1465 FEDELE GIUSEPPE M 934 INDIVIDUALE 00:26:43.70 11,23 MEDIO
957 2727 TRAN DUC M 935 INDIVIDUALE 00:26:43.70 11,23 LUNGO
958 2008 PASZKIEWICZ BOGUMIL M 936 NA PAZURKI 00:26:44.00 11,22 LUNGO
959 681 WEEKS MARK M 937 INDIVIDUALE 00:26:44.40 11,22 LUNGO
960 2435 QUAGLIA DAMIANO M 938 SQUADRA CORSE CUSSIGH BIKE 00:26:44.60 11,22 LUNGO
961 1754 TRINH ALAN M 939 MALLORCABERLINTEAM 00:26:44.70 11,22 LUNGO
962 1211 BAIERL MATTHIAS M 940 INDIVIDUALE 00:26:45.10 11,21 MEDIO

Classifica elaborata da www.winningtime.it


SANTINI GRANFONDO STELVIO
CRONOSCALATA DI TEGLIO - KM 5,00

Posiz Pett CognomeNome Sesso PosSex Società Tempo Media PERCORSO


963 1749 JIMÉNEZ CILLERUELO ORIOL M 941 MALLORCABERLINTEAM 00:26:45.20 11,21 LUNGO
964 1603 MILJKOVIC DRAGAN M 942 TEAM TESLA 00:26:45.50 11,21 LUNGO
965 1187 PARREN JOOST M 943 INDIVIDUALE 00:26:45.60 11,21 LUNGO
966 1993 STEINKAMP MICHAEL M 944 INDIVIDUALE 00:26:45.90 11,21 LUNGO
967 585 BINNENHEI CARSTEN M 945 INDIVIDUALE 00:26:46.60 11,21 LUNGO
968 668 SORONDO SEBASTIAN M 946 INDIVIDUALE 00:26:47.50 11,2 LUNGO
969 1312 KAISER FRANZ M 947 INDIVIDUALE 00:26:47.50 11,2 LUNGO
970 2566 MERICO UGO M 948 ASD ADRIANO DE ZAN 00:26:47.90 11,2 LUNGO
971 2300 KELLY JAMES M 949 INDIVIDUALE 00:26:48.00 11,19 LUNGO
972 2553 MARZANO RAFFAELE M 950 ASD ADRIANO DE ZAN 00:26:48.20 11,19 LUNGO
973 1687 LEE GARY M 951 MR 00:26:48.50 11,19 LUNGO
974 143 MANZONI PAOLO M 952 INDIVIDUALE 00:26:48.70 11,19 MEDIO
975 1877 MONTINI SERGIO M 953 INDIVIDUALE 00:26:48.80 11,19 MEDIO
976 3046 RONIC DARKO M 954 INDIVIDUALE 00:26:48.80 11,19 MEDIO
977 2242 BELCHER TYLER M 955 INDIVIDUALE 00:26:49.00 11,19 LUNGO
978 1420 JOHNSON DAN M 956 INDIVIDUALE 00:26:49.50 11,19 LUNGO
979 23 GUGGIOLA MATTEO M 957 US BORMIESE 00:26:49.80 11,19 LUNGO
980 3089 BAGCI ATILER M 958 INDIVIDUALE 00:26:50.00 11,18 MEDIO
981 2747 ADOBATI MASSIMO M 959 PEDALE LECCHESE 00:26:50.70 11,18 MEDIO
982 2693 CHERIN PAOLO M 960 ASD FEDERCLUB TRIESTE - TECNOEDILE 00:26:50.70 11,18 LUNGO
983 2617 MEONI FRANCESCO M 961 MY BIKE ASD 00:26:51.00 11,17 MEDIO
984 2618 CACIOLI RICCARDO M 962 G.S.RAMINI ASD 00:26:51.20 11,17 MEDIO
985 222 ZANOVELLO TIZIANO M 963 TEAM DE ROSA SANTINI 00:26:52.70 11,17 MEDIO
986 746 BARHAM DAVID M 964 INDIVIDUALE 00:26:52.80 11,17 MEDIO
987 1623 LUFF VAUGHAN M 965 INDIVIDUALE 00:26:53.00 11,16 LUNGO
988 2204 FREDERIKSEN LARS M 966 FAEDREGRUPPEN 00:26:53.00 11,16 LUNGO
989 1362 BELL ROBERT M 967 INDIVIDUALE 00:26:53.40 11,16 LUNGO
990 988 ROLAND COVIZZI M 968 INDIVIDUALE 00:26:53.70 11,16 MEDIO
991 74 GAMBERINI MAURO M 969 TEAM SPARTANS ASD 00:26:54.00 11,15 LUNGO
992 2203 CHRISTENSEN THOMAS KOLD M 970 FAEDERGRUPPEN 00:26:54.00 11,15 LUNGO
993 2266 O’BRIEN CRAIG M 971 INDIVIDUALE 00:26:54.50 11,15 LUNGO
994 1487 FILIPSKY JAN M 972 INDIVIDUALE 00:26:55.00 11,15 LUNGO
995 2168 VINCI ALBERTO M 973 ASD BICI & BIKE 00:26:55.00 11,15 LUNGO
996 382 MOLINA ANDREA M 974 ASD ATHLETIC CLUB MERANO 00:26:55.20 11,15 MEDIO
997 317 KNUDSEN CARSTEN M 975 INDIVIDUALE 00:26:55.30 11,15 LUNGO
998 428 MACCHI MAURIZIO M 976 ASD UC TERNATESE DAL MOLIN 00:26:55.50 11,15 MEDIO
999 1488 GAUTRON MICHAEL M 977 MVICC GF MONT VENTOUX 00:26:55.50 11,15 LUNGO

Classifica elaborata da www.winningtime.it


SANTINI GRANFONDO STELVIO
CRONOSCALATA DI TEGLIO - KM 5,00

Posiz Pett CognomeNome Sesso PosSex Società Tempo Media PERCORSO


1000 1719 ÜLGER GÜRSU M 978 HI-RIDE 00:26:56.20 11,14 MEDIO
1001 128 BANNWART CHRISTIAN M 979 INDIVIDUALE 00:26:56.20 11,14 LUNGO
1002 555 GIBERTI CRISTIAN M 980 UC ARCETANA 00:26:56.50 11,14 MEDIO
1003 1020 STEPHANSEN NICOLAI M 981 BIG GUYS ON SMALL RINGS 00:26:56.50 11,14 LUNGO
1004 2210 FAGGIONATO MARC M 982 INDIVIDUALE 00:26:56.70 11,14 LUNGO
1005 977 RAVN LEIF M 983 HOG CK 00:26:57.00 11,13 LUNGO
1006 1157 CARLI ALESSIO M 984 GS PEDALE PIETRASANTINO 00:26:57.20 11,13 LUNGO
1007 2128 DABKOWSKI KRZYSZTOF M 985 INDIVIDUALE 00:26:57.30 11,13 LUNGO
1008 1700 GURSOY GUCLU HAKAN M 986 INDIVIDUALE 00:26:57.70 11,13 MEDIO
1009 2535 SØRENSEN PER M 987 INDIVIDUALE 00:26:57.90 11,13 LUNGO
1010 67 BONUCCI STEFANO M 988 FREE BIKERS PEDALE FOLLONICHESE 00:26:57.90 11,13 LUNGO
1011 2636 JØRGENSEN ERIK M 989 INDIVIDUALE 00:26:58.30 11,12 LUNGO
1012 2448 ZIEGLER REINER M 990 INDIVIDUALE 00:26:58.70 11,12 LUNGO
1013 49 SIMONE ZUCCHETTI M 991 US BORMIESE 00:26:59.00 11,12 LUNGO
1014 2036 WAGTBERG HENRIK M 992 INDIVIDUALE 00:26:59.00 11,12 LUNGO
1015 1163 FANTINI ANTONIO M 993 GS PEDALE PIETRASANTINO 00:26:59.00 11,12 LUNGO
1016 234 HANSEN KIM LINDKVIST M 994 RUBY REJSER 00:26:59.20 11,12 LUNGO
1017 3166 IOVINO DOMENICO M 995 INDIVIDUALE 00:27:00.00 11,11 MEDIO
1018 2419 MILORO FABIO M 996 ASD BICI & BIKE 00:27:00.60 11,11 LUNGO
1019 2363 CRIPPA MASSIMO M 997 ASD TREGASIO CYCLING TEAM 00:27:01.00 11,1 LUNGO
1020 932 MORENO JORGE M 998 C.C SPRINT BIKE 00:27:01.40 11,1 LUNGO
1021 835 FRANCIS ANSIAUX M 999 INDIVIDUALE 00:27:01.50 11,1 MEDIO
1022 2339 GUARDAMAGNA MARCO M 1000 TEAM MAGNERNO BIKE 00:27:01.80 11,1 LUNGO
1023 1045 VAN DER MEIJ FOPPE-JAN M 1001 INDIVIDUALE 00:27:02.20 11,1 MEDIO
1024 1676 HUNTER JON M 1002 INDIVIDUALE 00:27:03.00 11,09 LUNGO
1025 2056 GARCIA LUIS M 1003 INDIVIDUALE 00:27:03.40 11,09 MEDIO
1026 1396 RAMACCI ALESSANDRO M 1004 ASD CICLI FATATO 00:27:03.50 11,09 LUNGO
1027 1742 STEIDL ANDREA M 1005 INDIVIDUALE 00:27:03.50 11,09 LUNGO
1028 1052 VITORINO ANTONIO M 1006 CICLO CLUBE BTT DE ELVAS 00:27:03.70 11,09 LUNGO
1029 2670 MARIK RADEK M 1007 INDIVIDUALE 00:27:03.80 11,09 LUNGO
1030 308 ERLANDSEN BENT M 1008 INDIVIDUALE 00:27:03.90 11,09 LUNGO
1031 1440 KUMPF ANDREAS M 1009 SOPREMA TEAM TSV MANNHEIM 00:27:03.90 11,09 LUNGO
1032 1288 GIRALDO CADAVID JAIRO ALBERTO M 1010 INDIVIDUALE 00:27:04.50 11,08 LUNGO
1033 290 LIU WEICHIH M 1011 INDIVIDUALE 00:27:04.50 11,08 LUNGO
1034 2275 JUNQUERA REY SILVIA F 21 SPORTBIKEBCN 00:27:05.30 11,08 LUNGO
1035 402 CORTI FABRIZIO M 1012 ASD MAKAKO TEAM 00:27:05.40 11,08 MEDIO
1036 259 PEDERSEN RENE M 1013 RUBY REJSER 00:27:06.20 11,07 LUNGO

Classifica elaborata da www.winningtime.it


SANTINI GRANFONDO STELVIO
CRONOSCALATA DI TEGLIO - KM 5,00

Posiz Pett CognomeNome Sesso PosSex Società Tempo Media PERCORSO


1037 3250 ANTOCI GRAZIANA F 22 ASD GRUPPO CICLISTICO '95 NOVARA 00:27:06.30 11,07 LUNGO
1038 2471 VELÁSQUEZ RODRIGO M 1014 ZUCARITAS 00:27:06.50 11,07 LUNGO
1039 942 NIELSEN KASPER SKOVGAARD M 1015 INDIVIDUALE 00:27:06.50 11,07 LUNGO
1040 636 KURZ CHARLY M 1016 INDIVIDUALE 00:27:06.60 11,07 LUNGO
1041 1509 FERNANDEZ ANDRES MARCOS M 1017 BICICLETAS SANCHEZ CACHULI 00:27:06.70 11,07 MEDIO
1042 1472 MONTMANY MALAGELADA MALAGELADA M 1018 CLUB CICLISTA MUNTBIKES 00:27:06.70 11,07 LUNGO
1043 1347 PLÖGER THOMAS M 1019 DIE LUSCHEN 00:27:06.80 11,07 LUNGO
1044 693 ANDINA MAURO M 1020 ASD TEAM EDDY BIKE 00:27:06.90 11,07 LUNGO
1045 1416 DRAGONE ENRICO M 1021 CERAMICHE E MASSERIE 00:27:07.00 11,06 LUNGO
1046 1201 STRELZIG HEIKO M 1022 INDIVIDUALE 00:27:07.00 11,06 LUNGO
1047 1592 MELE SILVO M 1023 KAMEN KOCIPER 00:27:07.50 11,06 LUNGO
1048 1967 KERST CHRISTOPH M 1024 RENNRADLN MÜNCHEN 00:27:07.60 11,06 MEDIO
1049 3285 FERRER ALBERT GALICIA M 1025 MUNT BIKES CLUB 00:27:08.20 11,06 LUNGO
1050 956 PADULA ALESSANDRO M 1026 ASD MTB CITTA DEGLI IMPERIALI 00:27:08.80 11,06 LUNGO
1051 1558 TARNAI BENCE M 1027 INDIVIDUALE 00:27:09.00 11,05 LUNGO
1052 2692 BORDON MARIA TERESA F 23 ASD FEDERCLUB TRIESTE - TECNOEDILE 00:27:10.00 11,04 LUNGO
1053 2976 ANGELINI-ROTA EDOARDO M 1028 SPORT CLUB GENOVA 1913 00:27:11.00 11,04 MEDIO
1054 1527 KOOP GUDRUN F 24 INDIVIDUALE 00:27:11.00 11,04 LUNGO
1055 2678 FRANCESCONI MATTEO M 1029 INDIVIDUALE 00:27:11.50 11,04 MEDIO
1056 2607 LIBORIUSSEN FRANDS M 1030 TEAM ODDER 00:27:13.00 11,02 LUNGO
1057 179 NICORA FABIO ALBERTO F 25 ASD CASSINIS CYCLING TEAM 00:27:13.20 11,02 MEDIO
1058 1830 RAMOS RAMOS WALFRIDO M 1031 CC EL CAMPELLO 00:27:13.30 11,02 LUNGO
1059 1775 CMIEL BENJAMIN BASTIAN M 1032 INDIVIDUALE 00:27:14.00 11,02 LUNGO
1060 753 BENEDETTI ANGELO M 1033 G.S.PEDALE PIETRASANTINO 00:27:14.20 11,02 LUNGO
1061 1293 MEMBRIVE JAUME M 1034 CUBE MANRESA 00:27:14.30 11,02 LUNGO
1062 2371 NOTLEY SEAN M 1035 INDIVIDUALE 00:27:14.70 11,02 LUNGO
1063 1497 PAVESE GIACOMO M 1036 ASD I BRIC 00:27:14.90 11,02 LUNGO
1064 165 PINTADO ENRIC M 1037 TRCUBE MANRESA 00:27:14.90 11,02 LUNGO
1065 2175 CULLITON SIMON M 1038 INDIVIDUALE 00:27:15.00 11,01 MEDIO
1066 2429 FUENTES CARLOS M 1039 JAGUARES 00:27:15.00 11,01 LUNGO
1067 2029 GREPPI PAOLO M 1040 GEFO 00:27:15.20 11,01 MEDIO
1068 689 CORNO FABRIZIO M 1041 COMOLAKE TEAM 00:27:15.90 11,01 MEDIO
1069 1764 THOMAS SANTORELLI M 1042 INDIVIDUALE 00:27:15.90 11,01 MEDIO
1070 2156 PARRY IAN M 1043 INDIVIDUALE 00:27:16.00 11 LUNGO
1071 1220 GIRONES JORDI M 1044 DELINQUENT VALLEY 00:27:16.40 11 LUNGO
1072 1390 KIERNAN MICHAEL M 1045 LCRC 00:27:16.60 11 MEDIO
1073 11 DOLGETTA ZINIA F 26 US BORMIESE 00:27:16.60 11 LUNGO

Classifica elaborata da www.winningtime.it


SANTINI GRANFONDO STELVIO
CRONOSCALATA DI TEGLIO - KM 5,00

Posiz Pett CognomeNome Sesso PosSex Società Tempo Media PERCORSO


1074 1217 FONTEYN PHILIPP M 1046 INDIVIDUALE 00:27:17.30 11 LUNGO
1075 928 MONTOJO JUAN M 1047 SAN LORENZO 00:27:18.20 10,99 LUNGO
1076 2060 PALLÀS FONT JOAN M 1048 CLUB ESPORTIU TRIATLO CUBE 00:27:18.30 10,99 LUNGO
1077 3237 AUSTONI FRANCESCO M 1049 INDIVIDUALE 00:27:18.50 10,99 MEDIO
1078 1047 VAN LEENGOED VICTOR M 1050 INDIVIDUALE 00:27:19.40 10,98 LUNGO
1079 1299 PRAT ARANDA CARLES M 1051 CLUB ESPORTIU CUBE MANRESA 00:27:19.70 10,98 LUNGO
1080 186 CARETTI LUIGI M 1052 CASSINIS CYCLING TEAM 00:27:20.20 10,98 MEDIO
1081 2645 WINTHER STEEN M 1053 3650CYCLING 00:27:21.20 10,97 LUNGO
1082 2431 GRZESKOWIAK DARIUSZ M 1054 INDIVIDUALE 00:27:21.70 10,97 MEDIO
1083 2548 ABIR GIL M 1055 IGP 00:27:21.90 10,97 LUNGO
1084 1976 MERA VALENTINA F 27 GEMME BIKE 00:27:22.00 10,96 LUNGO
1085 1641 LEINWEBER HERMANN M 1056 SV STOCKHAUSEN 00:27:22.30 10,96 LUNGO
1086 1111 MCVEY JOHN M 1057 NYON WHEELIES 00:27:22.50 10,96 LUNGO
1087 2472 BASSI ALESSANDRO M 1058 ASD POL. ORATORIO BARIANO 00:27:22.50 10,96 LUNGO
1088 326 LYSEN JAN M 1059 INDIVIDUALE 00:27:22.70 10,96 LUNGO
1089 395 CATALANO CARMELO M 1060 ASD IL PEDALE NEL CUORE 00:27:22.70 10,96 LUNGO
1090 3276 RAINOLTER ANDREA M 1061 ASD POOL CANTU' 00:27:23.50 10,96 LUNGO
1091 1519 ALVAREZ RAUL M 1062 BICICLETAS SANCHEZ CACHULI 00:27:24.40 10,95 MEDIO
1092 349 THOMSEN CLAUS M 1063 INDIVIDUALE 00:27:24.50 10,95 LUNGO
1093 1660 BIALAS PHILIPPE M 1064 INDIVIDUALE 00:27:24.80 10,95 LUNGO
1094 2280 SIMONELLI LUCA M 1065 INDIVIDUALE 00:27:25.00 10,94 MEDIO
1095 849 GIOIOSO NUNZIATO M 1066 SC CASAMASSIMA 14Q1432 00:27:25.10 10,94 MEDIO
1096 2789 LAMBERTI CORRADO M 1067 US BORMIESE 00:27:25.50 10,94 MEDIO
1097 1724 KRANENDONK NICO M 1068 INDIVIDUALE 00:27:25.50 10,94 LUNGO
1098 3260 MARCHESE PIETRO M 1069 ASD IL PEDALE NEL CUORE 00:27:25.80 10,94 LUNGO
1099 1119 PINA MARTÍNEZ SAÚL M 1070 HOGAR CICLOS G.D. 00:27:26.40 10,94 LUNGO
1100 1723 KNOLL MANFRED M 1071 INDIVIDUALE 00:27:27.50 10,93 LUNGO
1101 1410 ADDUCE GIANPAOLO M 1072 TEAM BIKE MATERA 00:27:28.30 10,92 LUNGO
1102 1446 WALLNER MARIO M 1073 RITSCHIS BIKE 00:27:28.70 10,92 MEDIO
1103 2182 SÖLLER PATRICK M 1074 SW HOLTWICK 00:27:28.70 10,92 LUNGO
1104 1279 ARCILA GAVIRIA JORGE IVAN M 1075 INDIVIDUALE 00:27:29.00 10,92 LUNGO
1105 1928 LOTZ MARIO M 1076 INDIVIDUALE 00:27:29.00 10,92 LUNGO
1106 539 VARISCHETTI MARTA F 28 TEAM VALTELLINA ASD 00:27:29.10 10,92 MEDIO
1107 319 KONGSTE NIELS-ERIK M 1077 INDIVIDUALE 00:27:29.30 10,92 LUNGO
1108 2160 EVANS JOHN M 1078 INDIVIDUALE 00:27:29.50 10,92 LUNGO
1109 2080 STEFAN GNANDT M 1079 VINIBIKE KSE 00:27:29.50 10,92 LUNGO
1110 1194 SESTINI ROBERTO M 1080 GS POPPI ASD 00:27:29.60 10,92 LUNGO

Classifica elaborata da www.winningtime.it


SANTINI GRANFONDO STELVIO
CRONOSCALATA DI TEGLIO - KM 5,00

Posiz Pett CognomeNome Sesso PosSex Società Tempo Media PERCORSO


1111 1309 DUNSDON DAVID M 1081 INDIVIDUALE 00:27:29.70 10,92 MEDIO
1112 2216 NASSETTI DAVIDE M 1082 GIANLUCA FAENZA TEAM 00:27:29.80 10,92 MEDIO
1113 1547 EPTING ULI M 1083 INDIVIDUALE 00:27:29.90 10,92 MEDIO
1114 3247 BARLOCCO ROBERTO M 1084 VANZAVILLA TEAM 00:27:30.20 10,91 MEDIO
1115 2032 MEZZENZANA MAURO M 1085 US SANGIORGESE ASD 00:27:30.20 10,91 LUNGO
1116 2273 GERVIL MORTEN M 1086 SALTO SYSTEMS NORDIC CYCLING 00:27:30.70 10,91 LUNGO
1117 1068 BASTEIRO RODRIGUEZ FRANCISCO M 1087 INDIVIDUALE 00:27:30.70 10,91 LUNGO
1118 2685 IOFFE VADIM M 1088 INDIVIDUALE 00:27:30.90 10,91 MEDIO
1119 1454 FALCINI STEFANO M 1089 CICLISTICA GREVIGIANA 00:27:31.10 10,9 LUNGO
1120 2736 GIUNTOLI ROBERTO M 1090 TRITTICI DEL SERRA ASD 00:27:31.90 10,9 LUNGO
1121 882 KELLY EOGHAN M 1091 INDIVIDUALE 00:27:32.40 10,9 MEDIO
1122 2007 MORETTI ANDREA M 1092 100%BIKE 00:27:32.50 10,9 LUNGO
1123 1177 LUCATELLO GIOVANNI M 1093 GS POPPI ASD 00:27:32.50 10,9 LUNGO
1124 1176 LOVARI LUCA M 1094 GS POPPI ASD 00:27:32.50 10,9 LUNGO
1125 1499 SANG SOO LEE M 1095 GCC TEAM 00:27:32.70 10,9 MEDIO
1126 1146 ARRUABARRENA JAUREGI IBAI M 1096 INDIVIDUALE 00:27:32.80 10,9 LUNGO
1127 1368 MORILLAS MIKEL M 1097 XIMAURPIL 00:27:33.10 10,89 LUNGO
1128 557 IOLI VALERIO M 1098 UC.ANGERESE 00:27:33.20 10,89 MEDIO
1129 340 PANUM JENSEN ANDERS M 1099 INDIVIDUALE 00:27:33.20 10,89 LUNGO
1130 1644 RIVINIUS VIKTOR M 1100 SV STOCKHAUSEN 00:27:33.50 10,89 LUNGO
1131 184 MARZARO GIANMARCO M 1101 ASD TEAM UNIPACK 00:27:34.00 10,88 MEDIO
1132 1066 AROSIO MARCO M 1102 BICI CLUB 2000 00:27:34.00 10,88 LUNGO
1133 316 KNIGHTBRIDGE NIBERG-ZEHNGRAFF CARSTEN M 1103 INDIVIDUALE 00:27:34.20 10,88 LUNGO
1134 1192 ROSELLI CLAUDIO M 1104 GS POPPI ASD 00:27:34.40 10,88 LUNGO
1135 1261 LAUSTROER ULRICH M 1105 INDIVIDUALE 00:27:34.70 10,88 MEDIO
1136 1595 SARI MUSTAFA M 1106 INDIVIDUALE 00:27:35.20 10,88 MEDIO
1137 1183 MARTINI FEDERICO M 1107 GS POPPI ASD 00:27:35.20 10,88 LUNGO
1138 324 LIND BERTELSEN ERIK M 1108 INDIVIDUALE 00:27:35.50 10,88 LUNGO
1139 3223 ERIKSEN BJØRN M 1109 INDIVIDUALE 00:27:35.50 10,88 LUNGO
1140 1427 SACCO ANGELO M 1110 LUPI DELLA MURGIA - MA3A ASD 00:27:35.70 10,88 LUNGO
1141 736 ANGÉLIQUE GOETSCHI F 29 EPICA CYCLING TEAM 00:27:36.00 10,87 LUNGO
1142 472 POMPEI GIANCARLO M 1111 GS AVIS GUALDO TADINO 00:27:36.00 10,87 LUNGO
1143 1686 CAYBOYLU NURULLAH M 1112 INDIVIDUALE 00:27:36.20 10,87 MEDIO
1144 1801 PETERSEN PETERSEN M 1113 INDIVIDUALE 00:27:36.30 10,87 LUNGO
1145 1986 PINETTI MAURO M 1114 ASD SPECIAL BERGAMO SPORT 00:27:36.70 10,87 MEDIO
1146 1601 FIORE MICHELE M 1115 ASD CERAMICHE LEMER 00:27:36.90 10,87 LUNGO
1147 2650 TINI MARCO M 1116 ASD GS AVIS GUALDO TADINO 00:27:37.90 10,86 LUNGO

Classifica elaborata da www.winningtime.it


SANTINI GRANFONDO STELVIO
CRONOSCALATA DI TEGLIO - KM 5,00

Posiz Pett CognomeNome Sesso PosSex Società Tempo Media PERCORSO


1148 764 BLANCO ABEL M 1117 INDIVIDUALE 00:27:38.20 10,86 LUNGO
1149 2672 RAATZ DANIEL M 1118 INDIVIDUALE 00:27:38.70 10,86 LUNGO
1150 386 TURCO SALVATORE M 1119 ASD CERAMICHE LEMER 00:27:39.00 10,85 LUNGO
1151 1657 WOHLFENDER PATRICK M 1120 INDIVIDUALE 00:27:39.40 10,85 LUNGO
1152 609 DURHAM ANDREW M 1121 INDIVIDUALE 00:27:39.70 10,85 MEDIO
1153 1972 LÜCKOFF FRANK M 1122 GOTT.DE 00:27:39.70 10,85 LUNGO
1154 747 BARONE GIOVANNI M 1123 ASD CERAMICHE LEMER 00:27:39.80 10,85 LUNGO
1155 367 CAMORANI ROBERTO M 1124 ASD COOPERATORI 00:27:40.10 10,84 MEDIO
1156 738 ANTUNES JOÃO PAULO M 1125 PINABIKE 00:27:40.80 10,84 LUNGO
1157 1208 WIESER KONRAD M 1126 INDIVIDUALE 00:27:40.90 10,84 MEDIO
1158 1164 FRANK HERBERT M 1127 TUS KREUZWEINGARTEN 00:27:41.20 10,84 LUNGO
1159 1281 BIAGINI DANILO M 1128 ASD VELO CLUB MASSA MARITTIMA 00:27:41.90 10,84 MEDIO
1160 256 PALNE RENE ØSTERGAARD M 1129 RUBY REJSER 00:27:41.90 10,84 LUNGO
1161 1108 KURZE MICHAEL M 1130 INDIVIDUALE 00:27:42.00 10,83 LUNGO
1162 1171 JUNG MARCUS M 1131 INDIVIDUALE 00:27:42.20 10,83 LUNGO
1163 1364 CHIAPPANI FAUSTO M 1132 SINTESI CICLYNG TEAM 00:27:42.40 10,83 LUNGO
1164 621 HABENICHT MALTE M 1133 INDIVIDUALE 00:27:42.70 10,83 LUNGO
1165 2042 HUMPHREY PAUL M 1134 TEAM EUROPEAN CYCLE EVENTS 00:27:43.20 10,82 MEDIO
1166 1596 SCHMIDT-TAUBE CHRISTOPH M 1135 INDIVIDUALE 00:27:43.20 10,82 LUNGO
1167 1128 SCHLEY THOMAS M 1136 SC HOYERSWERDA 00:27:44.00 10,82 LUNGO
1168 2039 RICHTER HELGE M 1137 H.O.T. 00:27:44.70 10,82 LUNGO
1169 413 GIANNINI MARIO M 1138 ASD PEDALE ARQUATESE 00:27:44.70 10,82 LUNGO
1170 1812 STARREMANS MARC M 1139 TEAM LIMBURG 00:27:45.00 10,81 LUNGO
1171 1376 VINDISAR BLAZ M 1140 KAMEN KOCIPER 00:27:45.00 10,81 LUNGO
1172 847 GIL RAMOS M 1141 CLUB CICLISTA DE VERIN 00:27:46.20 10,8 LUNGO
1173 1234 MIGUEL JAIME M 1142 ZUCARITAS ES 00:27:46.30 10,8 LUNGO
1174 1642 MÖLLER MARCEL M 1143 SG LANDENHAUSEN 00:27:46.60 10,8 LUNGO
1175 2256 GUGOLZ REMO M 1144 WINFORCE 00:27:47.40 10,8 LUNGO
1176 1495 KÖRBLER KLAUS M 1145 ÖTB TURNVEREIN FRIESACH 00:27:47.50 10,8 LUNGO
1177 1944 BARANOWSKI TADEUSZ M 1146 GRUPETTO WARSZAWA 00:27:48.00 10,79 LUNGO
1178 1266 NEUMANN VOLKER M 1147 INDIVIDUALE 00:27:48.20 10,79 LUNGO
1179 1406 BADULLI FEDERICO M 1148 ASD LACCHIARELLA 00:27:48.80 10,79 LUNGO
1180 2492 UGOLINI ANDREA M 1149 ASD DIDA 1980 00:27:49.00 10,78 LUNGO
1181 1191 RICH LEON M 1150 INDIVIDUALE 00:27:49.00 10,78 LUNGO
1182 2585 BORGHI LUCA M 1151 INDIVIDUALE 00:27:49.70 10,78 MEDIO
1183 1733 CANTU CARDENAS ARTURO M 1152 INDIVIDUALE 00:27:49.70 10,78 LUNGO
1184 1557 SHIN GYEOM SEUNG M 1153 LAPIERRE 00:27:49.80 10,78 MEDIO

Classifica elaborata da www.winningtime.it


SANTINI GRANFONDO STELVIO
CRONOSCALATA DI TEGLIO - KM 5,00

Posiz Pett CognomeNome Sesso PosSex Società Tempo Media PERCORSO


1185 2487 PORZIO ALESSANDRO M 1154 ASD DIDA 1980 00:27:50.30 10,78 LUNGO
1186 1415 DONLON PATRICK M 1155 INDIVIDUALE 00:27:50.30 10,78 LUNGO
1187 2314 FRANDSEN MORTEN M 1156 TRI4 00:27:50.80 10,78 LUNGO
1188 1430 STØHRMANN MADS M 1157 INDIVIDUALE 00:27:50.80 10,78 LUNGO
1189 2399 JASTRZEBSKI WOJTEK M 1158 K.S. TECZA / SZTAFLONY 00:27:51.00 10,77 LUNGO
1190 1165 FRANK KIRSTEN F 30 TUS KREUZWEINGARTEN 00:27:52.00 10,77 LUNGO
1191 384 LOCATELLI MATTEO M 1159 ASD BREMBER VALLEY 00:27:52.20 10,77 MEDIO
1192 1123 RASK STEEN M 1160 INDIVIDUALE 00:27:52.40 10,77 LUNGO
1193 1494 KIM JIHYUN F 31 WCC 00:27:52.90 10,77 LUNGO
1194 1525 KLEINKNECHT RUPERT M 1161 INDIVIDUALE 00:27:53.00 10,76 LUNGO
1195 1503 YOON JAWOONG M 1162 WCC 00:27:53.00 10,76 LUNGO
1196 1438 HOCHHOLZER THORSTEN M 1163 INDIVIDUALE 00:27:53.20 10,76 LUNGO
1197 3261 SERDIUK DMYTRO M 1164 SOFT SOFA CC 00:27:53.60 10,76 LUNGO
1198 164 CABELLO CARLOS M 1165 EROICIANS.CC 00:27:53.70 10,76 LUNGO
1199 1455 GAIERA GIANLUIGI M 1166 INDIVIDUALE 00:27:53.70 10,76 LUNGO
1200 1074 CHEBOTAROV ANDRII M 1167 SOFT SOFA CC 00:27:54.40 10,75 LUNGO
1201 1581 RICHARDSON RICHARDSON M 1168 ARRIA WHEELERS 00:27:54.70 10,75 LUNGO
1202 644 MICHALAK PETR M 1169 INDIVIDUALE 00:27:55.00 10,75 LUNGO
1203 25 ANDREOLA UBERTO M 1170 US BORMIESE 00:27:55.40 10,75 MEDIO
1204 2079 PELGRÖM ANDRÉ M 1171 INDIVIDUALE 00:27:56.00 10,74 LUNGO
1205 571 GALBA ATTILA M 1172 INDIVIDUALE 00:27:56.50 10,74 LUNGO
1206 2227 SINGER NICO M 1173 INDIVIDUALE 00:27:56.70 10,74 LUNGO
1207 2152 AMMANN AMMANN M 1174 INDIVIDUALE 00:27:57.20 10,73 LUNGO
1208 2074 KUZLER BELA M 1175 INDIVIDUALE 00:27:57.40 10,73 MEDIO
1209 825 ENSING ERIK M 1176 WIELKLEVER 00:27:57.70 10,73 MEDIO
1210 1103 JONES NATHAN M 1177 INDIVIDUALE 00:27:58.00 10,73 LUNGO
1211 385 POLONI OMAR VITTORIO M 1178 ASD CERAMICHE LEMER 00:27:58.40 10,73 LUNGO
1212 804 COELHO LUIS M 1179 INDIVIDUALE 00:27:59.00 10,72 MEDIO
1213 2223 BENGESSER THOMAS M 1180 RIESER KRAFTWERK 00:27:59.20 10,72 LUNGO
1214 2957 CRIVELLARO GIOVANNI M 1181 PETRARCA BIKE ASD 00:27:59.60 10,72 MEDIO
1215 1451 BARBANTANI SERGIO M 1182 GRUPPO CICLISTI CANTALUPO 00:28:01.00 10,71 LUNGO
1216 2084 BLAGOJEVIC BORIS M 1183 BORIS BLAGOJEVIC 00:28:01.90 10,71 LUNGO
1217 577 ALONSO MUNOZ LANDER M 1184 INDIVIDUALE 00:28:02.50 10,7 MEDIO
1218 1989 ROSEMEIER PHILIPP M 1185 FLOWBIKER 00:28:02.50 10,7 LUNGO
1219 1607 STETTLER JÜRG M 1186 IG RADQUER METTMENSTETTEN / BYHAND.CH 00:28:02.70 10,7 LUNGO
1220 3221 BECCHETTI GIACOMO M 1187 ASD ZEROTRENTA TRIATHLON 00:28:03.00 10,7 LUNGO
1221 2026 ALBER JONAS M 1188 INDIVIDUALE 00:28:03.20 10,7 LUNGO

Classifica elaborata da www.winningtime.it


SANTINI GRANFONDO STELVIO
CRONOSCALATA DI TEGLIO - KM 5,00

Posiz Pett CognomeNome Sesso PosSex Società Tempo Media PERCORSO


1222 2921 EDELSTEIN JONATHAN M 1189 FAMILY 00:28:03.70 10,7 MEDIO
1223 811 CURTIS JOHN M 1190 INDIVIDUALE 00:28:05.20 10,68 MEDIO
1224 801 CLAXTON CHRIS M 1191 INDIVIDUALE 00:28:05.20 10,68 LUNGO
1225 2209 DUNCAN ALLAN M 1192 FULLARTON WHEELERS 00:28:05.30 10,68 LUNGO
1226 1710 KÜÇÜK MEHMET M 1193 HIRIDE 00:28:07.00 10,67 MEDIO
1227 278 CHOU PO LIN M 1194 INDIVIDUALE 00:28:07.00 10,67 MEDIO
1228 2172 KIEFFER PATRICK M 1195 VC MULLERTHAL CYCLING 00:28:07.00 10,67 LUNGO
1229 1925 DROSTE MAXIMILIAN M 1196 FLOWBIKER 00:28:07.40 10,67 LUNGO
1230 3226 JOHANNESSEN ARNE M 1197 00:28:07.80 10,67 LUNGO
1231 31 CONFORTOLA ACHILLE M 1198 US BORMIESE 00:28:08.00 10,66 MEDIO
1232 999 SANFILIPPO ADRTIANO M 1199 US LEGNANESE 00:28:08.70 10,66 MEDIO
1233 144 VANDERBEKE ALEXANDER M 1200 AGAINST CYCLING TEAM SAO PAULO BRAZIL 00:28:08.90 10,66 MEDIO
1234 1805 ROSTOHAR SAMO M 1201 INDIVIDUALE 00:28:09.20 10,66 LUNGO
1235 415 TIRELLI MASSIMO M 1202 ASD SAMBI TEAM 00:28:10.00 10,65 LUNGO
1236 2240 SCARDOVI CLAUDIO M 1203 INDIVIDUALE 00:28:10.40 10,65 LUNGO
1237 2309 MENDE LUDGER M 1204 INDIVIDUALE 00:28:10.40 10,65 LUNGO
1238 1621 KRASTASHEVSKAYA IRINA F 32 INDIVIDUALE 00:28:10.70 10,65 MEDIO
1239 587 BIRRELL MARK M 1205 INDIVIDUALE 00:28:11.00 10,64 LUNGO
1240 158 VIOLA MARIO M 1206 ASD ROMA CICLISMO 00:28:11.40 10,64 LUNGO
1241 1270 UNTEREINER UNTEREINER M 1207 FEP MONT SUR MEURTHE 00:28:12.40 10,64 MEDIO
1242 2336 TOWNEND DANIEL M 1208 INDIVIDUALE 00:28:13.20 10,63 LUNGO
1243 73 TURCHI LUCA M 1209 TEAM ORSO ON BIKE ASD 00:28:13.20 10,63 LUNGO
1244 895 LABÒ MARCO M 1210 S.C. BRUGHERIO SPORTIVA ASD 00:28:13.90 10,63 MEDIO
1245 3150 FACCHINI MATTEO M 1211 INDIVIDUALE 00:28:14.00 10,63 MEDIO
1246 2305 NORBY HENRIK M 1212 SVENDBORG CC 00:28:14.30 10,63 LUNGO
1247 1893 BARNI CLAUDIO MARCO M 1213 EASY RIDE ASD 00:28:15.00 10,62 MEDIO
1248 2117 ASSALINO MATTEO M 1214 ASD TEAM EVO PROJECT 00:28:15.20 10,62 LUNGO
1249 1796 MOURÃO EDUARDO M 1215 INDIVIDUALE 00:28:15.70 10,62 MEDIO
1250 1910 EBERTZ THOMAS M 1216 INDIVIDUALE 00:28:16.20 10,61 LUNGO
1251 1514 SAHR CHRISTOPH M 1217 TESLA 00:28:17.00 10,61 LUNGO
1252 1923 CHIGNARD ETIENNE M 1218 INDIVIDUALE 00:28:17.40 10,61 MEDIO
1253 33 CUSINI SEVERINO M 1219 US BORMIESE 00:28:18.30 10,6 MEDIO
1254 1158 CONDE GALILEO M 1220 ZUCARITAS 00:28:18.30 10,6 LUNGO
1255 1386 GLAVAC KLAVDIJ M 1221 KAMEN KOCIPER 00:28:18.70 10,6 LUNGO
1256 2484 KAMINSKY HAGEN M 1222 INDIVIDUALE 00:28:19.50 10,59 LUNGO
1257 2767 PIATTELLI ROBERTO M 1223 ASD CICLISTICA SENESE 00:28:19.70 10,59 MEDIO
1258 971 PRAVETTONI LORENZO M 1224 INDIVIDUALE 00:28:19.80 10,59 LUNGO

Classifica elaborata da www.winningtime.it


SANTINI GRANFONDO STELVIO
CRONOSCALATA DI TEGLIO - KM 5,00

Posiz Pett CognomeNome Sesso PosSex Società Tempo Media PERCORSO


1259 1745 HASKINS PAUL M 1225 INDIVIDUALE 00:28:20.50 10,59 LUNGO
1260 1701 SAKINSEL ALI M 1226 NASHIRA CYCLING TEAM 00:28:20.70 10,59 LUNGO
1261 1283 BRESELE MANFRED M 1227 INDIVIDUALE 00:28:22.00 10,58 LUNGO
1262 1854 ILLEL JEFF M 1228 INDIVIDUALE 00:28:22.20 10,58 MEDIO
1263 590 BRENSING CHRISTIAN M 1229 INDIVIDUALE 00:28:22.20 10,58 LUNGO
1264 1442 LOSADA ALVAREZ OSCAR M 1230 INDIVIDUALE 00:28:22.40 10,58 LUNGO
1265 1757 MARANI MARCO M 1231 PONTESANTO A.P.D. 00:28:23.00 10,57 LUNGO
1266 1479 SMITH GEOFF M 1232 INDIVIDUALE 00:28:23.10 10,57 LUNGO
1267 1435 BRÜMMER MANUELA F 33 INNOCENT 17 00:28:23.80 10,57 LUNGO
1268 1806 RUTNIK ZORAN M 1233 INDIVIDUALE 00:28:24.00 10,56 MEDIO
1269 1441 LOSADA ALVAREZ LUIS EDUARDO M 1234 INDIVIDUALE 00:28:24.20 10,56 LUNGO
1270 1897 CZECH ROLAND M 1235 INDIVIDUALE 00:28:24.40 10,56 LUNGO
1271 1848 ANGLANO PIETRO M 1236 ASD LA TARANTA 00:28:24.80 10,56 LUNGO
1272 46 ROVARIS THOMAS M 1237 US BORMIESE 00:28:26.20 10,55 MEDIO
1273 1864 VALENTE FABRIZIO M 1238 ASD LA TARANTA 00:28:26.20 10,55 LUNGO
1274 2674 AGOSTINI LUCA M 1239 ASDGROSIO CICLISMO 00:28:26.70 10,55 MEDIO
1275 1970 KRISZTIAN DREMAK M 1240 SUPERIOR MTB TEAM HUNGARY 00:28:26.80 10,55 LUNGO
1276 2185 TAM ALESSANDRO M 1241 TEAM PAREDI 00:28:26.90 10,55 MEDIO
1277 1178 LUKOSCHUS CHRISTOPH M 1242 PT LOUNGE BERLIN 00:28:27.00 10,54 LUNGO
1278 1636 TERRANOVA GIANCARLO M 1243 INDIVIDUALE 00:28:27.10 10,54 LUNGO
1279 2362 CONTI MAURIZIO M 1244 INDIVIDUALE 00:28:27.50 10,54 LUNGO
1280 252 LUND-BURMEISTER TONY DIMITRIS M 1245 RUBY REJSER 00:28:27.80 10,54 LUNGO
1281 1280 BETANCUR CASTAÑEDA JORGE IVAN M 1246 INDIVIDUALE 00:28:28.50 10,54 LUNGO
1282 62 PONTONI ANDREA M 1247 ASD TEAM STRABICI 00:28:28.90 10,54 MEDIO
1283 1865 WOELL UWE M 1248 DYNAMO BORTSHAUSEN E.V. 00:28:28.90 10,54 MEDIO
1284 698 RICCI MASSIMO M 1249 CICLISTICA MOLASSANA 00:28:29.00 10,53 MEDIO
1285 2563 POGACAR MOJCA F 34 INDIVIDUALE 00:28:29.20 10,53 MEDIO
1286 989 ROMEO NUÑEZ DAVID M 1250 C.C ESPRINT BIKE 00:28:29.70 10,53 LUNGO
1287 1125 REIS BÉNÉDICTE F 35 INDIVIDUALE 00:28:30.00 10,53 LUNGO
1288 1072 BORRALLO ADRIAN M 1251 LOS CASERAS CYCLING TEAM 00:28:30.30 10,53 LUNGO
1289 2838 GORI DANIELE M 1252 AGLIANA CICLISMO ASD 00:28:30.70 10,53 MEDIO
1290 2750 LIGI MARCO M 1253 BIKE TEAM MANDELLO ASD 00:28:31.00 10,52 MEDIO
1291 405 MUNARO BARBARA F 36 ASD MANIA BIKE 00:28:31.00 10,52 MEDIO
1292 2179 RAMOS MARTIN LUIS ENRIQUE M 1254 LOS CASERAS RACING TEAM 00:28:31.00 10,52 LUNGO
1293 554 DULCETTI GIUSEPPE M 1255 US LEGNANESE 00:28:31.20 10,52 LUNGO
1294 1992 SALA MASSIMO M 1256 GROSIO CICLISMO 00:28:31.50 10,52 LUNGO
1295 1388 HANSEN OLE M 1257 INDIVIDUALE 00:28:31.50 10,52 LUNGO

Classifica elaborata da www.winningtime.it


SANTINI GRANFONDO STELVIO
CRONOSCALATA DI TEGLIO - KM 5,00

Posiz Pett CognomeNome Sesso PosSex Società Tempo Media PERCORSO


1296 1498 RONDENA SERGIO M 1258 BRONTOLO BIKE 00:28:32.00 10,51 MEDIO
1297 2827 ORSI MIRKO M 1259 ASD CYCLING TEAM ZEROSEI 00:28:32.00 10,51 MEDIO
1298 1439 KRESTAN FILIP M 1260 SK RYTÍRSKÁ 00:28:32.00 10,51 LUNGO
1299 2452 MALAGUTI DANIELE M 1261 INDIVIDUALE 00:28:32.50 10,51 MEDIO
1300 1224 HORVÁTH BALÁZS M 1262 PANNONHALMA STELVIO PROJEKT 00:28:33.70 10,51 MEDIO
1301 496 FORLANI FABIO M 1263 NESSUNA 00:28:33.90 10,51 MEDIO
1302 2541 ZANELLI ANDREA M 1264 ASD IMOLA BIKE 00:28:34.10 10,5 LUNGO
1303 2231 KEEGAN GARETH M 1265 INDIVIDUALE 00:28:34.20 10,5 LUNGO
1304 1958 GHISU DANILO PIETRO M 1266 ASD CASSINIS CYCLING TEAM 00:28:35.20 10,5 LUNGO
1305 1652 GRAM UIRIK M 1267 INDIVIDUALE 00:28:35.40 10,5 LUNGO
1306 1087 FORBES RANALD M 1268 INDIVIDUALE 00:28:36.40 10,49 LUNGO
1307 1374 STRUPL JIRI M 1269 INDIVIDUALE 00:28:36.50 10,49 LUNGO
1308 2604 VAN ZIJL DENNIS M 1270 INDIVIDUALE 00:28:36.80 10,49 LUNGO
1309 2358 KARALIS IOANNIS M 1271 ERMIS 00:28:37.30 10,48 LUNGO
1310 422 MALOSSI GABRIELE M 1272 ASD TEAM ALL4CYCLING-BDC 00:28:37.50 10,48 MEDIO
1311 721 THOMAS SIMON M 1273 INDIVIDUALE 00:28:38.70 10,48 LUNGO
1312 1206 VULPIANI GIAMPIERO M 1274 PRO BIKE RIDING TEAM 00:28:39.50 10,47 MEDIO
1313 2412 BERMAN LOUIS M 1275 TWENTY PEAKS 00:28:39.50 10,47 LUNGO
1314 1518 ALVAREZ MANUEL M 1276 BICICLETAS SANCHEZ CACHULI 00:28:39.80 10,47 MEDIO
1315 1751 MAGNAGHI MAURO M 1277 GS NAVIGLIO 00:28:40.30 10,47 LUNGO
1316 796 CAVALIERI BENEDETTO M 1278 INDIVIDUALE 00:28:41.40 10,46 LUNGO
1317 731 ALVAREZ MARC M 1279 TEAM MUNTBIKES MOTORPRIM 00:28:41.90 10,46 LUNGO
1318 2221 PARASCANDOLO EVA F 37 DYNAMO BORTSHAUSEN 00:28:42.10 10,45 MEDIO
1319 1252 BIBOLOTTI ROBERTO M 1280 GS PEDALE PIETRASANTINO 00:28:43.20 10,45 LUNGO
1320 2572 LEHMER CARINA F 38 INDIVIDUALE 00:28:43.50 10,45 MEDIO
1321 2251 BENNI CESARE M 1281 ASD CICLISTICA BITONE 00:28:43.70 10,45 MEDIO
1322 1319 NAUMANN FRANK M 1282 TV RODENBACH 00:28:44.40 10,44 LUNGO
1323 2514 HAYDEN CIARAN M 1283 INDIVIDUALE 00:28:44.70 10,44 LUNGO
1324 268 SØRENSEN JACOB BERTEL M 1284 RUBY REJSER 00:28:44.70 10,44 LUNGO
1325 1011 SMITHSON JONATHAN M 1285 LANTERNE ROUGE 00:28:44.90 10,44 LUNGO
1326 1463 PESCHKE ACHIM M 1286 INDIVIDUALE 00:28:45.50 10,43 LUNGO
1327 1431 TILSTED PETER M 1287 INDIVIDUALE 00:28:45.90 10,43 LUNGO
1328 2390 CHASE MARK M 1288 INDIVIDUALE 00:28:46.20 10,43 LUNGO
1329 639 MANETAS ALEX M 1289 INDIVIDUALE 00:28:46.50 10,43 LUNGO
1330 2556 ZORDAN ALESSANDRO M 1290 CUSTOM4 RDR FACTORY TEAM 00:28:47.20 10,42 LUNGO
1331 2457 PULWICKI MARCIN M 1291 DT4YOU 00:28:47.40 10,42 MEDIO
1332 527 MIHÁLY RÁKSI M 1292 SOLYOM TEAM SE 00:28:47.40 10,42 MEDIO

Classifica elaborata da www.winningtime.it


SANTINI GRANFONDO STELVIO
CRONOSCALATA DI TEGLIO - KM 5,00

Posiz Pett CognomeNome Sesso PosSex Società Tempo Media PERCORSO


1333 1789 LETO BARONE DAVIDE M 1293 INDIVIDUALE 00:28:47.70 10,42 MEDIO
1334 2167 VERDUCI GIANFRANCO M 1294 ASD BICI & BIKE 00:28:47.90 10,42 MEDIO
1335 1064 ANDREASEN KIM M 1295 INDIVIDUALE 00:28:48.10 10,42 LUNGO
1336 634 KROKNES HANS M 1296 INDIVIDUALE 00:28:49.00 10,41 LUNGO
1337 1050 VILLANCE SOPHIE F 39 INDIVIDUALE 00:28:49.40 10,41 MEDIO
1338 2639 RANUCCI RINALDO M 1297 ASD CICLO TECH 00:28:49.50 10,41 LUNGO
1339 2593 ZAGO LUCA M 1298 CICLISTICA RIVALTA 00:28:49.50 10,41 LUNGO
1340 2415 FISHMAN ZVIKA M 1299 TWENTY PEAKS 00:28:49.50 10,41 LUNGO
1341 325 LINDHOLM PEDERSEN CARSTEN M 1300 INDIVIDUALE 00:28:49.70 10,41 MEDIO
1342 1335 CARRO ITURBE GORKA M 1301 XIMAURPIL 00:28:50.20 10,4 MEDIO
1343 1606 RAMOS ESTEBAN M 1302 TEAM TESLA 00:28:50.70 10,4 LUNGO
1344 853 GONZÁLEZ JOSÉ MIGUEL M 1303 INDIVIDUALE 00:28:51.00 10,4 LUNGO
1345 1365 FRIES MICHAEL M 1304 TV RODENBACH 00:28:51.70 10,4 LUNGO
1346 1469 LEE HYUNG-MIN M 1305 SINGLE 00:28:53.50 10,39 LUNGO
1347 717 PIKE DEAN M 1306 INDIVIDUALE 00:28:53.50 10,39 LUNGO
1348 2129 DODD SEAN M 1307 INDIVIDUALE 00:28:54.10 10,38 LUNGO
1349 549 BUNDIL ANDREAS M 1308 TRI-TEAM FRANKENALB 00:28:54.30 10,38 MEDIO
1350 827 FACCHINETTI CLAUDIO M 1309 ASD CICLI BETTONI COSTA VOLPINO 00:28:54.70 10,38 LUNGO
1351 2488 RIGHINI CLAVIO M 1310 IMOLA TRIATHLON 00:28:54.80 10,38 LUNGO
1352 1084 FARRES ALBERT M 1311 INDIVIDUALE 00:28:54.80 10,38 LUNGO
1353 1065 AROCA GASPART ORIOL M 1312 INDIVIDUALE 00:28:54.80 10,38 LUNGO
1354 1282 BOEL JEPPE M 1313 ERCC 00:28:54.90 10,38 LUNGO
1355 2417 HANAEL NAAMA F 40 TWENTY PEAKS 00:28:56.10 10,37 MEDIO
1356 1591 LINDÖRFER MICHAEL M 1314 INDIVIDUALE 00:28:56.70 10,37 MEDIO
1357 2646 COATTO GIANFRANCO M 1315 ASD TEAM FANTOLINO 00:28:57.10 10,36 MEDIO
1358 3273 SIKORSKI PAWEL PIOTR M 1316 INDIVIDUALE 00:28:57.20 10,36 LUNGO
1359 1235 MONNI GABRIELE M 1317 TEAM PIERI CALAMAI 00:28:57.40 10,36 MEDIO
1360 135 CORTESI CLAUDIA F 41 INDIVIDUALE 00:28:57.90 10,36 MEDIO
1361 1023 SUMMERER STEFAN M 1318 SEMPRE IN MOVIMENTO 00:28:58.20 10,36 LUNGO
1362 2438 SCHREIBER TAMÁS M 1319 INDIVIDUALE 00:28:59.70 10,35 LUNGO
1363 2352 MIRGUET OLIVIER M 1320 INDIVIDUALE 00:28:59.90 10,35 MEDIO
1364 2180 SCHMIDT JOSEF M 1321 INDIVIDUALE 00:29:00.00 10,34 LUNGO
1365 1683 TORCHALLA ELIAS M 1322 HSGAZELLEN 00:29:01.00 10,34 LUNGO
1366 2190 REDAHAN SEAN M 1323 INDIVIDUALE 00:29:01.20 10,34 MEDIO
1367 2052 RODRÍGUEZ MARTÍNEZ OLEGARIO M 1324 KM 0 00:29:01.20 10,34 LUNGO
1368 1417 FLORESTA ATTILIO M 1325 ASD CITTA' DI MISTERBIANCO ENTE ACSI 00:29:01.20 10,34 LUNGO
1369 2044 LOIC PECHE M 1326 VTT FUN CLUB 00:29:01.50 10,34 LUNGO

Classifica elaborata da www.winningtime.it


SANTINI GRANFONDO STELVIO
CRONOSCALATA DI TEGLIO - KM 5,00

Posiz Pett CognomeNome Sesso PosSex Società Tempo Media PERCORSO


1370 2234 KNUDSEN JENS M 1327 ULSTRUP CYKELMOTION 00:29:01.80 10,34 LUNGO
1371 924 MOLERO TORRES FERMIN M 1328 INDIVIDUALE 00:29:02.30 10,33 LUNGO
1372 2196 BARRIE PAUL M 1329 INDIVIDUALE 00:29:02.70 10,33 LUNGO
1373 2757 MAIER GIUSEPPE M 1330 INDIVIDUALE 00:29:02.80 10,33 MEDIO
1374 952 OSIPOV MIKHAIL M 1331 ????????? 00:29:03.10 10,33 MEDIO
1375 203 SLAMKA JURAJ M 1332 INDIVIDUALE 00:29:03.20 10,33 LUNGO
1376 34 DE LORENZI ANDREA M 1333 US BORMIESE 00:29:03.70 10,33 MEDIO
1377 1134 STOCKMAIER THOMAS M 1334 INDIVIDUALE 00:29:03.70 10,33 MEDIO
1378 1940 AGUADO TURRADO SANTOS M 1335 INDIVIDUALE 00:29:04.00 10,32 LUNGO
1379 1551 LE DU LE DU M 1336 INDIVIDUALE 00:29:04.00 10,32 LUNGO
1380 1995 ZAKOLSKI TOMASZ M 1337 INDIVIDUALE 00:29:04.00 10,32 LUNGO
1381 287 LIN CHENG CHIH M 1338 INDIVIDUALE 00:29:04.50 10,32 MEDIO
1382 1197 SPARREBOOM RAYMOND M 1339 INDIVIDUALE 00:29:04.80 10,32 LUNGO
1383 2330 ZENTAI ZSOLT M 1340 SUPERIOR MTB TEAM 00:29:05.00 10,32 LUNGO
1384 839 GALLO STAMPINO DANIELE M 1341 US LEGNANESE 00:29:05.20 10,32 LUNGO
1385 250 KONGSTAD CHRISTIAN ADAM M 1342 RUBY REJSER 00:29:05.20 10,32 LUNGO
1386 341 PEDERSEN JACOB M 1343 INDIVIDUALE 00:29:05.30 10,32 LUNGO
1387 1434 PANDINI MAURIZIO M 1344 ASD LACCHIARELLA 00:29:05.40 10,32 MEDIO
1388 2236 LAGERSSON NIKLAS M 1345 INDIVIDUALE 00:29:05.50 10,32 LUNGO
1389 2978 MORO CASSIO M 1346 STAR CYCLE 00:29:05.80 10,32 MEDIO
1390 2564 ADRIÃO HILÁRIO M 1347 INDIVIDUAL 00:29:06.20 10,31 MEDIO
1391 142 MALERBA CARLO M 1348 INDIVIDUALE 00:29:06.20 10,31 MEDIO
1392 1726 MONSTER JAN-JAAP M 1349 INDIVIDUALE 00:29:06.20 10,31 LUNGO
1393 1391 MALASPINA CORRADO M 1350 SC VILLAFRANCA 00:29:07.20 10,3 LUNGO
1394 2405 FLIGHT DAVID M 1351 INDIVIDUALE 00:29:07.90 10,3 LUNGO
1395 834 FRANCHI GIOVANNI M 1352 TEAM BIKE GAVARDO 00:29:09.80 10,29 MEDIO
1396 1980 MULET MIGUEL M 1353 BMJ 00:29:10.00 10,29 LUNGO
1397 1899 IVANYK IGOR M 1354 INDIVIDUALE 00:29:10.30 10,29 LUNGO
1398 1631 HEILIG ROMAN M 1355 INDIVIDUALE 00:29:10.30 10,29 LUNGO
1399 718 RALPH ANDREW M 1356 INDIVIDUALE 00:29:10.80 10,29 LUNGO
1400 1756 LAZARI GIAN PAOLO M 1357 LA TARANTA 00:29:11.00 10,28 LUNGO
1401 1179 LUSINI STEFANO M 1358 GS POPPI ASD 00:29:12.20 10,27 LUNGO
1402 2753 GUGGIARI CATERINA F 42 BIKE DIVISION 00:29:12.40 10,27 MEDIO
1403 2041 ENEMARK LEON M 1359 SCRMOTION 00:29:12.40 10,27 LUNGO
1404 1121 PUIGVERT SOLER JOAN M 1360 MUNTBIKES CC 00:29:13.70 10,27 LUNGO
1405 229 ENGELL ULLA F 43 RUBY REJSER 00:29:14.00 10,26 MEDIO
1406 3275 WILSON KIM M 1361 RUBY REJSER 00:29:14.20 10,26 LUNGO

Classifica elaborata da www.winningtime.it


SANTINI GRANFONDO STELVIO
CRONOSCALATA DI TEGLIO - KM 5,00

Posiz Pett CognomeNome Sesso PosSex Società Tempo Media PERCORSO


1407 1707 FERNANDEZ ALONSO JOSE LUIS M 1362 INDIVIDUALE 00:29:14.70 10,26 MEDIO
1408 2534 PETTINARI HERNAN M 1363 INDIVIDUALE 00:29:15.20 10,26 MEDIO
1409 202 POHORELEC PETER M 1364 INDIVIDUALE 00:29:15.20 10,26 LUNGO
1410 258 PEDERSEN KENNI MARTIN M 1365 RUBY REJSER 00:29:15.70 10,26 LUNGO
1411 840 GARGANESE GIUSEPPE M 1366 ASD M.T.B. CITTÀ DEGLI IMPERIALI 00:29:15.80 10,26 LUNGO
1412 28 CANCLINI ANTONIO M 1367 US BORMIESE 00:29:16.20 10,25 LUNGO
1413 750 BASSO VANNA F 44 INDIVIDUALE 00:29:16.80 10,25 LUNGO
1414 794 CASTRO VIDAL M 1368 PINABIKE 00:29:17.20 10,24 LUNGO
1415 749 BARTEK PAOLO M 1369 INDIVIDUALE 00:29:17.40 10,24 LUNGO
1416 2377 CIPOLAT GOTET ALESSANDRO M 1370 CUSATI BIKE TEAM 00:29:17.50 10,24 LUNGO
1417 619 GROSS PETER M 1371 INDIVIDUALE 00:29:17.70 10,24 MEDIO
1418 180 PROTTO FEDERICO M 1372 ASD CASSINIS CYCLING TEAM 00:29:17.70 10,24 MEDIO
1419 2385 TRAVENZOLI ROBERTO M 1373 AUTOCAROZZERIA RALLY 00:29:18.60 10,24 LUNGO
1420 1761 RECIO PEREZ DANIEL M 1374 INDEPENDIENTE 00:29:20.00 10,23 LUNGO
1421 2176 DOWNEY DOWNEY M 1375 INDIVIDUALE 00:29:20.10 10,23 MEDIO
1422 433 D'ALESSANDRO VITO M 1376 ATHLETIC CLUB MERANO 00:29:20.40 10,23 MEDIO
1423 837 FRIGOLI MARCO M 1377 ASD.GS CICLOAMATORI MELEGNANO 00:29:20.90 10,23 LUNGO
1424 850 GLACKIN SHANE M 1378 INDIVIDUALE 00:29:21.20 10,22 LUNGO
1425 2304 MASTAGNI SIMONE M 1379 SHAPE INTERNATIONAL CYCLING CLUB 00:29:21.20 10,22 LUNGO
1426 2462 BAGNOLI JONATAN M 1380 ASD ARCI CERRETO GUIDI 00:29:21.50 10,22 LUNGO
1427 2350 WISWEDEL JÜRGEN M 1381 INDIVIDUALE 00:29:21.70 10,22 MEDIO
1428 2606 FONTANA RONY ROBERT M 1382 GIRO BIKE 00:29:22.20 10,22 LUNGO
1429 1024 SZEMETI SÁNDOR M 1383 INDIVIDUALE 00:29:22.70 10,22 LUNGO
1430 2321 BOOTSMA SIEBRAND M 1384 NTFU 344689 00:29:22.70 10,22 LUNGO
1431 2832 NAVA LUCA M 1385 ASD TEAM MOROTTI 00:29:22.90 10,22 MEDIO
1432 2421 DA SILVA EZEQUIEL M 1386 INDIVIDUALE 00:29:23.80 10,21 MEDIO
1433 1493 KIM DAE MYUNG M 1387 GCC TEAM 00:29:24.70 10,2 LUNGO
1434 2245 MARINO ALESSANDRO M 1388 ASD GIANLUCA FAENZA 00:29:25.60 10,2 MEDIO
1435 1145 ANDREUCCI GIANNI M 1389 GS POPPI ASD 00:29:25.70 10,2 LUNGO
1436 654 PITTNER AGUSTIN M 1390 INDIVIDUALE 00:29:26.00 10,19 LUNGO
1437 1920 BARTÁK MILOŠ M 1391 INDIVIDUALE 00:29:26.10 10,19 MEDIO
1438 1768 BECK OLIVIER M 1392 UCP 00:29:26.40 10,19 LUNGO
1439 632 KNUDSEN ANDERS M 1393 INDIVIDUALE 00:29:27.20 10,19 LUNGO
1440 2089 LIGHTBODY DAVID M 1394 LODTRONIXRACING.ES 00:29:29.70 10,18 LUNGO
1441 191 PAPPALARDO PAOLO M 1395 INDIVIDUALE 00:29:30.10 10,17 MEDIO
1442 655 PODESTA PEDRO M 1396 INDIVIDUALE 00:29:30.20 10,17 MEDIO
1443 1048 VEJLGAARD JESPER M 1397 INDIVIDUALE 00:29:30.50 10,17 LUNGO

Classifica elaborata da www.winningtime.it


SANTINI GRANFONDO STELVIO
CRONOSCALATA DI TEGLIO - KM 5,00

Posiz Pett CognomeNome Sesso PosSex Società Tempo Media PERCORSO


1444 2002 DZIUBA FABIAN M 1398 INDIVIDUALE 00:29:30.70 10,17 MEDIO
1445 1242 VAN DIJK JASPER M 1399 QUALITA INSPECTIES 00:29:30.90 10,17 MEDIO
1446 701 COWIE DOUGLAS M 1400 FORRES CYCLING CLUB 00:29:32.00 10,16 MEDIO
1447 705 ESSON MICHELLE F 45 FORRES CYCLING CLUB 00:29:32.00 10,16 MEDIO
1448 2867 MORA RENATO GAETANO M 1401 ASD MORA CICLI 00:29:32.20 10,16 MEDIO
1449 2165 REEDMAN CHRISTOPHER M 1402 INDIVIDUALE 00:29:32.50 10,16 LUNGO
1450 333 NIELSEN LISBETH F 46 INDIVIDUALE 00:29:32.80 10,16 LUNGO
1451 194 DZUBERA JAROMIR M 1403 INDIVIDUALE 00:29:33.00 10,15 MEDIO
1452 1743 TOMATIS MASSIMO M 1404 AS PASSATORE 00:29:33.10 10,15 LUNGO
1453 1253 BORMANS JOOP M 1405 INDIVIDUALE 00:29:33.70 10,15 MEDIO
1454 1395 NÄRSKA ALGER M 1406 INDIVIDUALE 00:29:33.90 10,15 MEDIO
1455 1919 ALMODÓVAR TORRES VICENTE M 1407 CC PUZOL 00:29:34.60 10,15 LUNGO
1456 741 ASHLIN TIMOTHY M 1408 LANTERNE ROUGE 00:29:35.00 10,14 LUNGO
1457 1053 WATERFALL BEN M 1409 LANTERNE ROUGE 00:29:36.00 10,14 LUNGO
1458 1001 SANTOS JOAQUIM M 1410 INDIVIDUALE 00:29:36.10 10,14 LUNGO
1459 1028 TEPPER MARIO M 1411 FAST ZWEIRAD HAUS 00:29:36.20 10,14 LUNGO
1460 1982 NIELSEN ERNST M 1412 DAHVID 00:29:36.70 10,14 LUNGO
1461 2100 JANSSEN EDGAR M 1413 MULLERTHAL CYCLING 00:29:36.70 10,14 LUNGO
1462 2019 RUSZKIEWICZ RENATA F 47 LONDON DYNAMO 00:29:37.20 10,13 LUNGO
1463 2699 DRAMERYAN GARO PAREN M 1414 EQUILIBRIO URBANO MILANO ASD 00:29:37.40 10,13 MEDIO
1464 1991 SAILER CLARA F 48 HSGAZELLEN 00:29:37.70 10,13 LUNGO
1465 2628 PORCEL NOGALES JAVIER M 1415 TRI CUBE MANRESA 00:29:38.20 10,12 LUNGO
1466 2027 DANIELI ANTONIO M 1416 INDIVIDUALE 00:29:38.80 10,12 MEDIO
1467 2547 SØRENSEN JENS AHM M 1417 INDIVIDUALE 00:29:40.20 10,11 LUNGO
1468 2505 BRONROT ITZIK M 1418 DYNAMO RACING 00:29:40.30 10,11 LUNGO
1469 114 CUNICO SILVIA F 49 TEAM TERENZI TREK GIST 00:29:40.60 10,11 MEDIO
1470 297 ANDREASEN KNUD ERIK M 1419 INDIVIDUALE 00:29:40.90 10,11 MEDIO
1471 2101 REIJNIERSE ARJEB M 1420 INDIVIDUALE 00:29:40.90 10,11 LUNGO
1472 600 CLARK ANDREW M 1421 INDIVIDUALE 00:29:41.20 10,11 LUNGO
1473 2151 RIZZOLA MANUEL M 1422 FREE BIKE ERBUSCO ASSOCIAZIONE SPORTIVA DILETTANTI 00:29:41.90 10,11 MEDIO
1474 894 KUTLU CAN M 1423 INDIVIDUALE 00:29:42.20 10,1 MEDIO
1475 2905 FRANCHINI FRANCESCO M 1424 CICLI MAGGIONI TEAM ASD 00:29:42.50 10,1 MEDIO
1476 589 BOWDEN PAUL M 1425 INDIVIDUALE 00:29:43.20 10,1 LUNGO
1477 969 PLATT PAUL M 1426 INDIVIDUALE 00:29:43.70 10,1 LUNGO
1478 1447 WANTAE KIM, M 1427 GCC 00:29:45.70 10,08 MEDIO
1479 1692 SMITHSON TIMOTHY M 1428 INDIVIDUALE 00:29:46.20 10,08 LUNGO
1480 1597 WEINER DAVID M 1429 INDIVIDUALE 00:29:46.20 10,08 LUNGO

Classifica elaborata da www.winningtime.it


SANTINI GRANFONDO STELVIO
CRONOSCALATA DI TEGLIO - KM 5,00

Posiz Pett CognomeNome Sesso PosSex Società Tempo Media PERCORSO


1481 1330 BJERREGAARD ALLAN M 1430 KEMP & LAURITZEN 00:29:47.30 10,07 LUNGO
1482 196 KUSTAR MARTIN M 1431 INDIVIDUALE 00:29:47.30 10,07 LUNGO
1483 1802 POGGIESE MAURICIO M 1432 VIIVA ASSESSORIA 00:29:47.40 10,07 MEDIO
1484 1358 VINTER PER M 1433 KEMP & LAURITZEN 00:29:47.80 10,07 LUNGO
1485 2035 SCHRÖDER ECKHARD M 1434 INDIVIDUALE 00:29:48.00 10,07 LUNGO
1486 192 RICCI RICCARDO M 1435 INDIVIDUALE 00:29:48.20 10,07 MEDIO
1487 403 FOGLINO MASSIMO M 1436 ASD MANIA BIKE 00:29:48.70 10,07 MEDIO
1488 2281 CAPPELLETTI ALBERTO M 1437 ASD FREE BIKERS PEDALE FOLLONICHESE 00:29:49.70 10,06 MEDIO
1489 760 BIANCHI CLAUDIO M 1438 US LEGNANESE 00:29:50.20 10,06 MEDIO
1490 1965 KENNEDY PAUL M 1439 INDIVIDUALE 00:29:50.40 10,06 LUNGO
1491 2282 CARTOCCI MARIA LUISA F 50 ASD FREE BIKERS PEDALE FOLLONICHESE 00:29:51.40 10,05 MEDIO
1492 182 VARDANEGA PAOLO M 1440 ASD CASSINIS CYCLING TEAM 00:29:51.70 10,05 MEDIO
1493 583 BILGEN EVRIM F 51 INDIVIDUALE 00:29:52.20 10,04 MEDIO
1494 1496 KÖRBLER PETER M 1441 ÖTB TURNVEREIN FRIESACH 00:29:52.20 10,04 LUNGO
1495 1931 BELLINI DANIEL M 1442 INDIVIDUALE 00:29:52.70 10,04 LUNGO
1496 2254 VUGA ALEX M 1443 INDIVIDUALE 00:29:54.00 10,03 MEDIO
1497 2020 SAVAGE MAEVE F 52 LONDON DYNAMO 00:29:54.70 10,03 LUNGO
1498 965 PIERA SANCHEZ OSCAR M 1444 SPRINT BIKE 00:29:55.10 10,03 LUNGO
1499 1510 KOGLER PHILIPP M 1445 ÖTB TURNVEREIN FRIESACH 00:29:55.70 10,03 LUNGO
1500 2420 PIERONI ILARIA F 53 GRUPPO CICLISTICO VAL DI MERSE ASD 00:29:56.00 10,02 LUNGO
1501 2406 SCHEIDEGGER KEVIN M 1446 INDIVIDUALE 00:29:56.20 10,02 LUNGO
1502 2374 ROMANI ANDREA M 1447 ASD GIUSFREDI 00:29:57.20 10,02 LUNGO
1503 305 DALSAGER MICHAEL M 1448 INDIVIDUALE 00:29:58.50 10,01 LUNGO
1504 2383 PIGNATTI ALBERTO M 1449 TURBOLENTO THINKBIKE SSDARL 00:29:58.50 10,01 LUNGO
1505 1229 KUCK PEER M 1450 SQUADRA CICLISMO COLONIA 00:30:00.20 10 LUNGO
1506 1517 WEDLEY GARETH M 1451 CHESTER ROAD CLUB 00:30:00.20 10 LUNGO
1507 1091 GAVIOLI FABRIZIO M 1452 ASD U.C. TERNATESE DAL MOLIN 00:30:01.00 9,99 MEDIO
1508 974 RAMOS BALBOA JOSE DOMINGO M 1453 C. C. OS ESFOLA ARROS 00:30:01.00 9,99 LUNGO
1509 2520 PRESBERG RAN M 1454 CNN 200S 00:30:01.20 9,99 LUNGO
1510 900 LEROUGE ÉRIC M 1455 INDIVIDUALE 00:30:02.20 9,99 MEDIO
1511 2334 SCARPELLINI IVANO M 1456 POLISPORTIVA LOSA ASD 00:30:03.00 9,98 MEDIO
1512 1320 NIELSEN LOTTE HYLDAHL F 54 INDIVIDUALE 00:30:04.00 9,98 LUNGO
1513 2656 FISCHER CHRISTOPHE M 1457 INDIVIDUALE 00:30:04.10 9,98 MEDIO
1514 2306 THOMPSON MARK M 1458 TEAM EUROPEAN CYCLE EVENTS 00:30:04.30 9,98 MEDIO
1515 2166 ROHR MATTHIAS M 1459 INDIVIDUALE 00:30:04.50 9,98 LUNGO
1516 964 PFESTORF TIMO M 1460 UCBC 00:30:04.80 9,98 LUNGO
1517 2700 KEYSER CATHRINE F 55 INDIVIDUALE 00:30:04.90 9,98 LUNGO

Classifica elaborata da www.winningtime.it


SANTINI GRANFONDO STELVIO
CRONOSCALATA DI TEGLIO - KM 5,00

Posiz Pett CognomeNome Sesso PosSex Società Tempo Media PERCORSO


1518 414 BELTRANI DANIELE M 1461 ASD POLISPORTIVA PORTO FUORI 00:30:05.70 9,97 LUNGO
1519 1321 NORVIN MORTEN M 1462 INDIVIDUALE 00:30:06.60 9,97 LUNGO
1520 773 BRASCA ANDREA M 1463 GS CICLOAMATORI MELEGNANO 00:30:06.80 9,97 MEDIO
1521 605 DALLE FESTE FABIO M 1464 INDIVIDUALE 00:30:07.20 9,96 LUNGO
1522 926 MONTI ALESSANDRO M 1465 INDIVIDUALE 00:30:07.40 9,96 MEDIO
1523 1086 FERNANDEZ RAMIREZ PEDRO M 1466 GEFO 00:30:07.50 9,96 LUNGO
1524 978 RAVN PEER M 1467 SLAGELSE BIKE BOYS 00:30:08.30 9,96 LUNGO
1525 55 MARFOGLIA SUSANNA F 56 US BORMIESE 00:30:08.80 9,96 LUNGO
1526 947 NOTARPASQUALE ENRICO M 1468 MOUNTAIN BIKE CLUB CECINA 00:30:09.00 9,95 LUNGO
1527 56 STARC PAOLO M 1469 US BORMIESE 00:30:09.70 9,95 LUNGO
1528 671 THISSEN-SMITS MARIANNE F 57 INDIVIDUALE 00:30:10.70 9,94 LUNGO
1529 2118 BIOCCA PAOLO M 1470 ASD COLONNELLA CYCLING TEAM 00:30:11.70 9,94 LUNGO
1530 709 JAMES MARK M 1471 INDIVIDUALE 00:30:11.90 9,94 LUNGO
1531 1953 DI FELICIANTONIO FABIAN M 1472 INDIVIDUALE 00:30:12.20 9,93 MEDIO
1532 920 MCPHERSON ANDY M 1473 VC10 00:30:12.30 9,93 LUNGO
1533 260 PLEJDRUP PETER M 1474 RUBY REJSER 00:30:12.30 9,93 LUNGO
1534 2302 VINK HEIN M 1475 CS010 00:30:13.70 9,93 LUNGO
1535 2365 DORO ERIC M 1476 INDIVIDUALE 00:30:14.50 9,92 MEDIO
1536 1215 DE BLAS MARIANO M 1477 DONOSTIARRA 00:30:14.90 9,92 LUNGO
1537 230 FENGER KIM MØLLER M 1478 RUBY REJSER 00:30:15.40 9,92 LUNGO
1538 233 HANSEN KARSTEN MØLLER M 1479 RUBY REJSER 00:30:15.40 9,92 LUNGO
1539 235 HANSEN MARTIN MØLLER M 1480 RUBY REJSER 00:30:15.50 9,92 LUNGO
1540 2232 KEMPE BERND M 1481 RED-MARIN 00:30:15.50 9,92 LUNGO
1541 519 LA MARCA ALESSANDRO M 1482 ROMPIBIKENARCAO 00:30:15.70 9,92 LUNGO
1542 957 PATO MAGARIÑOS MANUEL M 1483 C. C. OS ESFOLA ARROS 00:30:16.20 9,91 LUNGO
1543 1560 WIESER ERIKA F 58 ASD TEAM ALL4CYCLING-BDC 00:30:17.20 9,91 MEDIO
1544 2263 CAVALIERI FRANCESCO M 1484 GENOVA 1913 00:30:17.40 9,91 MEDIO
1545 362 ZAPPA LUCA M 1485 ADS TEAM DUAL BIKE CANTU' 00:30:17.40 9,91 MEDIO
1546 1762 REHLINGHAUS MARC M 1486 UROBEUYS 00:30:18.30 9,9 LUNGO
1547 2467 BINI ULISSE M 1487 INDIVIDUALE 00:30:18.30 9,9 LUNGO
1548 1639 DOHERTY PATRICK J M 1488 SICC 00:30:18.50 9,9 LUNGO
1549 1010 SMIT JACOB M 1489 ROBECO 00:30:18.70 9,9 LUNGO
1550 2067 BIGERNA ROBERTO M 1490 CIRCOLO DIPENDENTI PERUGINA APD 00:30:18.70 9,9 LUNGO
1551 1022 SUBIRACHS PADILLA PEDRO M 1491 C.C SPRINT BIKE 00:30:19.00 9,9 LUNGO
1552 266 SAVAGE NOEL M 1492 RUBY REJSER 00:30:19.20 9,9 LUNGO
1553 146 POLINI DENIS M 1493 INDIVIDUALE 00:30:20.00 9,89 MEDIO
1554 342 PEDERSEN MORTEN M 1494 INDIVIDUALE 00:30:20.00 9,89 LUNGO

Classifica elaborata da www.winningtime.it


SANTINI GRANFONDO STELVIO
CRONOSCALATA DI TEGLIO - KM 5,00

Posiz Pett CognomeNome Sesso PosSex Società Tempo Media PERCORSO


1555 1960 GIMENO JAVIER M 1495 BMJ 00:30:20.20 9,89 LUNGO
1556 267 SOEEGAARD KLAUS M 1496 RUBY REJSER 00:30:20.20 9,89 LUNGO
1557 2719 AGAMY YOSSEF M 1497 INDIVIDUALE 00:30:20.40 9,89 MEDIO
1558 1966 KERKUSKA IMRE M 1498 INDIVIDUALE 00:30:20.40 9,89 LUNGO
1559 2721 HAVIV HANAN M 1499 INDIVIDUALE 00:30:20.50 9,89 MEDIO
1560 2590 SALVATORE TAURISANO M 1500 ASD TEAM FUORISOGLIA 00:30:20.60 9,89 LUNGO
1561 733 ANDREASEN RENÉ M 1501 INDIVIDUALE 00:30:20.70 9,89 LUNGO
1562 1008 SIGNORELLI FABIO M 1502 US LEGNANESE 00:30:21.00 9,88 LUNGO
1563 197 LIHAJ ROMAN M 1503 INDIVIDUALE 00:30:21.70 9,88 LUNGO
1564 722 TRICKETT NEIL M 1504 INDIVIDUALE 00:30:21.70 9,88 LUNGO
1565 1889 ZILIOTTO FIORENZO M 1505 INDIVIDUALE 00:30:22.80 9,88 MEDIO
1566 1462 SEARLE PAUL M 1506 INDIVIDUALE 00:30:23.30 9,87 LUNGO
1567 2270 BUIJS FLORIAN M 1507 IT CROWD 00:30:25.00 9,86 MEDIO
1568 2357 WEHKING FRANK M 1508 HOFHEIMER KETTENHUNDE 00:30:25.00 9,86 LUNGO
1569 1873 GORETTI CESARE M 1509 INDIVIDUALE 00:30:25.30 9,86 MEDIO
1570 897 LANZILOTTI ANGELO M 1510 ASD CARBINIA BIKE 00:30:26.40 9,86 LUNGO
1571 1708 IVAGNES MARCO M 1511 Q.D.B.C 00:30:27.30 9,85 LUNGO
1572 611 GÁL ATTILA M 1512 INDIVIDUALE 00:30:27.50 9,85 MEDIO
1573 2171 GLÖCKLER CHRISTOPH M 1513 INDIVIDUALE 00:30:27.50 9,85 MEDIO
1574 1838 CORTESE GIORGIO M 1514 INDIVIDUALE 00:30:28.50 9,85 MEDIO
1575 1860 PAGNAN TOMMASO M 1515 INDIVIDUALE 00:30:28.90 9,85 LUNGO
1576 1618 GUNNEKLEV TOR M 1516 INDIVIDUALE 00:30:29.20 9,84 LUNGO
1577 1617 FUMEY THOMAS M 1517 BOURVIL VÉLO CLUB 00:30:30.30 9,84 LUNGO
1578 1632 MUELLER ALEX M 1518 TRANSALP GRANDIOSO 00:30:30.40 9,84 LUNGO
1579 2460 RANGER THOMAS M 1519 COLNAGO ONLY 00:30:30.70 9,84 LUNGO
1580 813 D'AGOSTINO MARCO M 1520 INDIVIDUALE 00:30:30.70 9,84 LUNGO
1581 776 BUCCHERI LUIGI M 1521 AS DILETTANTISTICA SPORTING CLUB SORTINO BIKE 00:30:31.00 9,83 LUNGO
1582 826 EVANS GARY M 1522 INDIVIDUALE 00:30:31.40 9,83 LUNGO
1583 901 LESZCZAK WOJCIECH M 1523 INDIVIDUALE 00:30:32.40 9,83 LUNGO
1584 50 SUGLIA ALESSANDRO M 1524 US BORMIESE 00:30:32.70 9,83 MEDIO
1585 743 AYYUCE HALIM M 1525 INDIVIDUALE 00:30:34.40 9,81 MEDIO
1586 61 MORUZZI GABRIELE M 1526 ASD TEAM PERINI BIKE 00:30:34.50 9,81 MEDIO
1587 1097 HOPKINSON STUART M 1527 INDIVIDUALE 00:30:34.60 9,81 LUNGO
1588 2123 GARIBALDI MATTEO M 1528 ASD TEAM EVO PROJECT 00:30:34.70 9,81 LUNGO
1589 2053 TAVARES LUIZ FERNANDO M 1529 VIIVA ASSESSORIA 00:30:36.00 9,8 MEDIO
1590 820 DURÃO RODRIGUES HERMENEGILDO JOSÉ M 1530 INDIVIDUALE 00:30:36.00 9,8 LUNGO
1591 1218 FRIEDSAM HEINZ M 1531 RSV STURMVOGEL BAD NEUENAHR-AHRWEILER 00:30:36.80 9,8 MEDIO

Classifica elaborata da www.winningtime.it


SANTINI GRANFONDO STELVIO
CRONOSCALATA DI TEGLIO - KM 5,00

Posiz Pett CognomeNome Sesso PosSex Società Tempo Media PERCORSO


1592 1237 POLO SERGIO M 1532 TEAM VARGAS 00:30:37.20 9,8 LUNGO
1593 64 GROSSO GIUSEPPE M 1533 BIKE OFF 00:30:38.70 9,79 LUNGO
1594 2730 FANTONE SAURO M 1534 OSSOLA CYCLING TEAM 00:30:38.90 9,79 MEDIO
1595 2262 BROWN STEPHEN M 1535 INDIVIDUALE 00:30:39.40 9,79 LUNGO
1596 861 HENRIQUE COUTINHO LUIS MARIANO M 1536 INDIVIDUALE 00:30:40.40 9,78 LUNGO
1597 1528 LEE SU YOUN M 1537 INDIVIDUALE 00:30:40.90 9,78 LUNGO
1598 239 IDMYR LARS M 1538 RUBY REJSER 00:30:41.60 9,78 LUNGO
1599 1999 BOMBA PIOTR M 1539 NA PAZURKI 00:30:42.20 9,77 LUNGO
1600 261 PLOVSING RONNI THERMANN REITZ M 1540 RUBY REJSER 00:30:42.30 9,77 LUNGO
1601 1506 MAVROUDIS CHOCHOLIS ORESTIS M 1541 INDIVIDUALE 00:30:42.40 9,77 MEDIO
1602 2368 KIELAR PAWEL M 1542 INDIVIDUALE 00:30:42.50 9,77 MEDIO
1603 1964 KAKIEL AGATA F 59 INDIVIDUALE 00:30:42.50 9,77 LUNGO
1604 782 CACHAPA MUACHO PAULO JORGE M 1543 INDIVIDUALE 00:30:42.80 9,77 LUNGO
1605 2512 LOLI ANDREA M 1544 ASD CICLI FATATO 00:30:43.20 9,77 LUNGO
1606 1529 SEO DONGWON M 1545 INDIVIDUALE 00:30:43.40 9,77 LUNGO
1607 2112 SALGADO MARTINEZ FRANCISCO M 1546 CLUB CICLISTA VERÍN 00:30:43.40 9,77 LUNGO
1608 1230 LEPPERT DANIEL M 1547 RIG FREIBURG 00:30:44.20 9,76 MEDIO
1609 1102 JOHNE BENJAMIN M 1548 INDIVIDUALE 00:30:45.20 9,76 LUNGO
1610 2326 SZILÁRD POLGÁRDY M 1549 INDIVIDUALE 00:30:45.50 9,76 LUNGO
1611 2391 ANDERSEN SEBASTIAN M 1550 INDIVIDUALE 00:30:46.00 9,75 LUNGO
1612 3191 SOLINAS MARCO M 1551 INDIVIDUALE 00:30:46.70 9,75 MEDIO
1613 284 HUANG HUACHUN M 1552 INDIVIDUALE 00:30:47.20 9,75 MEDIO
1614 2993 PORTERI LUISA F 60 TITICI ADVENTURE TEAM 00:30:47.30 9,75 MEDIO
1615 1971 KSIAZKIEWICZ MICHAL M 1553 NOWA SWIECKA TRADYCJA 00:30:48.30 9,74 MEDIO
1616 2603 POLENGHI BRUNO LUIGI M 1554 TEAM MILANO CYCLING ASD 00:30:49.00 9,73 LUNGO
1617 2570 FRANCO DI MARCOBERARDINO M 1555 INDIVIDUALE 00:30:49.80 9,73 LUNGO
1618 1515 SCHEIDEGGER HEINZ M 1556 ASSOCIAZIONE PRO LINESCIO 00:30:50.20 9,73 MEDIO
1619 2442 SZÉKEDI TAMÁS M 1557 INDIVIDUALE 00:30:50.50 9,73 LUNGO
1620 949 OLIVEIRA FRANCISCO M 1558 PINABIKE 00:30:52.40 9,72 LUNGO
1621 355 ZORNIG KELD M 1559 INDIVIDUALE 00:30:52.50 9,72 LUNGO
1622 2301 VALIANI DANIELE M 1560 GIUSFREDI CICLISMO 00:30:52.70 9,72 LUNGO
1623 660 SANCHIS ANGEL M 1561 INDIVIDUALE 00:30:53.00 9,71 MEDIO
1624 2532 FROSI PAULO M 1562 INDIVIDUALE 00:30:54.90 9,71 MEDIO
1625 3182 GALBONI CARLO M 1563 INDIVIDUALE 00:30:55.00 9,7 MEDIO
1626 2954 ZANON GIACOMO M 1564 PEDALE GODIASCHESE 00:30:55.10 9,7 MEDIO
1627 1371 QUAGGETTO LORIS M 1565 ADS TEAM PERINI BIKE 00:30:55.70 9,7 LUNGO
1628 2397 PEREGO ROBERTO M 1566 ASD CERAMICHE LEMER 00:30:56.20 9,7 MEDIO

Classifica elaborata da www.winningtime.it


SANTINI GRANFONDO STELVIO
CRONOSCALATA DI TEGLIO - KM 5,00

Posiz Pett CognomeNome Sesso PosSex Società Tempo Media PERCORSO


1629 1470 LIMONETTI MARIKA F 61 AS TEAM GULLIVER BIKE 00:30:56.40 9,7 LUNGO
1630 1040 USBORNE GARY M 1567 INDIVIDUALE 00:30:56.60 9,7 LUNGO
1631 1473 NICCOLAI DANIELE M 1568 ASD TEAM STEFAN 00:30:56.90 9,7 LUNGO
1632 532 BRAND ANDREW M 1569 TEAM EUROPEAN CYCLE EVENTS 00:30:57.00 9,69 MEDIO
1633 1397 RIVERA GOYA JAVIER M 1570 ITV - ICE FOR LIFE 00:30:57.10 9,69 LUNGO
1634 2393 FIORIO MAURIZIO M 1571 ASD CERAMICHE LEMER 00:30:57.90 9,69 MEDIO
1635 2469 PALUSZYNSKI ANDRZEJ M 1572 INDIVIDUALE 00:30:58.70 9,69 LUNGO
1636 1088 FRANCISCO GARCÍA JOSE LUIS M 1573 CLUB CICLISTA VERÍN 00:30:58.70 9,69 LUNGO
1637 1302 CHIALASTRI GIANLUCA M 1574 ASD CICLIMONTANINI.IT 00:30:59.50 9,68 MEDIO
1638 1611 BENZ ROBYN F 62 INDIVIDUALE 00:30:59.70 9,68 LUNGO
1639 190 ALDERICI GIANMARCO M 1575 INDIVIDUALE 00:31:00.80 9,68 MEDIO
1640 2252 RIŽNAR DAVORIN M 1576 INDIVIDUALE 00:31:01.10 9,67 LUNGO
1641 1541 BERCKMANS DRIES M 1577 DE VENTIELTJES 00:31:01.80 9,67 LUNGO
1642 347 STORM BØRGE M 1578 INDIVIDUALE 00:31:02.10 9,67 MEDIO
1643 1689 OK MUJDAT M 1579 INDIVIDUALE 00:31:02.40 9,67 MEDIO
1644 844 GAWRONSKI JAN M 1580 LANTERNE ROUGE 00:31:03.20 9,66 LUNGO
1645 635 KUBIAK PRZEMYSLAW M 1581 INDIVIDUALE 00:31:03.70 9,66 LUNGO
1646 1654 HOY STEVE M 1582 INDIVIDUALE 00:31:03.70 9,66 LUNGO
1647 755 BENZI PIERO M 1583 US LEGNANESE 00:31:04.90 9,66 LUNGO
1648 2701 MESCIERI MATTIA M 1584 US LEGNANESE 00:31:05.30 9,65 LUNGO
1649 867 HJÆRESEN CLAUS M 1585 TEAM MOST WANTED 00:31:05.40 9,65 LUNGO
1650 1378 GRAY ALEXANDRA F 63 INDIVIDUALE 00:31:06.00 9,65 MEDIO
1651 765 BOHÁC PAVEL M 1586 INDIVIDUALE 00:31:06.40 9,65 LUNGO
1652 136 CUMMINGS KYLE M 1587 INDIVIDUALE 00:31:09.40 9,63 LUNGO
1653 802 CLAYTON JOHN M 1588 INDIVIDUALE 00:31:09.70 9,63 LUNGO
1654 963 PETRONE ANTONIO M 1589 SC CASAMASSIMA LABICICLETTASTORE.IT 00:31:10.70 9,63 MEDIO
1655 1823 JORDAN BOŠTJAN M 1590 ŠD POLICIST 00:31:11.50 9,62 LUNGO
1656 248 KÆRGAARD RYAN ENGELST M 1591 RUBY REJSER 00:31:12.20 9,62 LUNGO
1657 1138 VERMEYEN RAF M 1592 INDIVIDUALE 00:31:12.60 9,62 LUNGO
1658 232 GOEHNS JOAKIM M 1593 RUBY REJSER 00:31:12.70 9,62 LUNGO
1659 2083 YAZICIOGLU ERDAL M 1594 KONTRAPEDAL 00:31:13.00 9,61 MEDIO
1660 915 MANZARI SAVERIO M 1595 SC CASAMASSIMA-LABICICLETTASTORE.IT 00:31:13.00 9,61 LUNGO
1661 879 JOHANNESEN PREBEN M 1596 TEAM GOD TUR 00:31:13.20 9,61 LUNGO
1662 2055 CANORI MICHAELA F 64 INDIVIDUALE 00:31:14.20 9,61 LUNGO
1663 2655 ALVAREZ FERNANDO M 1597 CALIFORNIA SWISS CYCLING TEAM 00:31:15.50 9,6 LUNGO
1664 1815 AKPANA IBOROMA M 1598 INDIVIDUALE 00:31:18.70 9,58 LUNGO
1665 2682 SANTOS MARCELO M 1599 INDIVIDUALE 00:31:19.20 9,58 MEDIO

Classifica elaborata da www.winningtime.it


SANTINI GRANFONDO STELVIO
CRONOSCALATA DI TEGLIO - KM 5,00

Posiz Pett CognomeNome Sesso PosSex Società Tempo Media PERCORSO


1666 1750 LANZONI STEFANO M 1600 ASD SACMI 00:31:19.20 9,58 LUNGO
1667 1833 SOLAN DAVID M 1601 SHEELIN FLYERS 00:31:19.60 9,58 MEDIO
1668 2629 CARVALHO ALINE F 65 SOUL RACE, SA BIKE SHOP 00:31:20.00 9,57 MEDIO
1669 22 MICCIO MAURIZIO M 1602 US BORMIESE 00:31:20.10 9,57 MEDIO
1670 1900 KLOEG E M 1603 TTL DEN BOSCH 00:31:21.20 9,57 MEDIO
1671 2284 CHAPMAN TONY M 1604 TEAM EUROPEAN CYCLE EVENTS 00:31:21.40 9,57 LUNGO
1672 2864 MASSARA FRANCESCA F 66 ASD GRUPPO CICLISTICO '95 NOVARA 00:31:22.30 9,56 MEDIO
1673 2040 THOMSEN JESPER M 1605 INDIVIDUALE 00:31:22.40 9,56 LUNGO
1674 2072 GRAZIOSI GIORGIO M 1606 CIRCOLO DIPENDENTI PERUGINA APD 00:31:22.70 9,56 MEDIO
1675 1379 BERGAMO ALESSANDRO M 1607 ASD GRUPPO CICLISTICO '95 NOVARA 00:31:24.00 9,55 MEDIO
1676 1996 ZIOLKOWSKI MAREK M 1608 RST SOFTWARE MASTERS 00:31:24.20 9,55 LUNGO
1677 2021 SHCHERBININ OLEG M 1609 INDIVIDUALE 00:31:24.80 9,55 MEDIO
1678 848 GILMARTIN TOM M 1610 INDIVIDUALE 00:31:25.00 9,55 MEDIO
1679 1161 DUBON MARIO M 1611 ZUCARITAS 00:31:25.00 9,55 LUNGO
1680 1277 ABATE GIACOMO M 1612 GIUSFREDI CICLISMO 00:31:25.70 9,55 LUNGO
1681 1990 ROSSI MARCO M 1613 ASD GRAN CICLISMO 00:31:26.00 9,54 LUNGO
1682 1651 FJØLNER HENRIK M 1614 TESLA 00:31:26.50 9,54 LUNGO
1683 2684 WILLS STEVEN M 1615 INDIVIDUALE 00:31:27.20 9,54 MEDIO
1684 1566 FATTORINI MASSIMO M 1616 GIUSFREDI CICLISMO 00:31:27.20 9,54 LUNGO
1685 1983 NÖTZEL MARKUS M 1617 INDIVIDUALE 00:31:28.40 9,53 LUNGO
1686 2189 HOLIAN JOHN M 1618 INDIVIDUALE 00:31:28.70 9,53 LUNGO
1687 2706 MARTIN TAMARA F 67 INDIVIDUALE 00:31:29.00 9,53 MEDIO
1688 2496 TODD LUKE M 1619 INDIVIDUALE 00:31:30.00 9,52 MEDIO
1689 675 VILLADSEN KARSTEN M 1620 INDIVIDUALE 00:31:30.90 9,52 LUNGO
1690 1905 SORENSEN CLAUS BO M 1621 SCR MOTION 00:31:33.70 9,51 LUNGO
1691 855 GUYON ERIC M 1622 INDIVIDUALE 00:31:34.30 9,5 LUNGO
1692 1355 TIMMERMAN BRICE M 1623 TRI FORBACH 00:31:36.00 9,49 LUNGO
1693 1361 BATTA BENJAMINE F 68 INDIVIDUALE 00:31:36.90 9,49 LUNGO
1694 2319 NERI TIZIANO M 1624 TEAM VALLONE 00:31:37.20 9,49 LUNGO
1695 2756 LAMONARCA FRANCESCO M 1625 GENOVA1913 00:31:37.30 9,49 MEDIO
1696 2503 CATANESE IGNAZIO M 1626 ASD POLISPORTIVA TEAM D.R.C. CASA ROSOLINI 00:31:38.00 9,48 MEDIO
1697 2450 ERGUN ISMAIL M 1627 LEFTRIGHT MULTISPORT 00:31:38.30 9,48 LUNGO
1698 1036 TRAPERO MORAL MANUEL M 1628 C.C ESPRINT BIKE 00:31:38.50 9,48 LUNGO
1699 1902 LOTZ OLIVER M 1629 INDIVIDUALE 00:31:41.50 9,47 MEDIO
1700 2762 ZATTI DARIO M 1630 U.C. SFORZATICA 00:31:42.40 9,46 MEDIO
1701 2264 LERMA DANIELE M 1631 TEAM 100.01 ASD 00:31:43.00 9,46 MEDIO
1702 1258 GEHM ANDREAS M 1632 INDIVIDUALE 00:31:43.40 9,46 LUNGO

Classifica elaborata da www.winningtime.it


SANTINI GRANFONDO STELVIO
CRONOSCALATA DI TEGLIO - KM 5,00

Posiz Pett CognomeNome Sesso PosSex Società Tempo Media PERCORSO


1703 846 GHISLENI GIUSEPPE M 1633 INDIVIDUALE 00:31:45.10 9,45 LUNGO
1704 1274 HORVATH ATTILA M 1634 PANNONHALMA STELIVO PROJECT 00:31:45.20 9,45 MEDIO
1705 1227 KARAGIANNIS GEORGIOS M 1635 KRONOS NIKAIAS 00:31:46.00 9,44 LUNGO
1706 1060 ZAKHAROV ANDREI M 1636 ????????? 00:31:48.20 9,43 MEDIO
1707 759 BEVARDI JOSEF M 1637 HUNGARY/DOMBOVAR 00:31:48.40 9,43 MEDIO
1708 2666 ANDRONICO FRANCESCO M 1638 XXXXXX 00:31:51.60 9,42 MEDIO
1709 739 ARAÚJO JOSÉ M 1639 CICLO CLUBE BTT DE ELVAS 00:31:53.00 9,41 LUNGO
1710 3155 MARTINELLI GUSTAVO M 1640 INDIVIDUALE 00:31:53.50 9,41 MEDIO
1711 269 SØRENSEN LARS BERTEL M 1641 RUBY REJSER 00:31:53.50 9,41 LUNGO
1712 1272 VESELÝ FILIP M 1642 INDIVIDUALE 00:31:54.00 9,4 MEDIO
1713 2317 STORR KEN M 1643 INDIVIDUALE 00:31:54.20 9,4 LUNGO
1714 1984 OLSEN JORGEN M 1644 DAHVID 00:31:54.40 9,4 LUNGO
1715 2213 LOMBARDO FRANCESCO M 1645 ASD MAXI BICI 00:31:55.00 9,4 MEDIO
1716 783 CALDWELL ALISON F 69 CLAPHAM CHASERS 00:31:56.70 9,39 LUNGO
1717 2109 ANGELON NORBERTO DE JESUS M 1646 INDIVIDUALE 00:31:57.50 9,39 MEDIO
1718 2341 ROHMER CHRISTOPH M 1647 UROBEUYS 00:32:01.20 9,37 LUNGO
1719 2698 KALMA MAREK M 1648 INDIVIDUALE 00:32:02.70 9,37 MEDIO
1720 800 CHRISTOPHE NORBERT M 1649 INDIVIDUALE 00:32:08.70 9,34 MEDIO
1721 666 SLIWKA CHRISTOF M 1650 INDIVIDUALE 00:32:09.20 9,33 LUNGO
1722 1101 JAMES IAN M 1651 INDIVIDUALE 00:32:09.50 9,33 LUNGO
1723 2178 KARAKULLUKCU MUTLU M 1652 INDIVIDUALE 00:32:09.70 9,33 MEDIO
1724 282 HSU YU FANG F 70 INDIVIDUALE 00:32:10.90 9,33 LUNGO
1725 1637 TRENTIN THOMAS M 1653 ANMIL SPORT ITALIA 00:32:11.20 9,32 LUNGO
1726 2463 MALAT JAN M 1654 BBK BORSOV 00:32:11.30 9,32 MEDIO
1727 441 CONSENTI GIUSEPPE M 1655 CICLISPORT2000 FOCUS BIKES TEAM 00:32:11.60 9,32 MEDIO
1728 2689 OLIVEROS SARAHI F 71 US BORMIESE 00:32:11.70 9,32 LUNGO
1729 1051 VITIELLO GIOVANNI M 1656 AS DILETTANTISTICA SPORTING CLUB SORTINO BIKE 00:32:12.70 9,32 LUNGO
1730 381 SALVAN DAVIDE M 1657 ASD AMICI DEL CICLO DI VIGLIANO B.SE 00:32:15.10 9,3 LUNGO
1731 47 SCHIANTARELLI LUCA M 1658 US BORMIESE 00:32:16.70 9,3 LUNGO
1732 2136 CARLTON ROD M 1659 INDIVIDUALE 00:32:17.70 9,29 LUNGO
1733 933 MORGAN PHIL M 1660 PONTYCLUN FLYERS 00:32:19.50 9,28 LUNGO
1734 637 LESNICZAK DANIEL M 1661 INDIVIDUALE 00:32:20.20 9,28 MEDIO
1735 1448 WIEDEMER STEFFEN M 1662 INDIVIDUALE 00:32:20.40 9,28 MEDIO
1736 869 HOPKINS DAVID M 1663 INDIVIDUALE 00:32:21.00 9,27 MEDIO
1737 2658 VENTURA FRANÇOIS M 1664 INDIVIDUALE 00:32:23.90 9,26 MEDIO
1738 833 FLEISCHER RONNY M 1665 HAIRLINERS 00:32:23.90 9,26 LUNGO
1739 704 DINVERNO STEVE M 1666 INDIVIDUALE 00:32:24.20 9,26 LUNGO

Classifica elaborata da www.winningtime.it


SANTINI GRANFONDO STELVIO
CRONOSCALATA DI TEGLIO - KM 5,00

Posiz Pett CognomeNome Sesso PosSex Società Tempo Media PERCORSO


1740 1963 HEALY GRAHAM M 1667 LUCAN CRC 00:32:24.70 9,26 MEDIO
1741 1898 GANDINI GABRIELE M 1668 ASD MTB PAVIA ZAMAI 00:32:25.00 9,25 MEDIO
1742 1149 BAUER ANDREAS M 1669 HAIRLINERS AKTIVE 00:32:25.00 9,25 LUNGO
1743 579 APICELLA ADRIANO M 1670 INDIVIDUALE 00:32:25.20 9,25 LUNGO
1744 1532 BEENAERTS TOM M 1671 DE VENTIELTJES 00:32:25.70 9,25 LUNGO
1745 2398 BARRELLA NICOLAS M 1672 INDIVIDUALE 00:32:25.90 9,25 MEDIO
1746 1159 DE KEIJZER ALFONS M 1673 INDIVIDUALE 00:32:26.70 9,25 MEDIO
1747 2394 JEPSEN MORTEN M 1674 INDIVIDUALE 00:32:26.90 9,25 MEDIO
1748 312 HARTZBERG JØRGEN M 1675 INDIVIDUALE 00:32:27.40 9,24 MEDIO
1749 2455 GYORI GABOR M 1676 INDIVIDUALE 00:32:28.80 9,24 LUNGO
1750 1908 ARI SERKAN M 1677 INDIVIDUALE 00:32:29.50 9,24 MEDIO
1751 593 CABA CURTIS M 1678 INDIVIDUALE 00:32:32.40 9,22 LUNGO
1752 1748 GOTTARDO CARLO M 1679 INDIVIDUALE 00:32:32.60 9,22 MEDIO
1753 921 MELCHOR JORDAN JUAN M 1680 #ARUEDABIKE 00:32:32.60 9,22 MEDIO
1754 3060 DMITRY MELNIKOV M 1681 INDIVIDUALE 00:32:32.70 9,22 MEDIO
1755 2269 VURAL CENK M 1682 SASFIT 00:32:33.20 9,22 MEDIO
1756 1685 TUNÇ FATIH MURAT M 1683 HI RIDE 00:32:33.20 9,22 MEDIO
1757 1869 FALK NIKOLAI M 1684 INDIVIDUALE 00:32:33.30 9,22 MEDIO
1758 1483 NETTLETON JAMES M 1685 INDIVIDUALE 00:32:34.60 9,21 MEDIO
1759 1716 ROVEDA DANILO M 1686 Q.D.B.C 00:32:35.00 9,21 LUNGO
1760 2713 1880 00:32:35.20 9,21 MEDIO
1761 2413 CLAUDE DARCIS M 1687 INDIVIDUALE 00:32:36.70 9,2 LUNGO
1762 1896 CAVALLOTTI GABRIELE M 1688 INDIVIDUALE 00:32:37.20 9,2 MEDIO
1763 791 CASHMAN ISABEL F 72 INDIVIDUALE 00:32:37.20 9,2 MEDIO
1764 1942 ARGAST ADRIAN M 1689 INDIVIDUALE 00:32:38.00 9,19 MEDIO
1765 1895 CASADEI LUCA M 1690 ASD SID STRENZ I DENT SPORT TEAM 00:32:38.00 9,19 LUNGO
1766 2667 BONSOMS GONZALEZ MARC BONSOMS GONZALEZ M 1691 C.C SPRINT BIKE 00:32:38.30 9,19 LUNGO
1767 320 LARSEN DORTE F 73 INDIVIDUALE 00:32:38.70 9,19 LUNGO
1768 864 HERRAIZ MARTINEZ MIRIAM F 74 #ARUEDABIKE 00:32:39.20 9,19 MEDIO
1769 1725 MARCHIONNI MARCO M 1692 AUTOCARROZZERIA RALLY 00:32:39.20 9,19 LUNGO
1770 884 KILL MARC M 1693 INDIVIDUALE 00:32:43.40 9,17 MEDIO
1771 2562 SPERONI MATTEO M 1694 ASD G.S.C. BORSANO 00:32:44.20 9,16 MEDIO
1772 2349 ROHM CONSTANZE F 75 INDIVIDUALE 00:32:45.50 9,16 LUNGO
1773 712 MCDONAGH JOHN M 1695 INDIVIDUALE 00:32:45.50 9,16 LUNGO
1774 1244 VITI BORIS M 1696 GS PEDALE PIETRASANTINO 00:32:45.70 9,16 MEDIO
1775 1433 CILLO SILVIO M 1697 ASD DOMINASUD 00:32:46.20 9,16 MEDIO
1776 578 ANGIO RAMIRO M 1698 INDIVIDUALE 00:32:46.40 9,16 MEDIO

Classifica elaborata da www.winningtime.it


SANTINI GRANFONDO STELVIO
CRONOSCALATA DI TEGLIO - KM 5,00

Posiz Pett CognomeNome Sesso PosSex Società Tempo Media PERCORSO


1777 353 WESTPHAL JENSEN MORTEN M 1699 INDIVIDUALE 00:32:46.40 9,16 LUNGO
1778 1774 CHRISTENSEN MICHAEL M 1700 INDIVIDUALE 00:32:47.20 9,15 LUNGO
1779 2499 PAOLETTI LEONARDO M 1701 AS TEAM GULLIVER BIKE 00:32:48.70 9,15 LUNGO
1780 2695 GLÄSER KARSTEN M 1702 INDIVIDUALE 00:32:53.40 9,12 MEDIO
1781 3242 VOLPE RICCARDO M 1703 VALSANGONE OUTDOOR ASD 00:32:53.90 9,12 MEDIO
1782 1405 VIVARELLI GIANCARLO M 1704 ASD GRUPPO CICLISTICO '95 NOVARA 00:32:54.00 9,12 LUNGO
1783 2106 FRANCISCO CONDE LUIS M 1705 CLUB CICLISTA VERÍN 00:32:56.90 9,11 MEDIO
1784 2694 DI NARDI DARIO MARCO ANGELO ROBERTO M 1706 ASD EUROBICI 00:32:57.20 9,1 LUNGO
1785 181 SORESINI ALESSANDRO M 1707 ASD CASSINIS CYCLING TEAM 00:33:01.00 9,09 MEDIO
1786 508 RASMUSSEN JENS M 1708 REINHART CYKLING 00:33:01.00 9,09 LUNGO
1787 2806 HAIMOFF LIOR M 1709 INDIVIDUALE 00:33:01.70 9,09 MEDIO
1788 2248 RUTA STEFANO M 1710 QUELLI DELLA BIKE CYCLING 00:33:03.50 9,08 LUNGO
1789 3255 DAVOLIO LUCA M 1711 US BORMIESE 00:33:04.40 9,07 MEDIO
1790 719 SAUNDERSON PAUL M 1712 INDIVIDUALE 00:33:04.80 9,07 MEDIO
1791 2720 BITTON BOAZ M 1713 INDIVIDUALE 00:33:04.90 9,07 MEDIO
1792 265 ROTH KIM ROAR M 1714 RUBY REJSER 00:33:05.70 9,07 LUNGO
1793 950 ONEILL FRANK M 1715 INDIVIDUALE 00:33:06.40 9,06 MEDIO
1794 2659 ZIVAN SUSSHOLZ PHILIPPE M 1716 INDIVIDUALE 00:33:07.20 9,06 MEDIO
1795 1790 MAES LARS M 1717 TEAM LIMBURG 00:33:09.40 9,05 LUNGO
1796 1594 PHILIPPE CHAPEAU M 1718 ASA VAUZELLES TRIATHLON FRANCE 00:33:09.70 9,05 LUNGO
1797 703 CUDDIHY MARC M 1719 INDIVIDUALE 00:33:11.20 9,04 LUNGO
1798 875 ITALIA SOFIO M 1720 AS DILETTANTISTICA SPORTING CLUB SORTINO BIKE 00:33:11.20 9,04 LUNGO
1799 292 WU KUOCHEN M 1721 INDIVIDUALE 00:33:12.50 9,04 MEDIO
1800 295 ANDERSEN MICHAEL M 1722 INDIVIDUALE 00:33:14.40 9,03 MEDIO
1801 2173 MEIER TORSTEN M 1723 INDIVIDUALE 00:33:16.30 9,02 MEDIO
1802 1423 NISSEN GERT M 1724 TEAM NOVICE 00:33:19.40 9 LUNGO
1803 706 EVANS MARK M 1725 INDIVIDUALE 00:33:22.10 8,99 LUNGO
1804 2644 VITORIO NATASHA F 76 BV ASSESSEORIA ESPORTIVA 00:33:23.50 8,99 MEDIO
1805 1550 KRÖBER MARCUS M 1726 INDIVIDUALE 00:33:25.20 8,98 MEDIO
1806 857 HAMBURGER STEFAN M 1727 NUTRIXXION 00:33:28.50 8,96 LUNGO
1807 763 BIMET BRUNO M 1728 INDIVIDUALE 00:33:30.00 8,96 LUNGO
1808 823 EGL CLAUDIA F 77 INDIVIDUALE 00:33:30.20 8,96 MEDIO
1809 2153 GOODMAN RICHARD M 1729 INDIVIDUALE 00:33:31.90 8,95 LUNGO
1810 2312 BLAKE KATE F 78 INDIVIDUALE 00:33:32.20 8,95 LUNGO
1811 608 DROZDZ KATARZYNA F 79 INDIVIDUALE 00:33:33.10 8,94 MEDIO
1812 1307 CONTI MATTEO M 1730 U.C. CABIATESE 00:33:33.20 8,94 MEDIO
1813 620 GRUENBERG MARCELO M 1731 INDIVIDUALE 00:33:35.60 8,93 MEDIO

Classifica elaborata da www.winningtime.it


SANTINI GRANFONDO STELVIO
CRONOSCALATA DI TEGLIO - KM 5,00

Posiz Pett CognomeNome Sesso PosSex Società Tempo Media PERCORSO


1814 1203 TENTARELLI IVAN M 1732 SANTA MARIA DELLE MOLE 00:33:35.90 8,93 MEDIO
1815 2493 BANG JENS CHRISTIAN M 1733 INDIVIDUALE 00:33:36.50 8,93 LUNGO
1816 1398 RUBIO HERBERT M 1734 ZUCARITAS 00:33:38.70 8,92 MEDIO
1817 623 HEITTER KAROLY M 1735 INDIVIDUALE 00:33:38.70 8,92 MEDIO
1818 713 MURNS ANDREW M 1736 INDIVIDUALE 00:33:39.20 8,92 MEDIO
1819 2155 NOLAN PAUL M 1737 KENNY SPORTIVE & TOURING CLUB 00:33:40.40 8,91 MEDIO
1820 2388 KUEHLEIN BERND M 1738 INDIVIDUALE 00:33:41.50 8,91 MEDIO
1821 275 CHEN HSIEN F 80 INDIVIDUALE 00:33:43.90 8,9 LUNGO
1822 2916 CECCON SANDRO M 1739 DOTTABIKE 00:33:45.90 8,89 MEDIO
1823 762 BIENIEK GEORG M 1740 INDIVIDUALE 00:33:46.50 8,88 MEDIO
1824 672 THOMET MARKUS M 1741 INDIVIDUALE 00:33:47.00 8,88 LUNGO
1825 304 DAHL JENSEN KJELD M 1742 INDIVIDUALE 00:33:47.90 8,88 MEDIO
1826 2122 FERRAIA PIERO M 1743 ASD G.S. ALBA ADRIATICA 00:33:48.50 8,88 MEDIO
1827 2461 VERMIGLIO SALVATORE M 1744 INDIVIDUALE 00:33:48.90 8,88 MEDIO
1828 1126 SANDRO HUSTIGG M 1745 INDIVIDUALE 00:33:56.10 8,84 MEDIO
1829 1673 SADDLER BRUCE M 1746 INDIVIDUALE 00:33:59.70 8,83 MEDIO
1830 824 EGL KARL M 1747 INDIVIDUALE 00:34:01.70 8,82 MEDIO
1831 1771 CABRAL FILHO NELSON M 1748 INDIVIDUALE 00:34:08.90 8,79 MEDIO
1832 951 ONRUST MARTIN M 1749 SST 00:34:09.40 8,78 MEDIO
1833 279 CHUNG HSIANG-HENG M 1750 INDIVIDUALE 00:34:13.30 8,77 MEDIO
1834 604 DAGNINO ALEJANDRO M 1751 INDIVIDUALE 00:34:13.60 8,77 MEDIO
1835 3061 SEMEN IVANOV M 1752 INDIVIDUALE 00:34:18.20 8,75 MEDIO
1836 303 CHRISTENSEN OLE M 1753 INDIVIDUALE 00:34:25.00 8,72 LUNGO
1837 1821 GURRIE TOM M 1754 ORWELL WHEELERS 00:34:26.20 8,71 MEDIO
1838 2458 ZAMBETTI ALESSANDRO M 1755 ASD FRRD GOLFO DIANESE 00:34:29.00 8,7 MEDIO
1839 1640 GÖTZ HARTMUT M 1756 SV STOCKHAUSEN 00:34:29.40 8,7 LUNGO
1840 2034 PANG KUOK SHIUNG PHILIP M 1757 INDIVIDUALE 00:34:29.70 8,7 MEDIO
1841 339 ØSTERLUND MADSEN MICHAEL M 1758 INDIVIDUALE 00:34:30.00 8,7 MEDIO
1842 948 OBERSCHEVEN MARKUS M 1759 UCBC 00:34:31.20 8,69 MEDIO
1843 2226 MALIK AKBAR M 1760 INDIVIDUALE 00:34:34.70 8,68 LUNGO
1844 3262 VAN RIJSEWIJK RUDOLF M 1761 INDIVIDUALE 00:34:36.40 8,67 MEDIO
1845 2937 CAPELLA MATTEO M 1762 GS ST.JOSEPH 00:34:37.70 8,67 MEDIO
1846 273 CHANG YU-CHIA F 81 INDIVIDUALE 00:34:38.70 8,66 MEDIO
1847 274 CHEN HONG-REN M 1763 INDIVIDUALE 00:34:39.20 8,66 MEDIO
1848 688 BARDUCHI FABIO M 1764 INDIVIDUALE 00:34:41.30 8,65 MEDIO
1849 828 FAEDDA CARLO M 1765 INDIVIDUALE 00:34:44.00 8,64 LUNGO
1850 1847 SICURO ANTONIO M 1766 INDIVIDUALE 00:34:47.30 8,62 MEDIO

Classifica elaborata da www.winningtime.it


SANTINI GRANFONDO STELVIO
CRONOSCALATA DI TEGLIO - KM 5,00

Posiz Pett CognomeNome Sesso PosSex Società Tempo Media PERCORSO


1851 1845 NUTSCHEL DIETER M 1767 INDIVIDUALE 00:34:48.10 8,62 MEDIO
1852 1744 WARENG MICHAEL M 1768 BRITISH CYCLING 00:34:49.20 8,62 LUNGO
1853 1697 CARMEN HILDEBRAND F 82 INDIVIDUALE 00:34:50.00 8,61 LUNGO
1854 3042 SANNA MARIAVITTORIA F 83 INDIVIDUALE 00:34:51.80 8,61 MEDIO
1855 310 HANSEN JENS THOR M 1769 INDIVIDUALE 00:34:52.20 8,6 MEDIO
1856 1599 CHOI JINTAEK M 1770 DOSSA DONGBU 00:34:52.50 8,6 LUNGO
1857 337 OLSEN ALLAN M 1771 INDIVIDUALE 00:34:52.70 8,6 MEDIO
1858 346 SKOV HANSEN PETER M 1772 INDIVIDUALE 00:34:52.80 8,6 MEDIO
1859 3193 HACKETT DAVE M 1773 INDIVIDUALE 00:34:54.60 8,6 MEDIO
1860 3064 CALLIGARO ROBERTO M 1774 INDIVIDUALE 00:34:55.90 8,59 MEDIO
1861 420 LAMAGNA EUGENIO M 1775 ASD SUNBIKE 00:34:56.60 8,59 MEDIO
1862 710 LIVESEY LIVESEY M 1776 INDIVIDUALE 00:35:00.40 8,57 MEDIO
1863 1955 FELBER LAURA F 84 INDIVIDUALE 00:35:00.50 8,57 MEDIO
1864 3188 POLETTI FEDERICO M 1777 INDIVIDUALE 00:35:01.40 8,57 MEDIO
1865 2574 SUSON ADRIANA F 85 INDIVIDUALE 00:35:06.90 8,55 MEDIO
1866 856 HAGENS STEFAN M 1778 HAIRLINER'S AKTIV 00:35:07.70 8,54 MEDIO
1867 892 KURZ RAINER M 1779 ACTIVIZY SCHMIDEN 00:35:08.00 8,54 MEDIO
1868 2015 DAL VECCHIO GIANNI M 1780 SOC.SPORT.SANFUORESE 00:35:13.20 8,52 MEDIO
1869 917 MARTINEZ CARBONELL CARLES M 1781 MUNTBIKES 00:35:17.40 8,5 LUNGO
1870 1669 IRMAK SERKAN M 1782 HI RIDE 00:35:21.40 8,49 MEDIO
1871 2139 GROENEWOUD PIET HEIN M 1783 INDIVIDUALE 00:35:23.70 8,48 MEDIO
1872 2575 TATOMIR BOGDAN M 1784 TVA ALMERE 00:35:23.90 8,48 MEDIO
1873 1295 O'BRIEN NIAMH F 86 ORWELL WHEELERS 00:35:27.70 8,46 LUNGO
1874 27 BRADANINI FRANCESCO M 1785 US BORMIESE 00:35:33.70 8,44 LUNGO
1875 3152 MIRABELLI LUIS M 1786 INDIVIDUALE 00:35:34.50 8,43 MEDIO
1876 1209 ZIGLIOLI MASSIMILIANO M 1787 TITICI ADVENTURETEAM 00:35:35.40 8,43 MEDIO
1877 1894 BOLTEJ MAXIMILIANO M 1788 CC MUNTBIKES 00:35:37.20 8,42 MEDIO
1878 1184 MOLLINGA TOM M 1789 SUDERSEETREIN 00:35:37.90 8,42 MEDIO
1879 2403 TERRRA MARTIN M 1790 INDIVIDUALE 00:35:38.20 8,42 MEDIO
1880 858 HAMMANN ERNST LUDWIG M 1791 DRAHTESEL-LÜTZELBACH.DE 00:35:42.40 8,4 MEDIO
1881 684 DEPOORTERE STEVEN M 1792 INDIVIDUALE 00:35:42.70 8,4 LUNGO
1882 2212 KOVAC UROS M 1793 KK KAMEN KOCIPER 00:35:48.20 8,38 LUNGO
1883 1948 BORDOY LARS M 1794 DAHVID 00:35:50.60 8,37 LUNGO
1884 2158 SLANA SIMON M 1795 KK KAMEN KOCIPER 00:35:50.70 8,37 LUNGO
1885 726 AFOLABI SHEYI F 87 CYCOLOGY 00:35:51.30 8,37 LUNGO
1886 2723 TENNENHAUS RONNY M 1796 INDIVIDUALE 00:35:55.70 8,35 MEDIO
1887 2724 ZEEVI YOSEF M 1797 INDIVIDUALE 00:36:00.20 8,33 MEDIO

Classifica elaborata da www.winningtime.it


SANTINI GRANFONDO STELVIO
CRONOSCALATA DI TEGLIO - KM 5,00

Posiz Pett CognomeNome Sesso PosSex Società Tempo Media PERCORSO


1888 1561 WILSON JONATHAN M 1798 INDIVIDUALE 00:36:00.80 8,33 MEDIO
1889 1306 CONTI MARCO M 1799 U.C. CABIATESE 00:36:01.20 8,33 MEDIO
1890 890 KRISTENSEN JORGEN M 1800 INDIVIDUALE 00:36:01.70 8,33 MEDIO
1891 2054 AGAZZANI LUCA M 1801 INDIVIDUALE 00:36:06.70 8,31 LUNGO
1892 41 PUSANI STEFANO M 1802 US BORMIESE 00:36:07.90 8,31 MEDIO
1893 1829 PIRIC ELDAR M 1803 BK TUZLA 00:36:12.70 8,29 MEDIO
1894 742 AU HENRY K M 1804 COOKIE CYCLING CLUB 00:36:19.70 8,26 MEDIO
1895 1892 AYDINLIYURT TUNCAY M 1805 INDIVIDUAL 00:36:20.40 8,26 MEDIO
1896 2848 MAFFEZZONI MAURO M 1806 ASD AVIS PEDALE CASALASCO 00:36:22.40 8,25 MEDIO
1897 727 AGERBO NIELSEN FINN M 1807 HERNING CYKLE CLUB 00:36:22.60 8,25 MEDIO
1898 1736 GRENIER JONATHAN M 1808 RANDSTAD CYCLING TEAM 00:36:31.10 8,22 LUNGO
1899 2847 STRINA RAFFAELLA F 88 ASD AVIS PEDALE CASALASCO 00:36:32.10 8,21 MEDIO
1900 740 ARMBRUSTER PHILIPPE M 1809 ZUG ZURICH PELOTON 00:36:33.00 8,21 LUNGO
1901 734 ANGELICO ALDO M 1810 SC CASAMASSIMA LABICICLETTASTORE.IT 00:36:33.60 8,21 MEDIO
1902 2652 WALTERS JERRY M 1811 INDIVIDUALE 00:36:45.20 8,16 MEDIO
1903 842 GASPAR LUIS M 1812 INDIVIDUALE 00:36:45.90 8,16 MEDIO
1904 1056 WILLIAMS SAMANTHA F 89 INDIVIDUALE 00:36:46.90 8,16 MEDIO
1905 832 FERRIS ALI F 90 INDIVIDUALE 00:36:48.50 8,15 MEDIO
1906 819 DOOLEY SANDY F 91 INDIVIDUALE 00:36:49.40 8,15 MEDIO
1907 3185 PALMIERI ANDREA MARIA M 1813 INDIVIDUALE 00:36:49.90 8,15 MEDIO
1908 870 HOPKISSON DEBBIE F 92 INDIVIDUALE 00:36:50.50 8,14 MEDIO
1909 904 LIU JACK M 1814 INDIVIDUALE 00:36:54.10 8,13 LUNGO
1910 1773 CASTEJON IGNACIO M 1815 ALBATROS 00:36:56.20 8,12 MEDIO
1911 1236 POHLE TINO M 1816 HAIRLINER‘S AKTIV 00:36:58.90 8,12 MEDIO
1912 1315 KREJSAGER KRISTINE F 93 INDIVIDUALE 00:37:06.20 8,09 MEDIO
1913 3040 SCHILLER STEFANIE F 94 INDIVIDUALE 00:37:08.90 8,08 MEDIO
1914 594 CAM FERDI M 1817 INDIVIDUALE 00:37:09.20 8,08 MEDIO
1915 2844 MIKLÓS BORSOS M 1818 AMATEUR 00:37:09.40 8,08 MEDIO
1916 1819 DROZDZ ARTUR M 1819 INDIVIDUALE 00:37:09.50 8,08 MEDIO
1917 1196 SOEIRO BRUNO M 1820 INDIVIDUALE 00:37:12.60 8,06 MEDIO
1918 1199 STICHINI MARCO M 1821 INDIVIDUALE 00:37:12.70 8,06 MEDIO
1919 332 NERSTRØM HENRIK M 1822 INDIVIDUALE 00:37:21.40 8,03 MEDIO
1920 1841 FERRO MATTEO M 1823 BIKE STUDIO TEAM 00:37:34.90 7,99 MEDIO
1921 2509 MORRIS ADAM M 1824 INDIVIDUALE 00:37:40.40 7,96 MEDIO
1922 1076 CIOFFI MASSIMO M 1825 ASD DOMINASUD 00:37:40.90 7,96 MEDIO
1923 1172 KEIZER PATRICK M 1826 INDIVIDUALE 00:37:41.40 7,96 MEDIO
1924 889 KREDEL PATRICK M 1827 #RIDEPUNKX POWERED BY DRAHTESEL-LÜTZELBACH.DE 00:37:41.80 7,96 LUNGO

Classifica elaborata da www.winningtime.it


SANTINI GRANFONDO STELVIO
CRONOSCALATA DI TEGLIO - KM 5,00

Posiz Pett CognomeNome Sesso PosSex Società Tempo Media PERCORSO


1925 2222 SZILVESZTER TÓTH M 1828 SZINGO SE 00:37:47.00 7,94 MEDIO
1926 1870 FONG ED (SPINNING MONKEY) M 1829 KOPI RIDERS 00:37:51.90 7,93 LUNGO
1927 2925 SALA ROMANO M 1830 SIRONI TANZI 1947 00:37:53.50 7,92 MEDIO
1928 676 VINCENT LARREDE M 1831 INDIVIDUALE 00:37:54.30 7,92 MEDIO
1929 2316 SANTINI JAVIER M 1832 INDIVIDUALE 00:37:59.10 7,9 MEDIO
1930 3180 GREGORIG RICCARDO M 1833 INDIVIDUALE 00:38:03.80 7,88 MEDIO
1931 2446 TÓTH GÁBOR M 1834 INDIVIDUALE 00:38:04.60 7,88 MEDIO
1932 2443 SZÜCS GÁBOR M 1835 INDIVIDUALE 00:38:05.00 7,88 MEDIO
1933 2143 REIJNIERSE BART M 1836 INDIVIDUALE 00:38:08.70 7,87 MEDIO
1934 1317 MUEHLETHALER MARTIN M 1837 INDIVIDUALE 00:38:17.70 7,84 MEDIO
1935 289 LIN YENCHUN F 95 INDIVIDUALE 00:38:28.80 7,8 MEDIO
1936 1795 MOLTENI MARCO M 1838 INDIVIDUALE 00:38:30.30 7,79 MEDIO
1937 2088 GERRITSEN MARCEL M 1839 INDIVIDUALE 00:38:41.20 7,76 MEDIO
1938 280 FU QING-HUA M 1840 INDIVIDUALE 00:38:50.40 7,73 MEDIO
1939 1941 AKSEHIRLI CAGATAY M 1841 INDIVIDUALE 00:38:59.90 7,7 MEDIO
1940 2441 STEIN ERNO M 1842 INDIVIDUALE 00:39:05.90 7,68 MEDIO
1941 79 CARMINATI STEFANIA F 96 ASD TEAM MOROTTI 00:39:20.10 7,63 MEDIO
1942 80 AGOSTINIS FABIO MARIA M 1843 ASD TEAM MOROTTI 00:39:21.60 7,62 MEDIO
1943 2104 CHUN YOUNGKWON M 1844 INDIVIDUALE 00:39:37.90 7,57 MEDIO
1944 3274 CASCONE STEFANO M 1845 TEAM BMC RUSSOLILLO 00:39:48.90 7,54 MEDIO
1945 598 CENDROWICZ MONIKA F 97 INDIVIDUALE 00:39:49.60 7,53 MEDIO
1946 2568 BOWDITCH RICHARD M 1846 INDIVIDUALE 00:39:49.90 7,53 MEDIO
1947 2936 CAPELLA EDGARDO M 1847 GS ST.JOSEPH 00:40:01.40 7,5 MEDIO
1948 2530 ASHLAG YISHAI M 1848 INDIVIDUALE 00:40:10.40 7,47 MEDIO
1949 934 MORVILLO LAURA F 98 TEAM BMC RUSSOLILLO 00:40:11.90 7,47 MEDIO
1950 1578 LEE HOJONG M 1849 GCC 00:40:38.00 7,38 MEDIO
1951 1437 DONGHA NAM, M 1850 GCC 00:40:39.70 7,38 MEDIO
1952 1162 FACCHINETTI IVAN M 1851 ASD CICLI BETTONI COSTA VOLPINO 00:40:43.70 7,37 MEDIO
1953 2416 HADAD RONNY M 1852 TWENTY PEAKS 00:41:01.40 7,31 MEDIO
1954 283 HUANG CHI-CHOU M 1853 INDIVIDUALE 00:41:17.10 7,27 MEDIO
1955 2722 MICHAELI DAN M 1854 INDIVIDUALE 00:41:23.10 7,25 MEDIO
1956 603 CURLEY SEAN M 1855 INDIVIDUALE 00:41:54.60 7,16 MEDIO
1957 3225 ABILDLØKKE-RASMUSSEN MORTEN M 1856 INDIVIDUALE 00:42:06.10 7,13 LUNGO
1958 1535 MATTEUCCI PAOLO M 1857 ASD GARRUFO 00:42:19.40 7,09 MEDIO
1959 2845 TAMÁS LEPCSÉNYI M 1858 AMATEUR 00:42:33.70 7,05 MEDIO
1960 1832 SMITH JAMES M 1859 SHEELIN FLYERS CYCLING CLUB 00:42:42.60 7,03 MEDIO
1961 1671 LIEVERDINK PETER M 1860 INDIVIDUALE 00:42:48.20 7,01 MEDIO

Classifica elaborata da www.winningtime.it


SANTINI GRANFONDO STELVIO
CRONOSCALATA DI TEGLIO - KM 5,00

Posiz Pett CognomeNome Sesso PosSex Società Tempo Media PERCORSO


1962 1012 SOMMA ERNESTO M 1861 INDIVIDUALE 00:43:00.20 6,98 MEDIO
1963 2353 MOORE SIMON M 1862 TEAM EUROPEAN CYCLE EVENTS 00:43:02.90 6,97 MEDIO
1964 285 HUANG PAI-AN F 99 INDIVIDUALE 00:43:17.50 6,93 MEDIO
1965 288 LIN CHI-MING M 1863 INDIVIDUALE 00:43:18.00 6,93 MEDIO
1966 2923 ARDANESE RAFFAELLO M 1864 FAUSTO COPPI CESENATICO 00:43:27.40 6,9 MEDIO
1967 1788 KORPERSHOEK MICHEL M 1865 TEAM LIMBURG 00:44:11.60 6,79 LUNGO
1968 728 AKINSETE AKIN M 1866 INDIVIDUALE 00:44:43.10 6,71 MEDIO
1969 1548 FERRO ELISA F 100 POLISPORTIVA PETTENASCO MTB 00:44:44.10 6,71 MEDIO
1970 1787 KNOOK ADRIAAN M 1867 TEAM LIMBURG 00:45:09.10 6,64 LUNGO
1971 281 HSIEH CHIEN YING F 101 INDIVIDUALE 00:45:23.60 6,61 MEDIO
1972 359 BOGANI PAOLO M 1868 CICLI MAGGIONI TEAM ASD 00:45:24.00 6,61 MEDIO
1973 2070 DI FONSO SANDRO M 1869 CIRCOLO DIPENDENTI PERUGINA APD 00:45:45.90 6,56 MEDIO
1974 628 JOB GERALD M 1870 INDIVIDUALE 00:46:41.80 6,43 MEDIO
1975 416 ORSI DAVIDE M 1871 ASD SAN SIRO. 2001 00:47:16.10 6,35 LUNGO
1976 2555 LACZKO MARIANNA F 102 INDIVIDUALE 00:48:20.10 6,21 MEDIO
1977 286 LEE SHEN-YANG M 1872 INDIVIDUALE 00:48:25.90 6,2 MEDIO
1978 2841 MINIERA SILVIO M 1873 ALTA VALTELLINA BIKE 00:48:30.40 6,19 MEDIO
1979 680 WAGLAND GARETH M 1874 INDIVIDUALE 00:48:44.40 6,16 LUNGO
1980 1294 MOLINARI NICOLÒ M 1875 INDIVIDUALE 00:48:47.40 6,15 MEDIO
1981 1297 PEROSSA CHIARA F 103 INDIVIDUALE 00:48:48.40 6,15 MEDIO
1982 2402 OTEIZA MARCOS M 1876 INDIVIDUALE 00:52:41.30 5,69 MEDIO
1983 2030 GUARNIERI ANTONELLO M 1877 RCS MILANO 00:58:02.00 5,17 MEDIO

Classifica elaborata da www.winningtime.it